[[{"header":{"parameterUnit":"m.s-1","parameterCategory":1,"la1":30.6,"la2":29.2853,"lo1":-89.7004,"lo2":-87.6739,"dy":0.0162,"dx":0.0183,"nx":112,"ny":82,"refTime":"2023-05-25T18:00:00:Z","depth":0,"parameterNumber":2,"parameterNumberName":"U-component_of_WINDS"},"data":[0.0,0.0,0.0,0.0,0.0,0.0,0.0,0.0,0.0,0.0,0.0,0.0,0.0,0.0,0.0,0.0,0.0,0.0,0.0,0.0,0.0,0.0,0.0,0.0,0.0,0.0,0.0,0.0,0.0,0.0,0.0,0.0,0.0,0.0,0.0,0.0,0.0,0.0,0.0,0.0,0.0,0.0,0.0,0.0,0.0,0.0,0.0,0.0,0.0,0.0,0.0,0.0,0.0,0.0,0.0,0.0,0.0,0.0,0.0,0.0,0.0,0.0,0.0,0.0,0.0,0.0,0.0,0.0,0.0,0.0,0.0,0.0,0.0,0.0,0.0,0.0,0.0,0.0,0.0,0.0,0.0,0.0,0.0,0.0,0.0,0.0,0.0,0.0,0.0,0.0,3.2144,3.3388,3.5392,3.7149,3.8488,3.7496,3.6333,3.526,0.0,0.0,0.0,0.0,0.0,0.0,0.0,0.0,0.0,0.0,0.0,0.0,0.0,0.0,0.0,0.0,0.0,0.0,0.0,0.0,0.0,0.0,0.0,0.0,0.0,0.0,0.0,0.0,0.0,0.0,0.0,0.0,0.0,0.0,0.0,0.0,0.0,0.0,0.0,0.0,0.0,0.0,0.0,0.0,0.0,0.0,0.0,0.0,0.0,0.0,0.0,0.0,0.0,0.0,0.0,0.0,0.0,0.0,0.0,0.0,0.0,0.0,0.0,0.0,0.0,0.0,0.0,0.0,0.0,0.0,0.0,0.0,0.0,0.0,0.0,0.0,0.0,0.0,0.0,0.0,0.0,0.0,0.0,0.0,0.0,0.0,0.0,0.0,0.0,0.0,0.0,0.0,0.0,0.0,0.0,0.0,0.0,0.0,0.0,0.0,0.0,0.0,0.0,0.0,3.0616,3.2932,3.4547,3.5603,3.596,3.5312,3.5026,3.5272,0.0,0.0,0.0,0.0,0.0,0.0,0.0,0.0,0.0,0.0,0.0,0.0,0.0,0.0,0.0,0.0,0.0,0.0,0.0,0.0,0.0,0.0,0.0,0.0,0.0,0.0,0.0,0.0,0.0,0.0,0.0,0.0,0.0,0.0,0.0,0.0,0.0,0.0,0.0,0.0,0.0,0.0,0.0,0.0,0.0,0.0,0.0,0.0,0.0,0.0,0.0,0.0,0.0,0.0,0.0,0.0,0.0,0.0,0.0,0.0,0.0,0.0,0.0,0.0,0.0,0.0,0.0,0.0,0.0,0.0,0.0,0.0,0.0,0.0,0.0,0.0,0.0,0.0,0.0,0.0,0.0,0.0,0.0,0.0,0.0,0.0,0.0,0.0,0.0,0.0,0.0,0.0,0.0,0.0,0.0,0.0,0.0,0.0,0.0,0.0,0.0,0.0,0.0,3.0388,3.1442,3.2503,3.368,3.455,3.4881,3.436,3.4106,3.4306,3.5452,0.0,0.0,0.0,0.0,0.0,0.0,0.0,0.0,0.0,0.0,0.0,0.0,0.0,0.0,0.0,0.0,0.0,0.0,0.0,0.0,0.0,0.0,0.0,0.0,0.0,0.0,0.0,0.0,0.0,0.0,0.0,0.0,0.0,0.0,0.0,0.0,0.0,0.0,0.0,0.0,0.0,0.0,0.0,0.0,0.0,0.0,0.0,0.0,0.0,0.0,0.0,0.0,0.0,0.0,0.0,0.0,0.0,0.0,0.0,0.0,0.0,0.0,0.0,0.0,0.0,0.0,0.0,0.0,0.0,0.0,0.0,0.0,0.0,0.0,0.0,0.0,0.0,0.0,0.0,0.0,0.0,0.0,0.0,0.0,0.0,0.0,0.0,0.0,0.0,0.0,0.0,0.0,0.0,0.0,0.0,0.0,0.0,0.0,0.0,0.0,0.0,0.0,3.1382,3.219,3.202,3.2768,3.3484,3.4025,3.3549,3.3428,3.3941,3.4772,0.0,0.0,0.0,0.0,0.0,0.0,0.0,0.0,0.0,0.0,0.0,0.0,0.0,0.0,0.0,0.0,0.0,0.0,0.0,0.0,0.0,0.0,0.0,0.0,0.0,0.0,0.0,0.0,0.0,0.0,0.0,0.0,0.0,0.0,0.0,0.0,0.0,0.0,0.0,0.0,0.0,0.0,0.0,0.0,0.0,0.0,0.0,0.0,0.0,0.0,0.0,0.0,0.0,0.0,0.0,0.0,0.0,0.0,0.0,0.0,0.0,0.0,0.0,0.0,0.0,0.0,0.0,0.0,0.0,0.0,0.0,0.0,0.0,0.0,0.0,0.0,0.0,0.0,0.0,0.0,0.0,0.0,0.0,0.0,0.0,0.0,0.0,0.0,0.0,0.0,0.0,0.0,0.0,0.0,0.0,0.0,0.0,0.0,0.0,0.0,0.0,0.0,3.0659,3.1522,3.1381,3.1704,3.2166,3.2765,3.2387,3.3028,3.5139,3.438,0.0,0.0,0.0,0.0,0.0,0.0,0.0,0.0,0.0,0.0,0.0,0.0,0.0,0.0,0.0,0.0,0.0,0.0,0.0,0.0,0.0,0.0,0.0,0.0,0.0,0.0,0.0,0.0,0.0,0.0,0.0,0.0,0.0,0.0,0.0,0.0,0.0,0.0,0.0,0.0,0.0,0.0,0.0,0.0,0.0,0.0,0.0,0.0,0.0,0.0,0.0,0.0,0.0,0.0,0.0,0.0,0.0,0.0,0.0,0.0,0.0,0.0,0.0,0.0,0.0,0.0,0.0,0.0,0.0,0.0,0.0,0.0,0.0,0.0,0.0,0.0,0.0,0.0,0.0,0.0,0.0,0.0,0.0,0.0,0.0,0.0,0.0,0.0,0.0,0.0,0.0,0.0,0.0,0.0,0.0,0.0,0.0,0.0,0.0,0.0,0.0,0.0,3.0021,3.0797,3.0748,3.1086,3.1683,3.2611,3.253,3.3029,3.4458,0.0,0.0,0.0,0.0,0.0,0.0,0.0,0.0,0.0,0.0,0.0,0.0,0.0,0.0,0.0,0.0,0.0,0.0,0.0,0.0,0.0,0.0,0.0,0.0,0.0,0.0,0.0,0.0,0.0,0.0,0.0,0.0,0.0,0.0,0.0,0.0,0.0,0.0,0.0,0.0,0.0,0.0,0.0,0.0,0.0,0.0,0.0,0.0,0.0,0.0,0.0,0.0,0.0,0.0,0.0,0.0,0.0,0.0,0.0,0.0,0.0,0.0,0.0,0.0,0.0,0.0,0.0,0.0,0.0,0.0,0.0,0.0,0.0,0.0,0.0,0.0,0.0,0.0,0.0,0.0,0.0,0.0,0.0,0.0,0.0,0.0,0.0,0.0,0.0,0.0,0.0,0.0,0.0,0.0,0.0,0.0,0.0,0.0,0.0,0.0,0.0,0.0,2.8561,2.9651,3.0406,3.0406,3.0917,3.166,3.2614,3.256,3.2889,3.3842,0.0,0.0,0.0,0.0,0.0,0.0,0.0,0.0,0.0,0.0,0.0,0.0,0.0,0.0,0.0,0.0,0.0,0.0,0.0,0.0,0.0,0.0,0.0,0.0,0.0,0.0,0.0,0.0,0.0,0.0,0.0,0.0,0.0,0.0,0.0,0.0,0.0,0.0,0.0,0.0,0.0,0.0,0.0,0.0,0.0,0.0,0.0,0.0,0.0,0.0,0.0,0.0,0.0,0.0,0.0,0.0,0.0,0.0,0.0,0.0,0.0,0.0,0.0,0.0,0.0,0.0,0.0,0.0,0.0,0.0,0.0,0.0,0.0,0.0,0.0,0.0,0.0,0.0,0.0,0.0,0.0,0.0,0.0,0.0,0.0,0.0,0.0,0.0,0.0,0.0,0.0,0.0,0.0,0.0,0.0,0.0,0.0,0.0,0.0,0.0,0.0,0.0,2.8597,2.9651,3.0406,3.0406,3.1227,3.2041,3.267,3.2269,3.2492,0.0,0.0,0.0,0.0,0.0,0.0,0.0,0.0,0.0,0.0,0.0,0.0,0.0,0.0,0.0,0.0,0.0,0.0,0.0,0.0,0.0,0.0,0.0,0.0,0.0,0.0,0.0,0.0,0.0,0.0,0.0,0.0,0.0,0.0,0.0,0.0,0.0,0.0,0.0,0.0,0.0,0.0,0.0,0.0,0.0,0.0,0.0,0.0,0.0,0.0,0.0,0.0,0.0,0.0,0.0,0.0,0.0,0.0,0.0,0.0,0.0,0.0,0.0,0.0,0.0,0.0,0.0,0.0,0.0,0.0,0.0,0.0,0.0,0.0,0.0,0.0,0.0,0.0,0.0,0.0,0.0,0.0,0.0,0.0,0.0,0.0,0.0,0.0,0.0,0.0,0.0,0.0,0.0,0.0,0.0,0.0,0.0,0.0,0.0,0.0,0.0,0.0,0.0,2.8561,2.9546,3.0387,3.091,3.1331,3.2073,3.3239,3.2427,3.198,3.2283,0.0,0.0,0.0,0.0,0.0,0.0,0.0,0.0,0.0,0.0,0.0,0.0,0.0,0.0,0.0,0.0,0.0,0.0,0.0,0.0,0.0,0.0,0.0,0.0,0.0,0.0,0.0,0.0,0.0,0.0,0.0,0.0,0.0,0.0,0.0,0.0,0.0,0.0,0.0,0.0,0.0,0.0,0.0,0.0,0.0,0.0,0.0,0.0,0.0,0.0,0.0,0.0,0.0,0.0,0.0,0.0,0.0,0.0,0.0,0.0,0.0,0.0,0.0,0.0,0.0,0.0,0.0,0.0,0.0,0.0,0.0,0.0,0.0,0.0,0.0,0.0,0.0,0.0,0.0,0.0,0.0,0.0,0.0,0.0,0.0,0.0,0.0,0.0,0.0,0.0,0.0,0.0,0.0,0.0,0.0,0.0,0.0,0.0,0.0,0.0,0.0,0.0,2.8536,2.9416,3.0263,3.1033,3.1626,3.2282,3.3058,3.245,3.1764,3.111,0.0,0.0,0.0,0.0,0.0,0.0,0.0,0.0,0.0,0.0,0.0,0.0,0.0,0.0,0.0,0.0,0.0,0.0,0.0,0.0,0.0,0.0,0.0,0.0,0.0,0.0,0.0,0.0,0.0,0.0,0.0,0.0,0.0,0.0,0.0,0.0,0.0,0.0,0.0,0.0,0.0,0.0,0.0,0.0,0.0,0.0,0.0,0.0,0.0,0.0,0.0,0.0,0.0,0.0,0.0,0.0,0.0,0.0,0.0,0.0,0.0,0.0,0.0,0.0,0.0,0.0,0.0,0.0,0.0,0.0,0.0,0.0,0.0,0.0,0.0,0.0,0.0,0.0,0.0,0.0,0.0,0.0,0.0,0.0,0.0,0.0,0.0,0.0,0.0,0.0,0.0,0.0,0.0,0.0,0.0,0.0,0.0,0.0,0.0,0.0,0.0,0.0,2.8574,2.9354,3.0169,3.0955,3.1938,3.2468,3.2306,3.2199,3.1512,3.0018,0.0,0.0,0.0,0.0,0.0,0.0,0.0,0.0,0.0,0.0,0.0,0.0,0.0,0.0,0.0,0.0,0.0,0.0,0.0,0.0,0.0,0.0,0.0,0.0,0.0,0.0,0.0,0.0,0.0,0.0,0.0,0.0,0.0,0.0,0.0,0.0,0.0,0.0,0.0,0.0,0.0,0.0,0.0,0.0,0.0,0.0,0.0,0.0,0.0,0.0,0.0,0.0,0.0,0.0,0.0,0.0,0.0,0.0,0.0,0.0,2.299,2.4075,0.0,0.0,0.0,0.0,0.0,0.0,0.0,0.0,0.0,0.0,0.0,0.0,0.0,0.0,0.0,0.0,0.0,0.0,0.0,0.0,0.0,0.0,0.0,0.0,0.0,0.0,0.0,0.0,0.0,0.0,0.0,0.0,0.0,0.0,0.0,0.0,0.0,0.0,0.0,0.0,2.9178,2.988,3.0567,3.1316,3.1351,3.1391,3.1465,3.062,2.968,2.8672,2.787,0.0,0.0,0.0,0.0,0.0,0.0,0.0,0.0,0.0,0.0,0.0,0.0,0.0,0.0,0.0,0.0,0.0,0.0,0.0,0.0,0.0,0.0,0.0,0.0,0.0,0.0,0.0,0.0,0.0,0.0,0.0,0.0,0.0,0.0,0.0,0.0,0.0,0.0,0.0,0.0,0.0,0.0,0.0,0.0,0.0,0.0,0.0,0.0,0.0,0.0,0.0,0.0,0.0,0.0,0.0,0.0,0.0,0.0,0.0,1.9759,2.1551,0.0,0.0,0.0,0.0,0.0,0.0,0.0,0.0,0.0,0.0,0.0,0.0,0.0,0.0,0.0,0.0,0.0,0.0,0.0,0.0,0.0,0.0,0.0,0.0,0.0,0.0,0.0,0.0,0.0,0.0,0.0,0.0,0.0,0.0,0.0,0.0,0.0,0.0,0.0,0.0,2.8715,2.9328,2.983,3.0212,3.0349,3.0272,2.995,2.9355,2.8573,2.7525,2.7083,0.0,0.0,0.0,0.0,0.0,0.0,0.0,0.0,0.0,0.0,0.0,0.0,0.0,0.0,0.0,0.0,0.0,0.0,0.0,0.0,0.0,0.0,0.0,0.0,0.0,0.0,0.0,0.0,0.0,0.0,0.0,0.0,0.0,0.0,0.0,0.0,0.0,0.0,0.0,0.0,0.0,0.0,0.0,0.0,0.0,0.0,0.0,0.0,0.0,0.0,0.0,0.0,0.0,1.199,1.1976,1.1398,1.1989,1.1883,1.1466,1.5244,1.7579,1.8767,1.922,0.0,0.0,0.0,0.0,0.0,0.0,0.0,0.0,0.0,0.0,0.0,0.0,0.0,0.0,0.0,0.0,0.0,0.0,0.0,0.0,0.0,0.0,1.9338,2.0605,2.1038,2.1466,2.2568,0.0,0.0,0.0,0.0,0.0,0.0,0.0,0.0,0.0,0.0,0.0,2.8047,2.8618,2.89,2.8806,2.9152,2.9043,2.8109,2.8015,2.749,2.6388,2.6407,2.6451,0.0,0.0,0.0,0.0,0.0,0.0,0.0,0.0,0.0,0.0,0.0,0.0,0.0,0.0,0.0,0.0,0.0,0.0,0.0,0.0,0.0,0.0,0.0,0.0,0.0,0.0,0.0,0.0,0.0,0.0,0.0,0.0,0.9643,0.9376,0.0,0.0,0.0,0.0,0.0,0.0,0.0,0.0,0.0,0.0,0.0,0.0,0.0,0.6786,0.7445,0.7683,0.7655,0.7435,0.8122,0.8166,0.7709,0.8203,0.8365,0.8262,0.8372,0.0,1.3288,1.398,0.0,0.0,0.0,0.0,0.0,0.0,0.0,0.0,0.0,0.0,0.0,0.0,0.0,0.0,0.0,0.0,0.0,0.0,0.0,0.0,0.0,0.0,1.7045,1.8267,1.841,1.8581,1.977,2.2123,2.3892,2.359,2.4096,2.483,0.0,0.0,0.0,0.0,0.0,0.0,2.8206,2.8743,2.8902,2.8412,2.8019,2.7365,2.6254,2.6009,2.5585,2.4836,2.5217,2.5636,2.5979,2.5582,0.0,0.0,0.0,0.0,0.0,0.0,0.0,0.0,0.0,0.0,0.0,0.0,0.0,0.0,0.0,0.0,0.0,0.0,0.0,0.0,0.0,0.0,0.0,0.0,0.0,0.0,0.0,0.0,0.0,0.6198,0.5503,0.5845,0.5294,0.5178,0.0,0.0,0.0,0.0,0.0,0.0,0.0,0.0,0.0,0.3299,0.322,0.3585,0.4418,0.4534,0.4706,0.5015,0.5462,0.5405,0.4948,0.5342,0.5178,0.4598,0.432,0.5103,0.6683,0.8903,1.0117,1.0744,0.0,0.0,0.0,0.0,1.6183,1.673,1.7217,1.7455,1.7636,1.7911,0.0,0.0,0.0,0.0,0.0,0.0,0.0,1.5859,1.5728,1.5981,1.6454,1.7342,1.7557,1.7796,1.8605,2.0089,2.1375,2.1732,2.2227,2.3075,2.4469,2.4223,0.0,0.0,0.0,2.6266,2.6515,2.7292,2.7342,2.608,2.5929,2.5382,2.4009,2.382,2.3509,2.2957,2.3154,2.3357,2.3523,2.3468,2.3886,0.0,0.0,0.0,0.0,0.0,0.0,0.0,0.0,0.0,0.0,0.0,0.0,0.0,0.0,0.0,0.0,0.0,0.0,0.0,0.0,0.0,0.0,0.0,0.0,0.0,0.0,0.0,0.0,0.214,0.1694,0.1959,0.1219,0.1247,0.0,0.0,0.0,0.0,0.0,0.0,-0.08,-0.1088,-0.0936,-0.0203,-0.0087,0.038,0.1274,0.1632,0.2043,0.2533,0.2977,0.2957,0.2597,0.2846,0.2565,0.186,0.1767,0.1723,0.1892,0.4759,0.6297,0.7006,0.868,0.9554,1.0054,1.1554,1.2228,1.2516,1.3243,1.3432,1.3427,1.384,1.3798,1.3504,1.3303,0.0,0.0,0.0,0.0,1.4181,1.4254,1.4764,1.5396,1.5919,1.6179,1.647,1.7057,1.7702,1.8564,1.9882,2.0532,2.1395,2.3151,2.2774,0.0,2.479,2.4888,2.4711,2.4747,2.5412,2.5332,2.3845,2.391,2.3561,2.2289,2.2029,2.182,2.1488,2.1385,2.127,2.1142,2.139,2.1711,2.2144,0.0,0.0,0.0,0.0,0.0,0.0,0.0,0.0,0.0,0.0,0.0,0.0,0.0,0.0,0.0,0.0,0.0,0.0,0.0,0.0,0.0,0.0,0.0,0.0,0.0,0.0,0.0,0.0,0.0,-0.2235,-0.1826,0.0,0.0,0.0,0.0,-0.3855,-0.4561,-0.4882,-0.4647,-0.4654,-0.4345,-0.3671,-0.3348,-0.2863,-0.2265,-0.0981,-0.0457,-0.066,0.024,0.0656,0.0647,0.0666,0.0775,0.0946,0.0621,0.0476,0.0615,0.2112,0.3017,0.3601,0.5023,0.544,0.5413,0.6752,0.774,0.8437,0.8815,0.9364,0.9993,1.0364,1.0325,1.015,1.0137,1.0199,0.0,0.0,1.144,1.1929,1.2254,1.251,1.2777,1.3109,1.316,1.3351,1.422,1.4617,1.5654,1.835,1.9285,2.0059,2.1484,0.0,2.2399,2.3535,2.3846,2.3845,2.3545,2.3484,2.3257,2.2638,2.244,2.2117,2.1587,2.1027,2.0741,2.0836,2.0497,2.0077,1.9634,1.9984,1.9907,1.9323,2.0082,0.0,0.0,0.0,0.0,0.0,0.0,0.0,0.0,0.0,0.0,0.0,0.0,0.0,0.0,0.0,0.0,0.0,0.0,0.0,0.0,0.0,0.0,0.0,0.0,0.0,0.0,0.0,0.0,-0.4725,-0.545,0.0,-0.407,-0.5613,-0.6435,-0.5814,-0.6628,-0.6871,-0.6172,-0.6378,-0.6112,-0.5202,-0.5084,-0.4703,-0.4057,-0.3566,-0.3084,-0.2556,-0.2145,-0.1824,-0.1621,-0.1566,-0.1498,-0.1412,-0.132,-0.1261,-0.1232,-0.0556,0.0387,0.1513,0.261,0.3104,0.3298,0.4364,0.5072,0.5563,0.63,0.6737,0.7091,0.7687,0.7972,0.8216,0.8767,0.897,0.9186,1.0126,1.0897,1.1458,1.1596,1.219,1.2756,1.2679,1.2653,1.2695,1.2861,1.3678,1.4606,1.5475,1.6861,1.8488,2.0427,2.0482,2.0843,2.2587,2.2583,2.2307,2.197,2.193,2.1432,2.0081,1.9831,1.939,1.8503,1.8112,1.7811,1.759,1.7366,1.6963,1.6385,1.6355,1.6093,1.5512,1.5488,1.5828,0.0,0.0,0.0,0.0,0.0,0.0,0.0,0.0,0.0,0.0,0.0,0.0,0.0,0.0,0.0,0.0,0.0,0.0,0.0,0.0,0.0,0.0,0.0,0.0,0.0,-0.6405,-0.6664,-0.6807,-0.7764,-0.7898,-0.6539,-0.7703,-0.8329,-0.7799,-0.8373,-0.8474,-0.7837,-0.8066,-0.7892,-0.7245,-0.7215,-0.6848,-0.6088,-0.5693,-0.4908,-0.3761,-0.3323,-0.2778,-0.2164,-0.2112,-0.1989,-0.1765,-0.1541,-0.1457,-0.1456,-0.1254,-0.0502,0.0617,0.1037,0.1486,0.202,0.2945,0.3421,0.3673,0.4508,0.4834,0.4947,0.546,0.616,0.6974,0.7768,0.8347,0.8929,0.9754,1.0463,1.0914,1.0749,1.1404,1.2097,1.1857,1.1842,1.1971,1.2247,1.3136,1.3985,1.4244,1.57,1.7451,1.9347,1.939,1.97,2.1317,2.1062,2.0497,2.0021,1.9647,1.8925,1.7561,1.7181,1.6671,1.5831,1.5588,1.5351,1.5015,1.483,1.4269,1.329,1.3275,1.2826,1.1839,1.1565,1.1855,1.2691,0.0,0.0,0.0,0.0,0.0,0.0,0.0,0.0,0.0,0.0,0.0,0.0,0.0,0.0,0.0,0.0,0.0,0.0,0.0,0.0,0.0,0.0,0.0,-0.8096,-0.7636,-0.7558,-0.8493,-0.8673,-0.8693,-0.8615,-0.9324,-0.9792,-0.9792,-0.9792,-0.9792,-0.9792,-0.9792,-0.9792,-0.9822,-0.9761,-0.9299,-0.8379,-0.723,-0.5843,-0.4262,-0.3241,-0.2136,-0.0982,-0.0981,-0.0673,-0.0084,-0.0084,-0.0056,-0.0056,-0.0055,0.0304,0.0813,0.0252,0.0561,0.1431,0.2328,0.2666,0.2776,0.3365,0.3589,0.3628,0.3717,0.4913,0.6428,0.7064,0.8264,0.9445,0.9741,1.0036,1.019,0.9669,1.0097,1.0647,1.0485,1.0593,1.1079,1.2262,1.2961,1.3676,1.4847,1.5903,1.6974,1.8133,1.8623,1.9072,1.9742,1.926,0.0,1.7738,1.6655,1.5749,1.5279,1.4608,1.4115,1.3817,1.366,1.346,1.3264,1.2992,1.2125,1.0554,1.0921,1.0287,0.8409,0.858,0.8758,0.8931,0.0,0.0,0.0,0.0,0.0,0.0,0.0,0.0,0.0,0.0,0.0,0.0,0.0,0.0,0.0,0.0,0.0,0.0,0.0,0.0,0.0,-0.7032,-0.7307,-0.7958,-0.8032,-0.8079,-0.8292,-0.8997,-0.9379,-0.9136,-0.9533,-0.9792,-0.9792,-0.9792,-0.9792,-0.9792,-0.9792,-0.9913,-1.0156,-0.9019,-0.8151,-0.7611,-0.6142,-0.4922,-0.3998,-0.405,-0.3582,-0.2652,-0.2984,-0.2716,-0.1933,-0.1709,-0.1597,-0.1567,-0.1395,-0.0698,0.028,0.0553,0.1062,0.1683,0.1944,0.216,0.2384,0.2805,0.3277,0.3771,0.4268,0.5414,0.6782,0.7823,0.8663,0.9349,0.9827,1.0136,1.0276,1.0112,1.0382,1.0844,1.1421,1.161,1.1864,1.2693,1.3601,1.4304,1.4473,1.5652,1.6739,1.7233,1.7387,1.7671,1.8352,1.7621,1.68,1.6251,1.5092,1.4106,1.3552,1.2681,1.2035,1.182,1.0772,1.0078,0.9928,0.9448,0.8827,0.809,0.79,0.7159,0.578,0.6045,0.585,0.0,0.0,0.0,0.0,0.0,0.0,0.0,0.0,0.0,0.0,0.0,0.0,0.0,0.0,0.0,0.0,0.0,0.0,0.0,0.0,0.0,0.0,-0.6579,-0.6925,-0.7395,-0.791,-0.8248,-0.8218,-0.892,-0.9335,-0.9159,-0.9396,-0.9579,-0.9579,-0.9457,-0.9275,-0.9025,-0.8751,-0.8842,-0.9444,-0.8033,-0.7307,-0.7336,-0.5696,-0.4327,-0.3264,-0.3385,-0.2948,-0.2103,-0.2363,-0.2157,-0.1569,-0.1373,-0.1289,-0.126,-0.1002,-0.0392,0.0396,0.0,0.0,0.0,0.0,0.2204,0.249,0.2662,0.3339,0.418,0.4613,0.606,0.7775,0.8366,0.9118,0.978,0.9949,1.0138,1.0312,1.0312,1.0778,1.1355,1.1729,1.2115,1.2564,1.3201,1.3903,1.4464,1.4594,1.5523,0.0,1.5964,1.6488,1.6929,1.6899,1.616,1.5241,1.4161,1.3176,1.2279,1.1542,1.0584,0.9851,0.9477,0.8548,0.0,0.0,0.0,0.6779,0.6132,0.5434,0.0,0.0,0.0,0.3742,0.3231,0.3813,0.0,0.0,0.6165,0.6455,0.0,0.0,0.0,0.0,0.0,0.0,0.0,0.0,0.0,0.0,0.0,0.0,0.0,0.0,0.0,0.0,-0.5586,-0.6058,-0.6278,-0.7145,-0.7804,-0.8079,-0.8551,-0.8848,-0.8818,-0.8946,-0.9044,-0.9044,-0.8695,-0.8225,-0.7694,-0.7103,0.0,0.0,0.0,-0.6381,-0.6987,-0.526,-0.3639,-0.2235,-0.1941,-0.1314,-0.0395,-0.0477,-0.0309,0.0,0.0,0.0028,0.0056,0.036,0.0702,0.1012,0.0434,0.0866,0.1849,0.2144,0.2478,0.2767,0.2884,0.0,0.0,0.5059,0.6906,0.901,0.8836,0.959,1.046,1.0149,1.0209,1.0366,1.0476,1.1236,1.1982,1.195,1.2532,1.3268,1.3897,1.4208,1.4508,1.5086,1.5402,1.5384,1.4653,1.5687,1.6293,1.5332,1.4618,1.3591,1.1872,1.1151,1.0516,0.9773,0.8722,0.0,0.738,0.6815,0.6296,0.5789,0.5834,0.5475,0.4551,0.3641,0.3168,0.3237,0.2656,0.2436,0.2556,0.2655,0.2754,0.2877,0.4125,0.512,0.0,0.0,0.0,0.0,0.0,0.0,0.0,0.0,0.0,0.0,0.0,0.0,0.0,0.0,0.0,-0.3847,-0.3873,-0.3932,-0.4035,-0.4441,-0.5449,-0.7322,-0.8158,-0.848,-0.8205,-0.7781,-0.7516,-0.7516,-0.6867,-0.6411,-0.6287,-0.6152,-0.6294,-0.6747,-0.4947,-0.416,-0.4587,-0.2622,-0.1494,-0.1207,-0.1593,0.0,-0.0408,-0.0908,-0.0706,0.0,0.0,0.0112,0.0365,0.0737,0.1393,0.215,0.1704,0.1662,0.188,0.1941,0.2205,0.2592,0.3352,0.4328,0.5484,0.6786,0.8126,0.9318,0.9828,1.0273,0.0,1.0572,1.0603,1.077,1.1482,1.1837,1.2345,1.3702,1.4155,1.4509,1.5304,1.537,1.5328,1.5599,1.495,1.4303,1.4135,1.4199,1.4034,1.3346,1.2051,1.1079,1.0871,1.0122,0.9754,1.012,0.8553,0.748,0.7469,0.5756,0.4567,0.4254,0.4107,0.3829,0.3418,0.3469,0.3298,0.2813,0.2753,0.2584,0.2365,0.2634,0.311,0.376,0.4022,0.4694,0.0,0.0,0.0,0.0,0.0,0.0,0.0,0.0,0.0,0.0,0.0,-0.0847,-0.0984,0.0,-0.2258,-0.2452,-0.2727,-0.3022,-0.3395,-0.3707,-0.4345,-0.551,-0.6137,-0.6446,-0.6258,-0.6279,-0.6366,-0.6526,-0.5867,-0.5377,-0.522,-0.4716,-0.4735,-0.5376,-0.3479,-0.2915,-0.3891,-0.1767,-0.0696,-0.0715,-0.0828,-0.0648,-0.0206,-0.0347,-0.0173,0.0262,0.04,0.0628,0.0979,0.1521,0.2139,0.2714,0.2857,0.2701,0.2505,0.2978,0.3244,0.3552,0.4511,0.5648,0.6777,0.7593,0.8727,0.9852,1.0217,1.0502,1.0705,1.0705,1.102,1.1455,1.1891,1.2654,1.3487,1.4211,1.4732,1.5122,1.5431,1.518,1.4849,1.4676,1.4052,1.3424,1.3016,1.2565,1.2094,1.1619,1.0929,1.0231,0.9677,0.9451,0.9371,0.9394,0.823,0.729,0.6881,0.5035,0.377,0.348,0.3378,0.3221,0.2919,0.3221,0.3174,0.2698,0.3022,0.3188,0.3158,0.346,0.3956,0.4605,0.501,0.5561,0.0,0.0,0.0,0.0,0.0,0.0,0.0,0.1684,0.1257,0.0972,0.0661,0.032,0.0061,-0.0428,-0.0897,-0.1154,-0.1676,-0.2213,-0.2759,-0.3008,-0.3152,-0.314,-0.3954,-0.4526,-0.4541,-0.4859,-0.516,-0.5418,-0.4823,-0.4333,-0.4049,-0.3238,-0.3145,-0.3909,-0.2282,-0.2036,-0.3323,-0.1387,-0.0368,-0.0303,-0.003,0.012,0.0208,0.0472,0.059,0.0621,0.096,0.1311,0.1747,0.2399,0.2927,0.3363,0.3954,0.3976,0.373,0.437,0.4674,0.492,0.5927,0.7032,0.8014,0.8227,0.914,1.0217,1.027,1.0443,1.0676,1.0907,1.147,1.2082,1.2409,1.3518,1.4513,1.4473,1.4886,1.522,1.4982,1.4424,1.3884,1.3487,1.3008,1.2464,1.1823,1.11,1.0557,1.0435,1.0355,0.9939,0.8882,0.91,0.9202,0.8802,0.8073,0.7212,0.6222,0.481,0.3884,0.3596,0.3645,0.3557,0.3278,0.3476,0.3454,0.318,0.3673,0.4006,0.4157,0.4479,0.4906,0.5457,0.6207,0.6706,0.7032,0.5948,0.4749,0.3487,0.2732,0.2243,0.0,0.1699,0.1302,0.1051,0.0717,0.0376,0.0064,-0.0064,-0.0128,-0.0161,-0.0226,-0.029,-0.0387,-0.0418,-0.045,-0.045,-0.2888,-0.4617,-0.4675,-0.3947,-0.3481,-0.3515,-0.284,-0.2412,-0.238,-0.2195,-0.2162,-0.2253,-0.1482,-0.1142,-0.1327,-0.0494,0.0093,0.04,0.0425,0.0607,0.089,0.0925,0.095,0.0962,0.1539,0.2016,0.2434,0.3041,0.3858,0.4702,0.508,0.5544,0.5974,0.5475,0.5655,0.6329,0.7337,0.7983,0.8477,0.9329,0.97,0.9913,1.0217,1.0324,1.0561,1.1561,1.1919,1.2355,1.39,1.4285,1.4425,1.5177,1.4874,1.4443,1.4408,1.3597,1.292,1.3125,1.2062,1.111,1.1043,1.0209,0.9781,1.0398,0.9798,0.9288,0.9317,0.9211,0.9274,0.9621,0.8419,0.7148,0.6033,0.5604,0.5352,0.5329,0.5322,0.5306,0.5268,0.5077,0.4951,0.4914,0.4997,0.4926,0.4701,0.5231,0.5737,0.6287,0.6836,0.726,0.542,0.4592,0.3782,0.3071,0.2474,0.2055,0.1999,0.1724,0.136,0.1049,0.0736,0.045,0.0326,0.0131,0.0066,0.0264,0.0132,-0.0066,-0.0262,-0.0294,-0.0359,-0.0556,-0.173,-0.2517,-0.26,-0.2602,-0.2692,-0.2894,-0.2412,-0.2181,-0.2388,-0.177,-0.1433,-0.1421,-0.0591,-0.0125,-0.0123,0.0343,0.0654,0.0803,0.1379,0.1746,0.191,0.2644,0.3078,0.3282,0.3743,0.4045,0.4216,0.468,0.5204,0.5816,0.6372,0.6985,0.7531,0.725,0.7312,0.7709,0.8653,0.9086,0.9268,0.967,0.9792,0.993,1.0531,1.0869,1.1257,1.2136,1.294,1.3684,1.4412,1.49,1.5255,1.5448,1.4881,1.4212,1.39,1.291,1.1995,1.18,1.1016,1.033,1.0168,0.9784,0.9622,0.9926,0.9578,0.9257,0.9221,0.9322,0.9284,0.901,0.8018,0.7034,0.6209,0.5946,0.5757,0.5546,0.5723,0.5682,0.5381,0.5406,0.5356,0.5206,0.5657,0.5932,0.5977,0.6356,0.6811,0.7335,0.7708,0.8031,0.4325,0.3824,0.3333,0.2822,0.237,0.2026,0.2037,0.1922,0.1753,0.1649,0.1492,0.1434,0.1651,0.1489,0.1394,0.1644,0.1478,0.1206,0.0862,0.0728,0.0596,0.0364,0.0132,0.0,-0.0033,-0.1238,-0.2189,-0.2526,-0.1926,-0.1639,-0.1882,-0.0767,-0.0094,0.0,0.0783,0.1254,0.1366,0.1694,0.1914,0.2017,0.2727,0.3121,0.32,0.4125,0.4682,0.4908,0.5242,0.5388,0.5426,0.5853,0.6276,0.674,0.7413,0.8086,0.8659,0.8751,0.8781,0.8873,0.9579,0.9792,0.9792,0.9792,1.0004,1.0302,1.0918,1.1508,1.2148,1.2963,1.385,1.4654,1.4976,1.5429,1.5724,1.539,1.4583,1.372,1.3107,1.2019,1.1051,1.0659,1.0216,0.9821,0.9624,0.9599,0.9599,0.9599,0.951,0.9413,0.9259,0.9397,0.9229,0.8577,0.7932,0.7347,0.6923,0.6679,0.6468,0.6306,0.6457,0.6381,0.5982,0.6162,0.6162,0.5982,0.6537,0.6954,0.7215,0.7428,0.7779,0.8261,0.8571,0.8792,0.3914,0.3561,0.3173,0.2576,0.2238,0.2095,0.2093,0.2353,0.2685,0.3052,0.3389,0.3831,0.4545,0.4654,0.4654,0.4657,0.4657,0.4523,0.4189,0.3859,0.3658,0.3658,0.3023,0.2586,0.2586,0.0034,-0.1784,-0.2189,-0.0862,-0.0066,-0.0066,0.1297,0.2237,0.2484,0.2829,0.3177,0.3491,0.3839,0.4153,0.4498,0.453,0.4652,0.4834,0.4865,0.4892,0.4923,0.5264,0.5387,0.5448,0.6127,0.6771,0.7444,0.8116,0.8751,0.9305,0.964,0.9761,0.9761,0.9792,0.9792,0.9792,0.9792,1.0459,1.1268,1.1296,1.2073,1.3164,1.4096,1.4478,1.4842,1.5951,1.5889,1.5413,1.4944,1.3816,1.2617,1.1825,1.0806,1.0043,1.0019,0.9797,0.9599,0.9599,0.9599,0.9599,0.9599,0.9599,0.9591,0.9591,0.9377,0.9105,0.8825,0.8528,0.8354,0.8347,0.8081,0.8038,0.8297,0.8088,0.7939,0.7914,0.7914,0.7914,0.7914,0.7939,0.8062,0.8262,0.8331,0.8534,0.8877,0.9292,0.9478,0.3802,0.332,0.2964,0.2877,0.3206,0.3611,0.384,0.4535,0.5099,0.4993,0.4832,0.4774,0.5023,0.4862,0.4694,0.473,0.46,0.4361,0.4029,0.3629,0.3396,0.3396,0.3194,0.2959,0.2722,0.1579,0.0504,-0.0336,0.0702,0.1095,0.0428,0.2159,0.3243,0.3386,0.4158,0.4611,0.4725,0.4836,0.4965,0.5075,0.5658,0.6304,0.7024,0.6922,0.6888,0.6888,0.7011,0.7041,0.7108,0.7541,0.7847,0.8122,0.8757,0.9122,0.9335,0.967,0.9792,0.9792,0.9792,0.9943,1.0217,1.0634,1.1186,1.1755,1.2494,1.3241,1.3994,1.4614,1.5125,1.5538,1.5951,1.6034,1.5763,1.4728,1.3755,1.2773,1.1755,1.06,0.978,0.9904,0.9755,0.9599,0.9599,0.9599,0.9599,0.9599,0.9599,0.9599,0.9599,0.936,0.9105,0.8825,0.8552,0.8336,0.8162,0.8212,0.8237,0.8137,0.8212,0.8187,0.8013,0.814,0.8194,0.8194,0.8461,0.8641,0.869,0.8958,0.9116,0.9246,0.9589,1.0153,0.4892,0.4404,0.3889,0.4204,0.4669,0.5101,0.5332,0.6001,0.6635,0.6635,0.6498,0.6468,0.686,0.6599,0.6292,0.6194,0.5994,0.5737,0.5369,0.4903,0.4678,0.4937,0.4717,0.4543,0.4499,0.4207,0.3222,0.1242,0.2216,0.2608,0.1956,0.3807,0.4935,0.5059,0.582,0.628,0.6416,0.641,0.641,0.6416,0.6928,0.7493,0.8083,0.8001,0.7941,0.7903,0.7903,0.7903,0.7933,0.8275,0.8464,0.861,0.9122,0.9366,0.9518,0.9731,1.0035,1.0338,1.0338,1.0482,1.0785,1.1692,1.2273,1.2815,1.3662,1.4354,1.4916,1.5344,1.5737,1.6084,1.6324,1.6398,1.6107,1.4754,1.3919,1.3044,1.1529,1.0581,0.9987,0.9937,0.9904,0.9895,0.9895,0.9797,0.9747,0.9747,0.9649,0.9599,0.9599,0.936,0.9137,0.8956,0.8602,0.8361,0.8287,0.8262,0.8237,0.8137,0.8292,0.8295,0.8119,0.8371,0.8524,0.8524,0.8882,0.911,0.9142,0.9407,0.9655,0.9876,1.0447,1.1148,0.6927,0.6545,0.5803,0.6291,0.6498,0.6564,0.6664,0.7036,0.7536,0.823,0.8503,0.8947,0.9916,0.9727,0.9307,0.8898,0.8738,0.85,0.8171,0.7498,0.7329,0.8078,0.7482,0.719,0.7655,0.7588,0.6116,0.2717,0.3694,0.4434,0.44,0.6079,0.7142,0.7346,0.7734,0.8094,0.8394,0.8394,0.8394,0.8426,0.8269,0.8182,0.8104,0.8088,0.8023,0.7908,0.7903,0.7903,0.7964,0.8275,0.861,0.8915,0.9214,0.9548,0.9852,0.9883,1.0513,1.142,1.148,1.145,1.1601,1.2856,1.37,1.4313,1.4724,1.5311,1.5881,1.6211,1.6297,1.6457,1.704,1.6948,1.6396,1.5051,1.4354,1.3414,1.1318,1.0847,1.0709,1.0251,1.0348,1.0487,1.0462,1.024,1.0043,1.0019,0.9805,0.964,0.9607,0.9385,0.9212,0.9212,0.8733,0.8528,0.8775,0.8336,0.8162,0.8418,0.8364,0.8352,0.8359,0.873,0.8932,0.8932,0.9268,0.9508,0.9631,0.9799,1.0177,1.0825,1.1791,1.2416,0.7095,0.6864,0.6623,0.681,0.7636,0.8762,1.0042,1.123,1.2292,1.3065,1.2442,1.1688,1.151,1.0717,0.9896,0.9327,0.9166,0.8922,0.8393,0.7854,0.7611,0.781,0.7555,0.7435,0.7526,0.7607,0.7231,0.6217,0.6481,0.6347,0.5536,0.6982,0.7846,0.7882,0.8242,0.8474,0.8546,0.8546,0.8546,0.8541,0.8426,0.8356,0.8318,0.817,0.8066,0.8033,0.7941,0.8055,0.8305,0.8641,0.8824,0.8946,0.9457,1.0035,1.0604,1.1057,1.1834,1.2856,1.3805,1.3515,1.2865,1.3913,1.4389,1.4729,1.5569,1.5962,1.6142,1.6264,1.6457,1.663,1.6789,1.6948,1.6778,1.5652,1.5267,1.4841,1.3653,1.2934,1.255,1.2537,1.2133,1.1692,1.1336,1.1076,1.0757,1.0364,1.0195,0.9987,0.9648,0.9525,0.9426,0.9212,0.9088,0.8931,0.88,0.8676,0.8678,0.8903,0.8903,0.8958,0.9109,0.9315,0.9423,0.9423,0.9846,1.0093,1.0132,1.0547,1.1196,1.1982,1.2539,1.3609,0.899,0.9033,0.8968,0.9798,1.0716,1.1717,1.2881,1.374,1.4405,1.4772,1.4113,1.3287,1.2521,1.1439,1.0354,0.9446,0.9045,0.8739,0.8476,0.806,0.7937,0.8263,0.8025,0.7902,0.8172,0.8313,0.8321,0.8141,0.7926,0.7536,0.6915,0.7917,0.8556,0.8556,0.8889,0.9089,0.9089,0.9089,0.8989,0.8817,0.8921,0.8864,0.8606,0.8691,0.869,0.8632,0.8557,0.8621,0.8808,0.894,0.9131,0.9426,1.0001,1.0634,1.1329,1.2083,1.2976,1.3934,1.4787,1.4887,1.4748,1.5442,1.5605,1.5694,1.6559,1.6726,1.6704,1.6993,1.7097,1.7115,1.7248,1.7317,1.7121,1.6139,1.5906,1.562,1.4533,1.4064,1.3816,1.3687,1.332,1.2913,1.2516,1.2327,1.2114,1.1688,1.1263,1.0918,1.0635,1.0163,0.9809,0.9665,0.9538,0.9404,0.9252,0.9125,0.9111,0.9234,0.9283,0.9358,0.9482,0.9754,0.9919,0.9919,1.0393,1.0852,1.1227,1.1664,1.24,1.3383,1.3992,1.4923,1.163,1.1904,1.1937,1.3587,1.4315,1.4716,1.5172,1.5377,1.5434,1.5204,1.4972,1.4497,1.3594,1.2428,1.1223,1.0119,0.9314,0.8852,0.89,0.8528,0.8454,0.9016,0.862,0.8499,0.9019,0.9244,0.9262,0.9012,0.8684,0.8431,0.8233,0.8751,0.905,0.9084,0.9422,0.9661,0.9694,0.9694,0.9528,0.9183,0.9528,0.9468,0.9026,0.9335,0.9424,0.934,0.9321,0.9315,0.9367,0.9381,0.9755,1.0311,1.0905,1.1565,1.2264,1.3126,1.4053,1.4897,1.5243,1.5906,1.6685,1.6932,1.6803,1.6724,1.7395,1.7437,1.7365,1.795,1.7906,1.7764,1.7941,1.7822,1.745,1.6657,1.6458,1.6158,1.5007,1.4873,1.4892,1.4461,1.4342,1.4193,1.3832,1.3785,1.3663,1.3356,1.2565,1.1989,1.1989,1.101,1.0316,1.0316,1.0056,0.9899,0.9899,0.9672,0.9523,0.9519,0.9648,0.9739,0.9789,1.0198,1.0476,1.0633,1.1099,1.1773,1.2635,1.296,1.369,1.4793,1.5595,1.6127,1.3101,1.3471,1.3702,1.4828,1.5381,1.5818,1.6572,1.7371,1.8007,1.8125,1.7697,1.7081,1.641,1.5124,1.406,1.3802,1.2814,1.1849,1.1173,1.0391,0.9671,0.9169,0.8903,0.8833,0.8911,0.9351,0.9561,0.9405,0.9896,0.9809,0.8962,0.8784,0.8817,0.9084,0.9183,0.9356,0.9694,0.9694,0.9661,0.9594,0.9661,0.9649,0.9558,0.9508,0.9474,0.9449,0.9365,0.9443,0.9786,1.0647,1.1244,1.1734,1.2655,1.3492,1.4182,1.4609,1.5362,1.6212,1.6537,1.695,1.7273,1.7079,1.6803,1.6724,1.7395,1.7579,1.7616,1.7978,1.8229,1.8302,1.8062,1.7982,1.7849,1.745,1.7371,1.7305,1.7095,1.6899,1.6664,1.6286,1.6059,1.5758,1.5306,1.4887,1.444,1.393,1.3086,1.249,1.249,1.1534,1.0863,1.0863,1.0629,1.0473,1.0473,1.0212,1.012,1.0219,1.0259,1.0439,1.083,1.0918,1.1427,1.2427,1.2536,1.2987,1.3814,1.4137,1.4793,1.5675,1.6047,1.6644,1.532,1.5489,1.5759,1.6753,1.7152,1.7514,1.8323,1.8723,1.8913,1.8911,1.8635,1.8172,1.7391,1.6309,1.5381,1.4877,1.4234,1.3302,1.1887,1.1502,1.0944,0.9965,1.0235,1.0321,0.98,1.0783,1.0962,0.9713,1.0302,1.0461,0.9799,0.9725,0.9755,0.9921,0.9921,1.012,1.0485,1.0485,1.0485,1.0485,1.0691,1.0691,1.0485,1.0643,1.0714,1.0674,1.0632,1.0987,1.1652,1.1922,1.2536,1.3403,1.3856,1.4447,1.5122,1.5653,1.6231,1.6814,1.7138,1.7373,1.7479,1.7315,1.7289,1.7414,1.7865,1.8151,1.8363,1.8676,1.874,1.8651,1.8357,1.8249,1.8169,1.7876,1.7796,1.7796,1.7796,1.7501,1.7166,1.6993,1.6864,1.6688,1.6472,1.6339,1.6161,1.591,1.5106,1.4521,1.4543,1.3673,1.2632,1.1434,1.1211,1.1131,1.1131,1.0998,1.096,1.1018,1.1027,1.1123,1.1345,1.1801,1.2318,1.2879,1.3474,1.4202,1.5049,1.5355,1.5941,1.6803,1.6909,1.7199,1.7842,1.7736,1.776,1.877,1.9092,1.9235,1.9696,1.965,1.9451,1.9144,1.9142,1.8955,1.8244,1.7481,1.6748,1.6009,1.5633,1.4712,1.2683,1.2816,1.2466,1.0725,1.1768,1.2129,1.0731,1.2229,1.2544,1.0722,1.1402,1.1441,1.0519,1.0772,1.0932,1.0865,1.0899,1.1066,1.1364,1.1364,1.1364,1.1364,1.1666,1.1611,1.1347,1.1644,1.1876,1.2008,1.2008,1.2561,1.3431,1.3351,1.3974,1.4964,1.5215,1.5575,1.605,1.653,1.6901,1.7203,1.741,1.7563,1.7693,1.7693,1.7833,1.806,1.8311,1.8619,1.8968,1.9301,1.9199,1.8945,1.8664,1.8584,1.8504,1.8183,1.8116,1.8116,1.8116,1.7769,1.7487,1.7487,1.7487,1.7489,1.7489,1.7605,1.7718,1.7702,1.6984,1.6413,1.6406,1.5696,1.4514,1.2716,1.2357,1.2201,1.2064,1.1946,1.1891,1.1891,1.1928,1.2046,1.2246,1.3031,1.3542,1.3709,1.4657,1.5584,1.6473,1.6598,1.7037,1.7796,1.7716,1.7689,2.0567,2.0165,1.9447,2.0493,2.0767,2.058,1.9876,2.0136,2.0384,1.9815,1.9953,2.0155,2.0068,1.9735,1.9413,1.9183,1.8543,1.7193,1.4781,1.5266,1.4527,1.0934,1.2993,1.3733,1.1204,1.2687,1.3749,1.3535,1.4438,1.373,1.0841,1.1338,1.1603,1.142,1.1596,1.1774,1.1925,1.1925,1.1925,1.1925,1.1844,1.1776,1.1751,1.1776,1.214,1.2717,1.2717,1.3144,1.394,1.5177,1.5802,1.6096,1.7359,1.7731,1.756,1.7364,1.7483,1.7709,1.7473,1.7823,1.8332,1.8332,1.8171,1.806,1.8311,1.8619,1.8968,1.9301,1.9374,1.9281,1.8958,1.885,1.8783,1.8517,1.845,1.845,1.845,1.841,1.837,1.837,1.837,1.8384,1.8369,1.8203,1.8063,1.8061,1.73,1.6742,1.6766,1.6198,1.5743,1.5524,1.4805,1.4096,1.356,1.3051,1.278,1.278,1.301,1.3497,1.4293,1.4917,1.5606,1.6332,1.6753,1.7401,1.8259,1.7967,1.8034,1.8397,1.8103,1.7955,2.2422,2.1547,2.0497,2.1155,2.1,2.0657,2.0562,2.0483,2.0337,2.0135,2.0213,2.0299,2.0299,2.0184,2.0004,1.9714,1.9564,1.8707,1.6521,1.6734,1.6292,1.4186,1.5619,1.6097,1.4468,1.5856,1.6473,1.5543,1.6076,1.5795,1.4404,1.3327,1.2506,1.1993,1.2059,1.2231,1.2471,1.2471,1.2859,1.362,1.373,1.3995,1.4324,1.4484,1.464,1.474,1.474,1.5229,1.6084,1.644,1.7012,1.7629,1.782,1.7956,1.8015,1.7725,1.7855,1.8122,1.8228,1.8283,1.838,1.8629,1.8592,1.8496,1.867,1.8939,1.9243,1.9372,1.9401,1.9321,1.8998,1.889,1.8916,1.904,1.8878,1.8744,1.8744,1.8611,1.849,1.849,1.849,1.8544,1.8718,1.866,1.8642,1.8842,1.8427,1.8063,1.8059,1.7692,1.7484,1.7674,1.6304,1.5278,1.5054,1.4816,1.4706,1.4706,1.4804,1.5038,1.5381,1.6104,1.6677,1.6996,1.7636,1.8158,1.849,1.837,1.8453,1.8726,1.8604,1.8659,2.4951,2.4145,2.3153,2.3168,2.2655,2.2171,2.2281,2.1704,2.1204,2.1394,2.1191,2.1018,2.1104,2.0987,2.0651,1.998,2.0197,1.9712,1.7562,1.79,1.7862,1.6421,1.7586,1.8054,1.6889,1.8197,1.861,1.7378,1.7883,1.7991,1.748,1.5894,1.4614,1.3717,1.3767,1.387,1.4027,1.4027,1.4498,1.5379,1.5523,1.5812,1.6212,1.6356,1.6404,1.6404,1.6342,1.6796,1.7636,1.7518,1.7916,1.8591,1.8232,1.8321,1.8601,1.8306,1.8475,1.8858,1.9019,1.8982,1.8895,1.9183,1.9185,1.9094,1.9165,1.928,1.9401,1.9401,1.9455,1.9455,1.9132,1.9118,1.9212,1.9361,1.9212,1.9052,1.9052,1.8891,1.8772,1.8772,1.8772,1.8838,1.9132,1.9185,1.9279,1.9586,1.9372,1.9165,1.9161,1.8895,1.8803,1.9013,1.7864,1.6862,1.6424,1.6313,1.6278,1.6278,1.6365,1.6489,1.667,1.7431,1.7792,1.7715,1.848,1.8885,1.8885,1.8874,1.9041,1.9319,1.9195,1.9403,2.8653,2.8552,2.7982,2.7312,2.66,2.5882,2.5292,2.4291,2.3581,2.398,2.3273,2.2682,2.3002,2.2572,2.1768,2.0492,2.0736,2.0239,1.7748,1.8896,1.9095,1.6685,1.8474,1.9227,1.7557,1.8898,1.9688,1.9221,2.0211,2.0367,1.9231,1.8896,1.8199,1.6975,1.7132,1.7142,1.6965,1.6965,1.6955,1.6955,1.6834,1.6756,1.6668,1.6499,1.6761,1.7368,1.7109,1.7357,1.8033,1.841,1.8603,1.8635,1.8944,1.9296,1.9534,1.9274,1.9569,2.0055,1.9794,1.9923,2.0185,2.0185,2.0007,1.98,1.98,1.9629,1.9401,1.9401,1.9602,1.9733,1.9468,1.9573,1.972,1.9468,1.9388,1.9388,1.9388,1.9388,1.9388,1.9388,1.9388,1.9481,1.9746,1.9786,1.9893,2.0144,1.9943,1.9786,1.98,1.9575,1.9388,1.9401,1.9613,1.9165,1.7719,1.7347,1.7198,1.7198,1.7446,1.784,1.8448,1.9052,1.9212,1.8903,1.9486,1.978,1.978,1.9778,1.9962,2.0285,1.9948,2.0103,2.8368,2.7957,2.7244,2.7049,2.6644,2.6267,2.6119,2.5641,2.5182,2.5127,2.4704,2.4409,2.4753,2.3714,2.2751,2.2587,2.1929,2.1001,1.9758,2.0207,2.0482,1.9881,2.0914,2.1374,2.0615,2.1148,2.1423,2.1161,2.1413,2.1364,2.0788,2.0706,1.9663,1.7561,1.7364,1.7283,1.7222,1.7222,1.7489,1.8091,1.8257,1.8515,1.8888,1.8819,1.8813,1.8825,1.8536,1.8559,1.8752,1.888,1.8944,1.8956,1.904,1.9168,1.9284,1.9421,1.9605,1.9826,2.0182,2.0219,2.0162,2.0468,2.0332,2.0055,2.007,1.976,1.9441,1.9613,1.9867,2.0037,1.9987,1.9997,2.0037,1.9987,1.9813,1.972,1.992,1.98,1.972,1.992,1.996,1.9957,2.005,2.0064,2.0104,2.0184,2.0117,2.0064,2.0064,1.9983,1.996,1.996,2.001,1.9734,1.889,1.8913,1.8887,1.8719,1.8769,1.8926,1.912,1.9294,1.9435,1.9499,1.971,1.9895,2.0126,2.0143,2.0516,2.1188,2.1314,2.1694,2.9354,2.9236,2.887,2.8713,2.8323,2.7974,2.7856,2.7354,2.6717,2.6054,2.5465,2.5031,2.4865,2.358,2.2611,2.2837,2.2079,2.1333,2.1051,2.0973,2.1014,2.1102,2.1984,2.2377,2.187,2.2264,2.246,2.2153,2.2068,2.1982,2.1825,2.1716,2.0919,1.9326,1.8927,1.8717,1.8717,1.863,1.8859,1.9404,1.9577,1.9842,2.0217,2.0108,1.9881,1.9636,1.937,1.9201,0.0,1.9104,1.9168,1.9296,1.9296,1.9424,1.9679,1.9903,2.0062,2.0221,2.0634,2.0634,2.0513,2.077,2.0637,2.0381,2.0229,1.9987,1.9733,1.9907,2.0174,2.0374,2.0237,2.029,2.0374,2.0224,2.0064,2.0013,2.0157,2.0064,1.9983,2.017,2.0197,2.0237,2.0374,2.0401,2.041,2.0517,2.0437,2.0401,2.0401,2.0385,2.0379,2.0379,2.0608,2.0563,2.0117,2.0002,1.988,1.9706,1.9733,1.9737,1.9737,1.9745,1.9822,1.9982,2.0097,2.0241,2.0443,2.0587,2.1046,2.1801,2.2341,2.2906,0.0,3.1738,3.201,3.1645,3.1065,3.0509,3.0148,2.9294,0.0,2.7026,2.6041,2.5067,2.4224,2.2856,2.1912,2.2004,2.1579,2.1299,2.1655,2.1326,2.1011,2.0906,2.202,2.2476,2.1678,2.242,2.2804,2.2396,2.2334,2.2308,2.2358,2.2079,2.1933,2.1933,2.1426,2.1148,2.1123,2.0857,2.0736,2.0724,2.0712,2.07,2.0688,2.0434,2.0146,1.9893,1.9669,1.939,1.916,1.918,1.936,1.9647,1.9647,2.003,2.057,2.057,2.0792,2.1109,2.1109,2.1141,2.1172,2.1141,2.0953,2.0686,2.0374,2.0281,2.0237,2.0237,2.0481,2.0672,2.033,2.0508,2.0641,2.033,2.025,2.0237,2.0264,2.025,2.0237,2.0264,2.0264,2.0357,2.0655,2.0739,2.0833,2.11,2.0913,2.0739,2.0801,2.0774,2.078,2.081,2.1363,2.1603,2.1278,2.0662,2.0315,2.0271,2.0332,2.036,2.036,2.0378,2.0369,2.0398,2.0701,2.0859,2.0845,2.1204,2.169,2.2271,2.3087,2.3815,3.0547,0.0,3.1191,3.1103,3.0966,3.08,0.0,3.0499,3.0159,2.9619,2.9072,2.868,2.8444,2.6321,2.4763,2.528,2.3622,2.2093,2.1609,2.2003,2.2458,2.2658,2.3288,2.3443,2.2793,2.2594,2.2633,2.3104,2.2632,2.2531,2.304,2.2532,2.2212,2.2212,2.1885,2.1619,2.1414,2.1148,2.1002,2.1002,2.0797,2.07,2.0688,2.0434,2.0277,2.0192,1.9985,1.9838,1.9796,1.9843,1.9915,1.9979,1.9979,2.0074,2.0265,2.052,2.0792,2.1109,2.1109,2.1457,2.1821,2.1583,2.1276,2.1052,2.1235,2.0966,2.0575,2.0575,2.0788,2.0989,2.0922,2.0962,2.0989,2.0922,2.0735,2.0628,2.0855,2.0735,2.0641,2.0855,2.0909,2.0891,2.1002,2.1002,2.1123,2.1443,2.12,2.1191,2.1693,2.153,2.1489,2.1738,2.1902,2.1978,2.1894,2.1561,2.1233,2.0997,2.0974,2.0992,2.0992,2.0982,2.1119,2.1357,2.2157,2.242,2.215,2.2742,2.3289,2.3804,2.3983,2.4556,3.0586,3.0703,3.085,3.0704,3.0791,3.0869,3.0704,3.0791,3.0645,2.9678,2.9353,2.8831,2.7667,2.6011,2.475,2.4517,2.3277,2.2143,2.1654,2.2121,2.2691,2.3093,2.3259,2.3294,2.3224,2.283,2.2669,2.2893,2.252,2.2544,2.3104,2.2793,2.2632,2.2819,2.267,2.2288,2.1704,2.1426,2.122,2.1087,2.113,2.1065,2.0931,2.0968,2.0935,2.0798,2.0701,2.0567,2.0441,2.0486,2.0509,2.0522,2.0522,2.0624,2.0792,2.0982,2.1267,2.1551,2.1551,2.1803,2.2073,2.1884,2.1709,2.1583,2.1758,2.171,2.1524,2.1399,2.146,2.1551,2.1551,2.1457,2.133,2.133,2.1115,2.0922,2.1082,2.0989,2.0922,2.1082,2.1235,2.133,2.133,2.1457,2.1614,2.1803,2.1677,2.1695,2.2041,2.2073,2.2135,2.2292,2.248,2.2543,2.2543,2.2431,2.2122,2.1659,2.1596,2.1617,2.1617,2.1626,2.1945,2.2558,2.3063,2.3382,2.3473,2.3847,2.4194,2.4556,2.4806,2.5293,3.0568,3.0587,3.0605,3.0245,3.0362,3.044,3.0109,3.0186,2.9932,2.8605,2.8247,2.7547,2.5365,2.4422,2.3678,2.2777,2.2406,2.2211,2.2194,2.2383,2.2721,2.3378,2.302,2.2939,2.3463,2.3079,2.2731,2.2469,2.2358,2.2507,2.2955,2.2918,2.3042,2.329,2.3364,2.3004,2.2154,2.1813,2.1557,2.1386,2.1546,2.1525,2.1373,2.1647,2.1679,2.145,2.1467,2.136,2.113,2.1106,2.1116,2.1163,2.111,2.1325,2.1683,2.1683,2.1894,2.2167,2.223,2.2198,2.2104,2.2167,2.2135,2.2104,2.223,2.2449,2.2637,2.2449,2.2292,2.2167,2.2167,2.1915,2.1677,2.1677,2.1457,2.1267,2.1267,2.1307,2.1334,2.1334,2.1597,2.1801,2.1746,2.1999,2.2174,2.2237,2.2205,2.2234,2.2402,2.2591,2.2749,2.2812,2.3063,2.3237,2.3179,2.3179,2.2976,2.2512,2.2331,2.2328,2.2481,2.2553,2.3006,2.396,2.4079,2.4375,2.4856,2.4988,2.5128,2.5339,2.5856,2.6243,2.909,2.9157,2.9541,2.922,2.8998,2.8778,2.8433,2.7984,2.7684,2.7996,2.7607,2.7107,2.6708,2.5141,2.4159,2.4926,2.4022,2.3461,2.4288,2.4113,2.4291,2.5324,2.4482,2.3807,2.3883,2.3005,2.2618,2.3102,2.2617,2.258,2.319,2.3017,2.293,2.2968,2.3265,2.3314,2.3165,2.2697,2.2533,2.271,2.2061,2.1855,2.2033,2.1874,2.1781,2.1752,2.1794,2.18,2.1755,2.1601,2.1639,2.1832,2.1579,2.1717,2.2029,2.2029,2.2247,2.2543,2.2856,2.2574,2.2135,2.2418,2.2324,2.2198,2.2762,2.2981,2.3137,2.3635,2.3168,2.2512,2.2512,2.2261,2.201,2.201,2.1978,2.1947,2.1947,2.2155,2.2382,2.2382,2.2655,2.2785,2.2488,2.251,2.2638,2.2911,2.2688,2.2818,2.367,2.3569,2.3551,2.3828,2.394,2.3823,2.3545,2.3515,2.3714,2.4193,2.3404,2.3343,2.4178,2.424,2.47,2.569,2.6218,2.6513,2.6532,2.7093,2.7506,2.7761,2.7845,2.8043,2.8228,2.7829,2.7739,2.7429,2.7634,2.7771,2.7247,2.7047,2.698,2.7099,2.6912,2.6506,2.5976,2.5402,2.501,2.4911,2.3742,2.2985,2.3593,2.3469,2.3796,2.5112,2.4359,2.4013,2.4738,2.3745,2.3263,2.3807,2.319,2.3128,2.3896,2.3678,2.36,2.3822,2.397,2.4044,2.4044,2.3664,2.3303,2.2995,2.2852,2.2766,2.2727,2.2858,2.2784,2.2614,2.2622,2.258,2.2442,2.2345,2.2278,2.2205,2.2071,2.2252,2.2609,2.2829,2.3139,2.3397,2.316,2.3129,2.3182,2.3133,2.3168,2.323,2.3542,2.3894,2.4218,2.4547,2.3941,2.3168,2.3355,2.3012,2.2637,2.2637,2.264,2.2578,2.2419,2.264,2.2864,2.2864,2.3139,2.3312,2.317,2.3271,2.3465,2.3641,2.3497,2.3587,2.4024,2.4118,2.4118,2.4118,2.48,2.5111,2.4766,2.5091,2.5078,2.4626,2.4687,2.4934,2.5394,2.5394,2.5945,2.7112,2.7414,2.7759,2.8217,2.8526,2.8611,2.8531,2.8672,2.8728,2.7246,2.654,2.6021,2.5469,2.604,2.6673,2.6376,2.6199,2.6104,2.6183,2.5992,2.5596,2.4808,2.5365,2.551,2.4257,2.3603,2.3252,2.3323,2.3305,2.3758,2.4975,2.4354,2.426,2.538,2.4406,2.3907,2.4278,2.3706,2.3656,2.4415,2.423,2.4247,2.4557,2.4602,2.4599,2.4599,2.4422,2.3974,2.3389,2.3539,2.3589,2.3432,2.3687,2.3647,2.342,2.3319,2.3193,2.2987,2.2853,2.2672,2.2512,2.2445,2.2685,2.3196,2.3758,2.4027,2.4078,2.3786,2.3944,2.4187,2.4027,2.4157,2.4376,2.4438,2.4811,2.5249,2.5344,2.4732,2.4157,2.4407,2.3968,2.3466,2.3466,2.3403,2.3257,2.3,2.3223,2.345,2.345,2.3737,2.393,2.3858,2.404,2.4236,2.4236,2.4286,2.4414,2.4651,2.4993,2.5174,2.5076,2.6018,2.6568,2.6327,2.6891,2.6789,2.5724,2.5994,2.6311,2.6554,2.6614,2.722,2.8433,2.8433,2.8821,2.9574,2.9574,2.9432,2.9231,2.943,2.9402,2.5698,2.517,2.4826,2.3603,2.406,2.5015,2.583,2.4826,2.4101,2.5304,2.4819,2.4137,2.3981,2.4901,2.5109,2.3523,2.4797,2.5887,2.554,2.5375,2.5581,2.6275,2.5458,2.4957,2.5387,2.447,2.3998,2.4291,2.4023,2.3972,2.4316,2.4403,2.4486,2.4524,2.456,2.4599,2.4599,2.4572,2.4536,2.4485,2.4026,2.3892,2.4132,2.3888,2.379,2.3763,2.3447,2.3278,2.3212,2.2686,2.2605,2.284,2.2525,2.2841,2.3586,2.4665,2.4672,2.4234,2.5175,2.5094,2.4625,2.4965,2.5094,2.519,2.5495,2.5607,2.5719,2.6024,2.5848,2.5544,2.5576,2.5029,2.4498,2.4498,2.4254,2.401,2.401,2.4273,2.4506,2.4506,2.474,2.4891,2.4583,2.454,2.4573,2.4573,2.4837,2.5372,2.6293,2.6773,2.7255,2.7834,2.7999,2.8064,2.8105,2.8591,2.8887,2.8778,2.7331,2.6883,2.7834,2.8164,2.8778,2.9745,2.9774,2.9962,3.0305,3.0305,3.048,3.0742,3.0772,3.0772,2.481,2.4313,2.4078,2.3787,2.3825,2.4128,2.4844,2.4303,2.3885,2.465,2.4462,2.4191,2.426,2.4679,2.4855,2.4507,2.5092,2.5571,2.5569,2.5527,2.5663,2.6113,2.5813,2.5711,2.6003,2.5427,2.5231,2.5583,2.5088,2.4933,2.536,2.5198,2.5037,2.4889,2.4895,2.4823,2.4599,2.4599,2.4599,2.4599,2.4372,2.4369,2.4439,2.4356,2.4354,2.4417,2.4295,2.4252,2.4258,2.359,2.3412,2.3515,2.342,2.3581,2.3978,2.532,2.5747,2.5738,2.6472,2.6777,2.6826,2.6808,2.6966,2.7156,2.73,2.713,2.6955,2.7117,2.6889,2.6544,2.6102,2.5638,2.5299,2.5299,2.5308,2.5297,2.5068,2.514,2.5212,2.5212,2.5181,2.5124,2.5193,2.5212,2.5431,2.6116,2.6315,2.6694,2.7469,2.8114,2.851,2.8526,2.928,3.0019,3.0443,3.0666,3.0668,3.0407,2.9275,2.876,2.9165,2.9283,2.9656,3.0216,3.0216,3.0392,3.0704,3.0704,3.0762,3.0898,3.0898,3.0898,2.4174,2.3617,2.3403,2.3934,2.38,2.3752,2.4664,2.4393,2.4159,2.4853,2.4726,2.4498,2.4539,2.4737,2.4896,2.4991,2.5412,2.5729,2.5663,2.5732,2.5865,2.6105,2.6131,2.6212,2.6373,2.6069,2.6017,2.6386,2.5845,2.5713,2.6092,2.5812,2.5558,2.5409,2.5264,2.5117,2.4879,2.4786,2.482,2.4969,2.5193,2.5065,2.4599,2.4599,2.4699,2.4898,2.4838,2.4834,2.4862,2.4406,2.4358,2.4614,2.5018,2.5191,2.533,2.6683,2.7143,2.7205,2.7846,2.8233,2.8369,2.8309,2.8496,2.8783,2.8783,2.8667,2.8517,2.8387,2.8179,2.79,2.7344,2.6615,2.6014,2.6014,2.6038,2.6044,2.5827,2.5777,2.5775,2.5775,2.5558,2.5491,2.5727,2.6029,2.6517,2.7235,2.7717,2.8279,2.892,2.9695,3.0143,3.0092,3.1038,3.1795,3.2131,3.2135,3.2006,3.1719,3.1049,3.0501,3.0259,3.0348,3.0438,3.0538,3.0538,3.0674,3.0898,3.0898,3.0898,3.0898,3.0898,3.0898,2.3684,2.311,2.2817,2.3766,2.3794,2.4013,2.5555,2.5078,2.4704,2.6043,2.5515,2.4811,2.4716,2.5113,2.5246,2.4707,2.6016,2.6862,2.6114,2.6252,2.6386,2.6386,2.6386,2.6386,2.6386,2.6172,2.6118,2.6373,2.6158,2.6131,2.6373,2.6158,2.5998,2.5998,2.5678,2.5518,2.5518,2.5224,2.5302,2.5728,2.6528,2.6115,2.4599,2.4636,2.4821,2.5212,2.4934,2.4848,2.4925,2.4911,2.5345,2.6113,2.728,2.7701,2.7833,2.8905,2.8822,2.8378,2.9445,2.938,2.8872,2.9218,2.9528,2.9822,2.9822,3.0033,3.0228,2.9902,2.9805,2.9724,2.9397,2.8015,2.6733,2.6733,2.6398,2.6112,2.6112,2.6112,2.6112,2.6112,2.6112,2.6112,2.6145,2.7018,2.775,2.775,2.8937,3.008,3.0761,3.1545,3.231,3.3014,3.3404,3.3425,3.2918,3.2859,3.2793,3.2793,3.2452,3.1852,3.1026,3.1325,3.1328,3.0918,3.0898,3.0898,3.0898,3.0898,3.0898,3.0898,3.0898,3.0898,2.3405,2.3111,2.3082,2.3593,2.397,2.4816,2.7085,2.6255,2.5297,2.635,2.7052,2.7134,2.6024,2.7062,2.7533,2.5917,2.652,2.7178,2.7128,2.7185,2.7136,2.686,2.6834,2.6716,2.6426,2.6306,2.6293,2.6386,2.6306,2.6346,2.6386,2.6306,2.6198,2.5998,2.5904,2.5718,2.5518,2.5488,2.5977,2.6918,2.721,2.6648,2.5469,2.6247,2.659,2.6473,2.6372,2.6634,2.7114,2.6919,2.6515,2.6169,2.7284,2.7701,2.7866,2.9183,2.9511,2.9478,3.0552,3.0977,3.1064,3.1163,3.1442,3.1736,3.1727,3.144,3.1106,3.0966,3.0552,3.013,3.0033,2.9609,2.8987,2.8048,2.7733,2.75,2.7,2.67,2.6666,2.7118,2.7218,2.7548,2.8593,2.9227,2.9857,3.0634,3.1361,3.217,3.3058,3.3401,3.3612,3.3779,3.3889,3.3778,3.3299,3.3238,3.3242,3.3242,3.3125,3.2684,3.1871,3.1942,3.1944,3.1827,3.1827,3.1641,3.1328,3.1641,3.1514,3.0898,3.1191,3.1172,2.3545,2.3472,2.3553,2.3994,2.4701,2.5753,2.7539,2.7459,2.7215,2.7911,2.7815,2.7476,2.698,2.7635,2.7972,2.7145,2.7504,2.7929,2.8076,2.8104,2.7961,2.7583,2.7544,2.7333,2.6939,2.69,2.7083,2.7594,2.7162,2.7162,2.7816,2.7398,2.7289,2.7625,2.7329,2.7192,2.7343,2.6843,2.7142,2.8267,2.8531,2.83,2.7629,2.8012,2.8156,2.8114,2.8121,2.8459,2.8988,2.8795,2.8432,2.8089,2.9023,2.9297,2.9297,3.026,3.0645,3.077,3.1389,3.1989,3.2471,3.2471,3.2836,3.3213,3.2997,3.2735,3.2446,3.21,3.1699,3.1295,3.1166,3.1261,3.1009,2.9464,2.9102,2.8938,2.8345,2.8163,2.8196,2.846,2.8808,2.9308,3.0195,3.0983,3.1736,3.2368,3.3067,3.3776,3.4564,3.4683,3.4652,3.4629,3.4622,3.4414,3.3965,3.3769,3.3691,3.3691,3.3516,3.3184,3.2695,3.2531,3.2374,3.2198,3.2198,3.2061,3.1777,3.2061,3.1925,3.1436,3.166,3.1543,2.3937,2.4031,2.4188,2.4827,2.5955,2.7128,2.7968,2.9071,2.9915,2.9953,2.8235,2.7006,2.7904,2.7793,2.7806,2.858,2.9005,2.9236,2.9236,2.9236,2.908,2.8666,2.8627,2.8471,2.7972,2.7947,2.8403,2.9571,2.8598,2.8598,3.0137,2.9158,2.908,3.0176,2.9493,2.944,3.0168,2.8859,2.8717,2.9811,3.0362,3.0641,3.0676,2.9825,2.9647,2.9897,3.001,3.0219,3.0454,3.0496,3.0673,3.1035,3.1657,3.1717,3.1506,3.1883,3.2046,3.2118,3.2136,3.2662,3.3296,3.3296,3.3747,3.4187,3.3796,3.394,3.4005,3.3289,3.3059,3.3014,3.2695,3.2948,3.2827,3.1089,3.0609,3.0431,3.004,3.0203,3.0366,3.0105,3.0682,3.1228,3.133,3.2501,3.341,3.3448,3.4206,3.4922,3.5391,3.5449,3.543,3.5391,3.5391,3.5195,3.4746,3.4355,3.4153,3.4153,3.375,3.3503,3.3503,3.3105,3.2676,3.2316,3.2316,3.2296,3.2257,3.2296,3.2276,3.2198,3.2237,3.1992,2.4051,2.4233,2.4596,2.5396,2.777,3.0564,3.3242,3.3074,3.1674,2.9341,3.029,3.1261,3.0261,3.1804,3.2772,3.1357,3.1513,3.1791,3.1791,3.1791,3.1638,3.1178,3.1139,3.0947,3.0531,3.0492,3.0608,3.0877,3.0646,3.0646,3.1031,3.0816,3.0777,3.1031,3.0877,3.0729,3.0561,3.0356,3.0672,3.149,3.196,3.2491,3.3033,3.1947,3.1207,3.0783,3.1104,3.1092,3.0872,3.1145,3.1332,3.1396,3.1741,3.2006,3.2236,3.2671,3.2841,3.2908,3.3209,3.3671,3.4078,3.4078,3.4372,3.4731,3.46,3.4599,3.4602,3.4387,3.4303,3.4303,3.4219,3.4264,3.4237,3.3846,3.2974,3.2014,3.1363,3.1263,3.1463,3.1981,3.2434,3.2999,3.3903,3.4523,3.5017,3.5346,3.5315,3.5391,3.584,3.5879,3.5762,3.543,3.5391,3.5195,3.4746,3.4609,3.457,3.457,3.4473,3.4434,3.4434,3.3691,3.3242,3.3144,3.3144,3.2988,3.2656,3.2988,3.2812,3.2198,3.2531,3.2441,2.6102,2.609,2.621,2.7622,2.97,3.1905,3.3966,3.3751,3.2717,3.1337,3.1684,3.2157,3.1922,3.299,3.3634,3.2897,3.3028,3.318,3.318,3.318,3.3028,3.2571,3.2533,3.2364,3.1966,3.1928,3.2157,3.2728,3.2233,3.2272,3.3032,3.2517,3.2462,3.3032,3.269,3.2487,3.2459,3.1996,3.214,3.2877,3.2914,3.3433,3.4301,3.3347,3.2701,3.2351,3.2754,3.2803,3.2658,3.2775,3.2854,3.2848,3.2983,3.3009,3.3079,3.3484,3.3661,3.3705,3.3913,3.4374,3.4852,3.4852,3.5107,3.5393,3.5172,3.5089,3.5026,3.4758,3.4707,3.4707,3.4707,3.4863,3.5039,3.5039,3.4335,3.3501,3.2951,3.2984,3.3151,3.3369,3.389,3.4432,3.5031,3.5446,3.5762,3.5996,3.584,3.5781,3.5962,3.5982,3.5937,3.5723,3.5703,3.5605,3.5351,3.5156,3.5039,3.5039,3.4824,3.4707,3.4707,3.4277,3.4023,3.4023,3.4023,3.3828,3.3398,3.3633,3.3398,3.2773,3.2988,3.2871,2.8304,2.8317,2.8463,3.05,3.1571,3.2438,3.3662,3.3676,3.3617,3.42,3.3049,3.2272,3.331,3.3369,3.3445,3.4105,3.4218,3.4218,3.4218,3.4218,3.4105,3.3765,3.3727,3.3596,3.3239,3.3201,3.3634,3.4632,3.3785,3.3806,3.5157,3.4255,3.418,3.5194,3.4486,3.4239,3.4498,3.3506,3.3301,3.3906,3.3631,3.4022,3.499,3.4301,3.399,3.4024,3.4336,3.4474,3.4471,3.4346,3.4345,3.4355,3.4255,3.4082,3.3936,3.4277,3.4441,3.448,3.4556,3.5026,3.5592,3.5592,3.5777,3.5923,3.5605,3.5508,3.543,3.5039,3.4922,3.4922,3.4922,3.5215,3.5508,3.5508,3.5215,3.4856,3.4558,3.4724,3.4823,3.4558,3.5034,3.5508,3.5508,3.5801,3.5982,3.5982,3.5982,3.5982,3.5982,3.5982,3.5982,3.5982,3.5982,3.5982,3.5982,3.5703,3.5508,3.5508,3.5137,3.4922,3.4922,3.4922,3.4922,3.4922,3.4785,3.4531,3.4212,3.4212,3.4004,3.3601,3.3542,3.334,2.8241,2.9307,3.0759,3.3238,3.3181,3.3285,3.6182,3.5754,3.5064,3.6163,3.5381,3.4576,3.4744,3.5306,3.5754,3.5866,3.5866,3.5866,3.5866,3.5866,3.5866,3.5791,3.5791,3.5791,3.5717,3.5717,3.5791,3.594,3.5791,3.5829,3.6015,3.5903,3.5866,3.6015,3.5613,3.5212,3.492,3.4412,3.4205,3.4306,3.4561,3.4956,3.5401,3.4956,3.4749,3.4749,3.4818,3.4818,3.4815,3.4448,3.448,3.4696,3.4354,3.4346,3.4615,3.509,3.5232,3.5296,3.5631,3.584,3.5913,3.5913,3.5947,3.5982,3.5957,3.5937,3.5918,3.5825,3.584,3.584,3.584,3.5845,3.5937,3.5937,3.5845,3.5806,3.5772,3.5772,3.5806,3.5772,3.5864,3.5937,3.5937,3.5942,3.5982,3.5982,3.5982,3.5982,3.5982,3.5982,3.5982,3.5982,3.5982,3.5982,3.5982,3.5942,3.5937,3.5937,3.5879,3.584,3.584,3.584,3.584,3.584,3.5098,3.4668,3.4609,3.4609,3.459,3.4512,3.416,3.3997,3.0333,3.1737,3.3301,3.4718,3.5021,3.5353,3.7014,3.6701,3.6163,3.6701,3.6201,3.568,3.568,3.594,3.6201,3.6201,3.6201,3.6201,3.6201,3.6201,3.6201,3.6201,3.6201,3.6201,3.6201,3.6201,3.6201,3.6201,3.6201,3.6201,3.6201,3.6201,3.6201,3.6201,3.5815,3.5394,3.4991,3.4818,3.4831,3.5024,3.5367,3.5606,3.5777,3.5606,3.5299,3.4921,3.5127,3.523,3.5264,3.5258,3.5351,3.5452,3.5292,3.5315,3.5469,3.5664,3.5742,3.5762,3.5923,3.5982,3.5982,3.5982,3.5982,3.5982,3.5982,3.5982,3.5982,3.5982,3.5982,3.5982,3.5982,3.6211,3.6387,3.6387,3.6387,3.6387,3.6387,3.6191,3.6094,3.6348,3.6582,3.6738,3.6738,3.6738,3.666,3.6426,3.6387,3.6387,3.6387,3.6387,3.6387,3.6387,3.6387,3.6289,3.6001,3.5982,3.5982,3.5982,3.5982,3.5982,3.5982,3.5982,3.5982,3.5982,3.5644,3.5332,3.5078,3.5078,3.4961,3.4687,3.4512,3.4564,3.1957,3.3265,3.4499,3.5355,3.6106,3.6741,3.7289,3.7071,3.6812,3.6812,3.6479,3.6201,3.6201,3.6201,3.6201,3.6201,3.6201,3.6201,3.6201,3.6201,3.6201,3.6201,3.6201,3.6201,3.6201,3.6201,3.6201,3.6201,3.6201,3.6201,3.6201,3.6201,3.6164,3.6054,3.5669,3.5247,3.4844,3.4917,3.5155,3.5523,3.5845,3.5982,3.5982,3.5982,3.5709,3.5196,3.5504,3.5606,3.5641,3.5879,3.5982,3.5982,3.5982,3.5982,3.5982,3.5982,3.5982,3.5982,3.5982,3.5982,3.5982,3.5982,3.5982,3.5982,3.5982,3.5982,3.6001,3.6152,3.6191,3.6211,3.6309,3.6582,3.6871,3.6871,3.6871,3.6832,3.6734,3.6406,3.6309,3.6738,3.709,3.7305,3.7305,3.7305,3.7187,3.691,3.6871,3.6871,3.6871,3.6871,3.6871,3.6871,3.6871,3.666,3.623,3.6191,3.6133,3.6035,3.5982,3.604,3.6172,3.6191,3.6191,3.6191,3.6191,3.5976,3.5547,3.5547,3.5371,3.5039,3.4922,3.508,3.2038,3.2555,3.3314,3.5057,3.58,3.6346,3.7232,3.7071,3.6812,3.6812,3.6479,3.6201,3.6201,3.6201,3.6201,3.6201,3.6201,3.6201,3.6201,3.6201,3.6201,3.6201,3.6201,3.6201,3.6201,3.6201,3.6201,3.6201,3.6201,3.6201,3.6201,3.6201,3.6036,3.5632,3.5229,3.4826,3.444,3.4733,3.5112,3.5523,3.5845,3.5982,3.5982,3.5982,3.5982,3.5947,3.5947,3.5947,3.5982,3.5982,3.5982,3.5982,3.5982,3.5982,3.5982,3.5982,3.5982,3.5982,3.5982,3.5982,3.5982,3.5982,3.5982,3.5982,3.5982,3.5982,3.6079,3.6523,3.6675,3.6753,3.7129,3.7246,3.7266,3.7266,3.7266,3.7148,3.6792,3.6695,3.6792,3.7187,3.7285,3.7305,3.7305,3.7305,3.7285,3.7266,3.7266,3.7266,3.7266,3.7266,3.7266,3.7266,3.7266,3.709,3.6714,3.6675,3.6465,3.6035,3.5982,3.6211,3.6656,3.6675,3.6675,3.6675,3.6675,3.6426,3.5996,3.5996,3.5976,3.5903,3.5547,3.5552,3.2686,3.3015,3.3489,3.507,3.5782,3.6259,3.6833,3.6859,3.6812,3.6812,3.6479,3.6201,3.6201,3.6201,3.6201,3.6201,3.6201,3.6201,3.6201,3.6201,3.6201,3.6201,3.6201,3.6201,3.6201,3.6201,3.622,3.6183,3.622,3.6202,3.6219,3.6183,3.6146,3.5999,3.5339,3.4822,3.4385,3.4721,3.5093,3.5523,3.5845,3.5982,3.5982,3.5982,3.5982,3.5982,3.5982,3.5982,3.5982,3.5982,3.5982,3.5982,3.5982,3.5982,3.5982,3.5982,3.5982,3.5982,3.5982,3.5982,3.5982,3.5982,3.5982,3.5982,3.5982,3.6211,3.6465,3.6656,3.691,3.7109,3.7266,3.75,3.7695,3.7695,3.7695,3.7656,3.75,3.748,3.7519,3.7676,3.793,3.8125,3.8125,3.8125,3.8027,3.7734,3.7695,3.7695,3.7695,3.7695,3.7695,3.7695,3.7695,3.7539,3.7109,3.707,3.7012,3.6855,3.6836,3.6914,3.707,3.707,3.707,3.707,3.707,3.6719,3.5982,3.5982,3.5982,3.6016,3.6076,3.6301,3.2815,3.2942,3.3245,3.4936,3.5388,3.5684,3.6698,3.6863,3.6806,3.6977,3.6701,3.6405,3.6405,3.6275,3.6201,3.6201,3.6201,3.6201,3.6201,3.6201,3.6201,3.6201,3.6312,3.6405,3.6405,3.6516,3.6553,3.6403,3.6405,3.6349,3.6201,3.622,3.6146,3.6017,3.5337,3.4923,3.4783,3.4997,3.5299,3.5675,3.5879,3.5982,3.5982,3.5982,3.5982,3.5982,3.5982,3.5982,3.5982,3.5982,3.5982,3.5982,3.5982,3.5982,3.5982,3.5982,3.5982,3.6001,3.6191,3.623,3.6269,3.6406,3.6445,3.6445,3.6445,3.6641,3.6949,3.7051,3.7285,3.7539,3.7695,3.793,3.8144,3.8144,3.8144,3.8144,3.8144,3.8027,3.7969,3.8105,3.8379,3.8611,3.8611,3.8611,3.8476,3.8184,3.8144,3.8144,3.8144,3.8144,3.8144,3.8144,3.8144,3.7969,3.7539,3.75,3.7441,3.7305,3.7305,3.7363,3.75,3.75,3.75,3.75,3.75,3.7168,3.6445,3.6445,3.6367,3.623,3.6586,3.6949,0.0,0.0,0.0,3.4603,3.4582,3.4661,3.6823,3.6967,3.6751,3.7267,3.7033,3.6775,3.6812,3.646,3.6201,3.6201,3.6201,3.6201,3.6201,3.6201,3.6201,3.6201,3.6553,3.6812,3.6812,3.7144,3.7218,3.683,3.6793,3.6608,3.6219,3.6201,3.6036,3.5596,3.5236,3.5161,3.5492,3.5509,3.5641,3.5982,3.5982,3.5982,3.5982,3.5982,3.5982,3.5982,3.5982,3.5982,3.5982,3.5982,3.5982,3.5982,3.5982,3.5982,3.5982,3.5982,3.6035,3.6094,3.6523,3.6714,3.6792,3.7168,3.7305,3.7305,3.7305,3.7305,3.7402,3.7777,3.7894,3.8047,3.8457,3.8611,3.8611,3.8611,3.8611,3.8611,3.8611,3.8242,3.8066,3.8496,3.8611,3.8611,3.8611,3.8611,3.8611,3.8611,3.8611,3.8611,3.8611,3.8611,3.8611,3.8611,3.8611,3.8418,3.7988,3.7933,3.7793,3.7402,3.7363,3.7539,3.7933,3.7933,3.7933,3.7933,3.7933,3.7754,3.7324,3.7305,3.709,3.6734,3.706,3.7371,3.2382,0.0,0.0,0.0,0.0,0.0,3.4803,3.4926,3.5146,3.6209,3.5909,3.5696,3.6644,3.646,3.6275,3.659,3.6405,3.6201,3.6201,3.6201,3.6201,3.6201,3.6553,3.6812,3.6812,3.7144,3.7215,3.684,3.6791,3.6608,3.62,3.6202,3.6036,3.5596,3.5478,3.5354,3.5142,3.5371,3.5557,3.566,3.5879,3.5982,3.5982,3.5982,3.5982,3.5982,3.5982,3.5982,3.5982,3.5982,3.5982,3.5982,3.5982,3.5982,3.5982,3.5982,3.6211,3.6504,3.6656,3.691,3.7148,3.7266,3.7305,3.7305,3.7305,3.75,3.7773,3.7855,3.8144,3.8418,3.8591,3.8611,3.8611,3.8611,3.8611,3.8611,3.8611,3.8513,3.8437,3.8591,3.8611,3.8611,3.8611,3.8611,3.8611,3.8611,3.8611,3.8611,3.8611,3.8611,3.8611,3.8611,3.8611,3.8689,3.8828,3.8848,3.8945,3.916,3.8867,3.8887,3.9336,3.9023,3.8848,3.8848,3.8848,3.8633,3.8259,3.7598,3.7246,3.7164,3.7773,3.8407,0.0,3.2287,3.2192,3.2395,0.0,0.0,3.4062,3.4232,3.4544,3.6054,3.5822,3.567,3.6612,3.6586,3.6514,3.6753,3.6884,3.6793,3.6275,3.6201,3.6201,3.6201,3.6701,3.7034,3.7034,3.7549,3.7674,3.708,3.7196,3.7124,3.6733,3.6681,3.6515,3.6106,3.6057,3.5857,3.5476,3.5613,3.5709,3.5709,3.5913,3.5982,3.5982,3.5982,3.5982,3.5982,3.5982,3.5982,3.5982,3.5982,3.5982,3.5982,3.5982,3.5982,3.5982,3.5982,3.6172,3.6445,3.6816,3.709,3.7363,3.7715,3.7832,3.7832,3.7832,3.8008,3.8203,3.8203,3.8379,3.8611,3.8611,3.8611,3.8611,3.8611,3.8611,3.8611,3.8611,3.8611,3.8669,3.8809,3.8828,3.8828,3.8828,3.8828,3.8769,3.865,3.8611,3.8611,3.8611,3.8611,3.8633,3.8828,3.8828,3.9004,3.9453,3.9492,3.9609,3.9883,3.9648,3.9609,3.9883,3.9629,3.9492,3.9492,3.9297,3.9004,3.8611,3.8066,3.7912,3.8054,3.8653,3.9146,0.0,0.0,0.0,3.2854,3.2376,0.0,3.4086,3.4236,3.4504,3.6287,3.6328,3.6223,3.6681,3.6786,3.6749,3.6675,3.7328,3.7509,3.6497,3.6349,3.6349,3.6275,3.6923,3.7421,3.7421,3.8099,3.8246,3.7532,3.7752,3.777,3.7345,3.7345,3.7156,3.6739,3.666,3.647,3.6105,3.6025,3.5982,3.5982,3.5982,3.5982,3.5982,3.604,3.604,3.5982,3.6074,3.604,3.5982,3.5982,3.5982,3.5982,3.5982,3.5982,3.6035,3.6074,3.6113,3.6269,3.709,3.7402,3.7559,3.8356,3.8611,3.8611,3.8611,3.8611,3.8611,3.8611,3.8611,3.8611,3.8611,3.8611,3.8611,3.8611,3.8611,3.8611,3.8611,3.8611,3.8728,3.9121,3.9199,3.9199,3.9199,3.9199,3.9082,3.8728,3.865,3.8611,3.8611,3.865,3.8789,3.916,3.9258,3.9473,3.9922,3.9961,3.998,4.0039,4.0,3.998,4.0039,4.0,3.9961,3.9961,3.9512,3.9119,3.8725,3.8667,3.8849,3.9186,3.9576,3.9725,3.3765,3.3537,3.317,3.2721,3.2734,0.0,3.3195,3.3403,3.4093,3.5983,3.6065,3.6067,3.7085,3.7006,3.6626,3.6,3.6449,3.6933,3.7124,3.742,3.742,3.6775,3.7107,3.7421,3.7421,3.7826,3.8045,3.7899,3.7679,3.7343,3.6948,3.6929,3.6703,3.6232,3.624,3.6182,3.6105,3.6025,3.5982,3.5982,3.5982,3.5982,3.6001,3.6387,3.6348,3.6001,3.6387,3.6348,3.5982,3.5982,3.5982,3.5982,3.5982,3.5982,3.6055,3.6406,3.6758,3.7129,3.7617,3.8027,3.8359,3.8552,3.8611,3.8611,3.8611,3.8611,3.8611,3.8611,3.8611,3.8611,3.8611,3.8611,3.8611,3.8611,3.8611,3.8611,3.8611,3.8611,3.8728,3.9121,3.9199,3.9199,3.9199,3.9199,3.918,3.9082,3.8789,3.8611,3.8611,3.8867,3.9101,3.9199,3.9531,3.9941,4.0371,4.0372,4.0547,4.0937,4.0586,4.0566,4.0918,4.0586,4.0372,4.0372,3.998,3.97,3.9581,3.9225,3.9261,3.9593,4.0008,4.034,3.4137,3.3864,3.3504,3.3131,3.3159,0.0,0.0,3.3718,3.4458,3.6175,3.6011,3.5891,3.6793,3.6934,3.6757,3.615,3.7303,3.8102,3.7633,3.7622,3.7549,3.7144,3.7439,3.7715,3.7715,3.8082,3.8302,3.8302,3.7936,3.7598,3.7357,3.7374,3.7066,3.6416,3.6394,3.6286,3.6073,3.603,3.6133,3.6348,3.6348,3.6445,3.666,3.6875,3.6758,3.6367,3.6797,3.6738,3.6367,3.6582,3.666,3.6621,3.6157,3.6152,3.6367,3.6616,3.6934,3.7363,3.7773,3.8066,3.8281,3.8496,3.8611,3.8611,3.8611,3.8611,3.8611,3.8611,3.8611,3.865,3.8828,3.8887,3.8887,3.8887,3.8887,3.8828,3.865,3.8787,3.8945,3.916,3.9551,3.9785,3.959,3.9726,3.9785,3.957,3.9375,3.9238,3.9238,3.9414,3.9629,3.9844,4.0078,4.0391,4.082,4.084,4.0937,4.1211,4.0976,4.0937,4.1211,4.0957,4.0742,4.0489,4.0312,4.0169,4.0147,4.0151,4.0104,4.0022,4.0417,4.0704,3.4736,3.4408,3.4155,3.3911,3.3962,3.4098,0.0,0.0,0.0,3.6683,3.6351,3.6045,3.6569,3.6883,3.6866,3.6319,3.8034,3.9025,3.7932,3.7628,3.7456,3.737,3.7778,3.8112,3.8112,3.8306,3.8543,3.872,3.8183,3.7897,3.8021,3.7887,3.7461,3.6734,3.6616,3.6367,3.5982,3.5982,3.6191,3.6577,3.6675,3.689,3.7187,3.7344,3.7187,3.6851,3.7226,3.7187,3.6851,3.7148,3.7305,3.7226,3.6543,3.6484,3.6832,3.691,3.7129,3.748,3.791,3.8047,3.8105,3.8457,3.8611,3.8611,3.8611,3.8611,3.8611,3.8611,3.8611,3.8652,3.8984,3.9141,3.9199,3.9199,3.9277,3.9238,3.8906,3.9101,3.9336,3.9336,3.998,4.041,4.0078,4.0293,4.041,4.0059,3.9941,3.9902,3.9902,3.9961,4.0156,4.0488,4.0605,4.0781,4.1191,4.1211,4.1211,4.1211,4.1211,4.1211,4.1211,4.1211,4.1016,4.0644,4.0721,4.0735,4.0716,4.1108,4.1015,4.0453,4.093,4.1084,3.6419,3.6462,3.616,3.5107,3.563,3.6149,3.5194,0.0,3.684,3.7609,0.0,3.7239,3.7238,0.0,0.0,3.5815,3.6812,3.7785,3.8025,3.7983,3.7739,3.7198,3.7893,3.8438,3.8438,3.8137,3.8307,3.908,3.8034,3.7704,3.8394,3.7755,3.7148,3.6714,3.6289,3.604,3.5982,3.5982,3.6035,3.6094,3.6484,3.6734,3.6792,3.7519,3.7617,3.7246,3.7676,3.7617,3.7226,3.7285,3.7305,3.7285,3.7187,3.7187,3.7266,3.7637,3.7777,3.791,3.8359,3.8496,3.8552,3.8591,3.8611,3.8611,3.8611,3.8611,3.8611,3.8611,3.8611,3.863,3.8669,3.8926,3.9199,3.9199,3.9512,3.9805,3.9766,3.9785,3.9824,3.9824,4.0195,4.0508,4.043,4.0488,4.0469,4.043,4.0137,3.9902,3.9902,4.0215,4.043,4.0527,4.0859,4.1152,4.1211,4.1211,4.1211,4.1211,4.1211,4.1211,4.1211,4.1211,4.1191,4.1094,4.1481,4.161,4.1552,4.1968,4.1725,4.0922,4.1771,4.1705,3.6544,3.6862,3.7016,3.6257,3.6828,3.7339,3.6374,3.6755,3.7461,3.8091,0.0,0.0,0.0,0.0,0.0,0.0,3.7591,3.8477,3.7969,3.8127,3.8257,3.8161,3.7611,3.7334,3.7593,3.7728,3.7927,3.8287,3.7828,3.7604,3.7713,3.7415,3.7099,3.6714,3.625,3.5982,3.5982,3.5982,3.6152,3.6406,3.6616,3.6934,3.7402,3.7773,3.7832,3.7676,3.8105,3.8066,3.7676,3.793,3.8047,3.8047,3.8047,3.7891,3.7676,3.7816,3.8086,3.832,3.8552,3.8611,3.8611,3.8611,3.8611,3.8611,3.8611,3.8611,3.8611,3.8611,3.8611,3.8728,3.9199,3.9473,3.9668,3.9902,4.0117,4.0195,3.9941,4.0098,4.0254,4.0254,4.0605,4.0898,4.0898,4.0898,4.0898,4.0898,4.0742,4.0644,4.0644,4.0801,4.0898,4.0898,4.1074,4.1211,4.1211,4.1211,4.1211,4.1211,4.1211,4.1211,4.1211,4.1211,4.1211,4.1211,4.1579,4.1905,4.2108,4.249,4.2505,4.2093,4.2253,4.2078,3.6616,3.7176,3.777,3.7405,3.7822,3.8132,3.7517,3.7888,3.8424,3.8602,3.8431,0.0,0.0,0.0,3.7928,3.7466,0.0,3.9186,3.8223,3.8305,3.8526,3.8571,3.7607,3.7147,3.7655,3.763,3.7618,3.7638,3.7361,3.7247,3.7323,3.7086,3.6941,3.6833,3.6284,3.5982,3.5982,3.5982,3.6172,3.6484,3.6773,3.7168,3.7718,3.7988,3.8105,3.8125,3.8437,3.8398,3.8125,3.8437,3.8611,3.8611,3.8611,3.8379,3.8105,3.8105,3.8301,3.8611,3.8611,3.8611,3.8611,3.8611,3.8652,3.875,3.875,3.8828,3.8982,3.8982,3.8982,3.9082,3.9726,3.998,4.0156,4.0449,4.0605,4.0605,4.0312,4.0488,4.0703,4.0703,4.0957,4.1211,4.1211,4.1211,4.1211,4.1211,4.1211,4.1211,4.1211,4.1211,4.1211,4.1211,4.1211,4.1211,4.1211,4.1211,4.1211,4.1211,4.1211,4.1211,4.1211,4.1211,4.125,4.1366,4.1773,4.2159,4.2582,4.2966,4.3145,4.306,4.2787,4.2534,3.7101,3.7863,3.8729,3.8666,3.8612,3.8576,3.8549,3.9446,4.0126,3.9412,4.0213,4.0849,4.0141,3.9754,3.9424,3.9158,3.9385,0.0,0.0,3.8587,3.8318,3.7866,3.824,3.8796,3.9454,3.8175,3.7343,3.7401,3.6584,3.6506,3.7541,3.6796,3.6609,3.7159,3.6421,3.5982,3.5982,3.5982,3.6035,3.6021,3.6875,3.7285,3.7344,3.8184,3.8591,3.8591,3.8611,3.8611,3.8591,3.8611,3.8611,3.8611,3.8611,3.8611,3.8591,3.8591,3.8591,3.8611,3.8611,3.8611,3.8611,3.8611,3.8848,3.918,3.918,3.9492,3.9863,3.9863,3.9863,3.9863,3.9883,4.0195,4.0469,4.0527,4.084,4.1191,4.1172,4.1191,4.1191,4.1191,4.1211,4.1211,4.1211,4.1211,4.1211,4.1211,4.1211,4.1211,4.1211,4.1211,4.1211,4.1211,4.1211,4.1211,4.1211,4.1211,4.1211,4.1211,4.1211,4.1211,4.1211,4.1211,4.1366,4.1773,4.2177,4.2562,4.2966,4.3386,4.3577,4.3594,4.3573,4.3097,3.82,3.9371,4.0414,4.0201,4.0668,4.0945,3.9988,4.0012,4.0112,3.984,4.0401,4.0869,4.0434,4.0376,4.0189,3.9636,3.9746,3.9603,0.0,3.8165,3.8075,3.8611,3.8827,3.8685,3.8016,3.7557,3.7031,3.6317,3.5777,3.5759,3.6392,3.6527,3.6582,3.6589,3.6426,3.6234,3.5982,3.6309,3.6445,3.6465,3.7031,3.7441,3.7715,3.8008,3.8301,3.8611,3.8611,3.8611,3.8611,3.8611,3.8611,3.8611,3.8611,3.8611,3.865,3.8887,3.8984,3.8984,3.8984,3.8984,3.8945,3.8708,3.8867,3.9141,3.8867,3.9082,3.9434,3.9434,3.9434,3.957,4.0156,4.041,4.0586,4.0879,4.1074,4.1211,4.1211,4.1211,4.1211,4.1211,4.1211,4.1211,4.1211,4.1211,4.1211,4.1211,4.1211,4.1211,4.1211,4.1211,4.1211,4.1211,4.1211,4.1211,4.1211,4.1211,4.1211,4.1211,4.1211,4.1211,4.1211,4.1211,4.1405,4.1773,4.2197,4.2621,4.3004,4.3386,4.3615,4.3615,4.3615,4.3449,3.8972,4.0393,4.1745,4.1942,4.2396,4.2539,4.16,4.1481,4.1519,4.1217,4.1763,4.2215,4.1968,4.1636,4.1194,4.0525,4.0324,3.9863,0.0,3.8013,3.8026,3.9169,3.9088,3.8672,3.7908,3.7688,3.6991,3.5546,3.5295,3.5367,3.5751,3.605,3.6307,3.6494,3.6368,3.62,3.5982,3.6445,3.6714,3.6714,3.7246,3.7656,3.7894,3.8086,3.8301,3.8611,3.8611,3.8611,3.8611,3.8611,3.8611,3.8611,3.8611,3.8611,3.865,3.8887,3.9062,3.9199,3.9199,3.9199,3.9141,3.8747,3.8867,3.9141,3.8887,3.9199,3.9668,3.9668,3.9785,4.0039,4.0605,4.0762,4.082,4.1152,4.1211,4.1211,4.1211,4.1211,4.1211,4.1211,4.1211,4.1211,4.1211,4.1211,4.1211,4.1211,4.1211,4.1211,4.1211,4.1211,4.1211,4.1211,4.1211,4.1211,4.1211,4.1211,4.1211,4.1211,4.1211,4.1211,4.1211,4.1327,4.1697,4.2224,4.2509,4.2894,4.3441,4.3545,4.3615,4.3615,4.3615,4.3615]},{"header":{"parameterUnit":"m.s-1","parameterCategory":1,"la1":30.6,"la2":29.2853,"lo1":-89.7004,"lo2":-87.6739,"dy":0.0162,"dx":0.0183,"nx":112,"ny":82,"refTime":"2023-05-25T18:00:00:Z","depth":0,"parameterNumber":3,"parameterNumberName":"V-component_of_WINDS"},"data":[0.0,0.0,0.0,0.0,0.0,0.0,0.0,0.0,0.0,0.0,0.0,0.0,0.0,0.0,0.0,0.0,0.0,0.0,0.0,0.0,0.0,0.0,0.0,0.0,0.0,0.0,0.0,0.0,0.0,0.0,0.0,0.0,0.0,0.0,0.0,0.0,0.0,0.0,0.0,0.0,0.0,0.0,0.0,0.0,0.0,0.0,0.0,0.0,0.0,0.0,0.0,0.0,0.0,0.0,0.0,0.0,0.0,0.0,0.0,0.0,0.0,0.0,0.0,0.0,0.0,0.0,0.0,0.0,0.0,0.0,0.0,0.0,0.0,0.0,0.0,0.0,0.0,0.0,0.0,0.0,0.0,0.0,0.0,0.0,0.0,0.0,0.0,0.0,0.0,0.0,3.4812,3.5145,3.6252,3.6987,3.7127,3.8073,3.7788,3.5725,0.0,0.0,0.0,0.0,0.0,0.0,0.0,0.0,0.0,0.0,0.0,0.0,0.0,0.0,0.0,0.0,0.0,0.0,0.0,0.0,0.0,0.0,0.0,0.0,0.0,0.0,0.0,0.0,0.0,0.0,0.0,0.0,0.0,0.0,0.0,0.0,0.0,0.0,0.0,0.0,0.0,0.0,0.0,0.0,0.0,0.0,0.0,0.0,0.0,0.0,0.0,0.0,0.0,0.0,0.0,0.0,0.0,0.0,0.0,0.0,0.0,0.0,0.0,0.0,0.0,0.0,0.0,0.0,0.0,0.0,0.0,0.0,0.0,0.0,0.0,0.0,0.0,0.0,0.0,0.0,0.0,0.0,0.0,0.0,0.0,0.0,0.0,0.0,0.0,0.0,0.0,0.0,0.0,0.0,0.0,0.0,0.0,0.0,0.0,0.0,0.0,0.0,0.0,0.0,3.3193,3.4176,3.4396,3.5217,3.7116,3.6927,3.639,3.5659,0.0,0.0,0.0,0.0,0.0,0.0,0.0,0.0,0.0,0.0,0.0,0.0,0.0,0.0,0.0,0.0,0.0,0.0,0.0,0.0,0.0,0.0,0.0,0.0,0.0,0.0,0.0,0.0,0.0,0.0,0.0,0.0,0.0,0.0,0.0,0.0,0.0,0.0,0.0,0.0,0.0,0.0,0.0,0.0,0.0,0.0,0.0,0.0,0.0,0.0,0.0,0.0,0.0,0.0,0.0,0.0,0.0,0.0,0.0,0.0,0.0,0.0,0.0,0.0,0.0,0.0,0.0,0.0,0.0,0.0,0.0,0.0,0.0,0.0,0.0,0.0,0.0,0.0,0.0,0.0,0.0,0.0,0.0,0.0,0.0,0.0,0.0,0.0,0.0,0.0,0.0,0.0,0.0,0.0,0.0,0.0,0.0,0.0,0.0,0.0,0.0,0.0,0.0,3.3823,3.3865,3.4477,3.4649,3.5273,3.6637,3.6806,3.6455,3.5564,3.4198,0.0,0.0,0.0,0.0,0.0,0.0,0.0,0.0,0.0,0.0,0.0,0.0,0.0,0.0,0.0,0.0,0.0,0.0,0.0,0.0,0.0,0.0,0.0,0.0,0.0,0.0,0.0,0.0,0.0,0.0,0.0,0.0,0.0,0.0,0.0,0.0,0.0,0.0,0.0,0.0,0.0,0.0,0.0,0.0,0.0,0.0,0.0,0.0,0.0,0.0,0.0,0.0,0.0,0.0,0.0,0.0,0.0,0.0,0.0,0.0,0.0,0.0,0.0,0.0,0.0,0.0,0.0,0.0,0.0,0.0,0.0,0.0,0.0,0.0,0.0,0.0,0.0,0.0,0.0,0.0,0.0,0.0,0.0,0.0,0.0,0.0,0.0,0.0,0.0,0.0,0.0,0.0,0.0,0.0,0.0,0.0,0.0,0.0,0.0,0.0,0.0,0.0,3.4398,3.4557,3.4714,3.4871,3.5324,3.6209,3.6333,3.5965,3.4994,3.3214,0.0,0.0,0.0,0.0,0.0,0.0,0.0,0.0,0.0,0.0,0.0,0.0,0.0,0.0,0.0,0.0,0.0,0.0,0.0,0.0,0.0,0.0,0.0,0.0,0.0,0.0,0.0,0.0,0.0,0.0,0.0,0.0,0.0,0.0,0.0,0.0,0.0,0.0,0.0,0.0,0.0,0.0,0.0,0.0,0.0,0.0,0.0,0.0,0.0,0.0,0.0,0.0,0.0,0.0,0.0,0.0,0.0,0.0,0.0,0.0,0.0,0.0,0.0,0.0,0.0,0.0,0.0,0.0,0.0,0.0,0.0,0.0,0.0,0.0,0.0,0.0,0.0,0.0,0.0,0.0,0.0,0.0,0.0,0.0,0.0,0.0,0.0,0.0,0.0,0.0,0.0,0.0,0.0,0.0,0.0,0.0,0.0,0.0,0.0,0.0,0.0,0.0,3.3312,3.3951,3.4134,3.3887,3.4418,3.615,3.4693,3.3647,3.3565,3.1228,0.0,0.0,0.0,0.0,0.0,0.0,0.0,0.0,0.0,0.0,0.0,0.0,0.0,0.0,0.0,0.0,0.0,0.0,0.0,0.0,0.0,0.0,0.0,0.0,0.0,0.0,0.0,0.0,0.0,0.0,0.0,0.0,0.0,0.0,0.0,0.0,0.0,0.0,0.0,0.0,0.0,0.0,0.0,0.0,0.0,0.0,0.0,0.0,0.0,0.0,0.0,0.0,0.0,0.0,0.0,0.0,0.0,0.0,0.0,0.0,0.0,0.0,0.0,0.0,0.0,0.0,0.0,0.0,0.0,0.0,0.0,0.0,0.0,0.0,0.0,0.0,0.0,0.0,0.0,0.0,0.0,0.0,0.0,0.0,0.0,0.0,0.0,0.0,0.0,0.0,0.0,0.0,0.0,0.0,0.0,0.0,0.0,0.0,0.0,0.0,0.0,0.0,3.3784,3.4505,3.4601,3.4298,3.4387,3.5125,3.4505,3.3537,3.2238,0.0,0.0,0.0,0.0,0.0,0.0,0.0,0.0,0.0,0.0,0.0,0.0,0.0,0.0,0.0,0.0,0.0,0.0,0.0,0.0,0.0,0.0,0.0,0.0,0.0,0.0,0.0,0.0,0.0,0.0,0.0,0.0,0.0,0.0,0.0,0.0,0.0,0.0,0.0,0.0,0.0,0.0,0.0,0.0,0.0,0.0,0.0,0.0,0.0,0.0,0.0,0.0,0.0,0.0,0.0,0.0,0.0,0.0,0.0,0.0,0.0,0.0,0.0,0.0,0.0,0.0,0.0,0.0,0.0,0.0,0.0,0.0,0.0,0.0,0.0,0.0,0.0,0.0,0.0,0.0,0.0,0.0,0.0,0.0,0.0,0.0,0.0,0.0,0.0,0.0,0.0,0.0,0.0,0.0,0.0,0.0,0.0,0.0,0.0,0.0,0.0,0.0,3.3038,3.4109,3.4902,3.4902,3.445,3.4249,3.448,3.3938,3.296,3.1524,0.0,0.0,0.0,0.0,0.0,0.0,0.0,0.0,0.0,0.0,0.0,0.0,0.0,0.0,0.0,0.0,0.0,0.0,0.0,0.0,0.0,0.0,0.0,0.0,0.0,0.0,0.0,0.0,0.0,0.0,0.0,0.0,0.0,0.0,0.0,0.0,0.0,0.0,0.0,0.0,0.0,0.0,0.0,0.0,0.0,0.0,0.0,0.0,0.0,0.0,0.0,0.0,0.0,0.0,0.0,0.0,0.0,0.0,0.0,0.0,0.0,0.0,0.0,0.0,0.0,0.0,0.0,0.0,0.0,0.0,0.0,0.0,0.0,0.0,0.0,0.0,0.0,0.0,0.0,0.0,0.0,0.0,0.0,0.0,0.0,0.0,0.0,0.0,0.0,0.0,0.0,0.0,0.0,0.0,0.0,0.0,0.0,0.0,0.0,0.0,0.0,0.0,3.3006,3.4109,3.4902,3.4902,3.4116,3.3838,3.4427,3.2695,3.1583,0.0,0.0,0.0,0.0,0.0,0.0,0.0,0.0,0.0,0.0,0.0,0.0,0.0,0.0,0.0,0.0,0.0,0.0,0.0,0.0,0.0,0.0,0.0,0.0,0.0,0.0,0.0,0.0,0.0,0.0,0.0,0.0,0.0,0.0,0.0,0.0,0.0,0.0,0.0,0.0,0.0,0.0,0.0,0.0,0.0,0.0,0.0,0.0,0.0,0.0,0.0,0.0,0.0,0.0,0.0,0.0,0.0,0.0,0.0,0.0,0.0,0.0,0.0,0.0,0.0,0.0,0.0,0.0,0.0,0.0,0.0,0.0,0.0,0.0,0.0,0.0,0.0,0.0,0.0,0.0,0.0,0.0,0.0,0.0,0.0,0.0,0.0,0.0,0.0,0.0,0.0,0.0,0.0,0.0,0.0,0.0,0.0,0.0,0.0,0.0,0.0,0.0,0.0,3.3038,3.4252,3.4918,3.4404,3.3968,3.3431,3.2663,3.204,3.1324,3.0502,0.0,0.0,0.0,0.0,0.0,0.0,0.0,0.0,0.0,0.0,0.0,0.0,0.0,0.0,0.0,0.0,0.0,0.0,0.0,0.0,0.0,0.0,0.0,0.0,0.0,0.0,0.0,0.0,0.0,0.0,0.0,0.0,0.0,0.0,0.0,0.0,0.0,0.0,0.0,0.0,0.0,0.0,0.0,0.0,0.0,0.0,0.0,0.0,0.0,0.0,0.0,0.0,0.0,0.0,0.0,0.0,0.0,0.0,0.0,0.0,0.0,0.0,0.0,0.0,0.0,0.0,0.0,0.0,0.0,0.0,0.0,0.0,0.0,0.0,0.0,0.0,0.0,0.0,0.0,0.0,0.0,0.0,0.0,0.0,0.0,0.0,0.0,0.0,0.0,0.0,0.0,0.0,0.0,0.0,0.0,0.0,0.0,0.0,0.0,0.0,0.0,0.0,3.3008,3.3951,3.4508,3.424,3.3693,3.3066,3.2345,3.2239,3.1764,3.0705,0.0,0.0,0.0,0.0,0.0,0.0,0.0,0.0,0.0,0.0,0.0,0.0,0.0,0.0,0.0,0.0,0.0,0.0,0.0,0.0,0.0,0.0,0.0,0.0,0.0,0.0,0.0,0.0,0.0,0.0,0.0,0.0,0.0,0.0,0.0,0.0,0.0,0.0,0.0,0.0,0.0,0.0,0.0,0.0,0.0,0.0,0.0,0.0,0.0,0.0,0.0,0.0,0.0,0.0,0.0,0.0,0.0,0.0,0.0,0.0,0.0,0.0,0.0,0.0,0.0,0.0,0.0,0.0,0.0,0.0,0.0,0.0,0.0,0.0,0.0,0.0,0.0,0.0,0.0,0.0,0.0,0.0,0.0,0.0,0.0,0.0,0.0,0.0,0.0,0.0,0.0,0.0,0.0,0.0,0.0,0.0,0.0,0.0,0.0,0.0,0.0,0.0,3.2871,3.3435,3.3913,3.4153,3.329,3.2717,3.2768,3.2873,3.2561,3.1666,0.0,0.0,0.0,0.0,0.0,0.0,0.0,0.0,0.0,0.0,0.0,0.0,0.0,0.0,0.0,0.0,0.0,0.0,0.0,0.0,0.0,0.0,0.0,0.0,0.0,0.0,0.0,0.0,0.0,0.0,0.0,0.0,0.0,0.0,0.0,0.0,0.0,0.0,0.0,0.0,0.0,0.0,0.0,0.0,0.0,0.0,0.0,0.0,0.0,0.0,0.0,0.0,0.0,0.0,0.0,0.0,0.0,0.0,0.0,0.0,3.9274,3.8342,0.0,0.0,0.0,0.0,0.0,0.0,0.0,0.0,0.0,0.0,0.0,0.0,0.0,0.0,0.0,0.0,0.0,0.0,0.0,0.0,0.0,0.0,0.0,0.0,0.0,0.0,0.0,0.0,0.0,0.0,0.0,0.0,0.0,0.0,0.0,0.0,0.0,0.0,0.0,0.0,3.2441,3.37,3.4135,3.2749,3.2607,3.2188,3.1124,3.1847,3.2143,3.1635,3.2344,0.0,0.0,0.0,0.0,0.0,0.0,0.0,0.0,0.0,0.0,0.0,0.0,0.0,0.0,0.0,0.0,0.0,0.0,0.0,0.0,0.0,0.0,0.0,0.0,0.0,0.0,0.0,0.0,0.0,0.0,0.0,0.0,0.0,0.0,0.0,0.0,0.0,0.0,0.0,0.0,0.0,0.0,0.0,0.0,0.0,0.0,0.0,0.0,0.0,0.0,0.0,0.0,0.0,0.0,0.0,0.0,0.0,0.0,0.0,4.1601,4.0214,0.0,0.0,0.0,0.0,0.0,0.0,0.0,0.0,0.0,0.0,0.0,0.0,0.0,0.0,0.0,0.0,0.0,0.0,0.0,0.0,0.0,0.0,0.0,0.0,0.0,0.0,0.0,0.0,0.0,0.0,0.0,0.0,0.0,0.0,0.0,0.0,0.0,0.0,0.0,0.0,3.2852,3.3924,3.4316,3.3297,3.312,3.2712,3.1838,3.2282,3.2509,3.2228,3.26,0.0,0.0,0.0,0.0,0.0,0.0,0.0,0.0,0.0,0.0,0.0,0.0,0.0,0.0,0.0,0.0,0.0,0.0,0.0,0.0,0.0,0.0,0.0,0.0,0.0,0.0,0.0,0.0,0.0,0.0,0.0,0.0,0.0,0.0,0.0,0.0,0.0,0.0,0.0,0.0,0.0,0.0,0.0,0.0,0.0,0.0,0.0,0.0,0.0,0.0,0.0,0.0,0.0,4.8541,4.8826,4.8523,4.8421,4.7883,4.686,4.4038,4.2441,4.1844,4.1336,0.0,0.0,0.0,0.0,0.0,0.0,0.0,0.0,0.0,0.0,0.0,0.0,0.0,0.0,0.0,0.0,0.0,0.0,0.0,0.0,0.0,0.0,4.141,4.2364,4.2369,4.1847,4.0504,0.0,0.0,0.0,0.0,0.0,0.0,0.0,0.0,0.0,0.0,0.0,3.3425,3.422,3.4595,3.4215,3.387,3.3447,3.2911,3.3093,3.3126,3.2916,3.305,3.2664,0.0,0.0,0.0,0.0,0.0,0.0,0.0,0.0,0.0,0.0,0.0,0.0,0.0,0.0,0.0,0.0,0.0,0.0,0.0,0.0,0.0,0.0,0.0,0.0,0.0,0.0,0.0,0.0,0.0,0.0,0.0,0.0,4.3274,4.3413,0.0,0.0,0.0,0.0,0.0,0.0,0.0,0.0,0.0,0.0,0.0,0.0,0.0,4.9458,5.0193,5.1026,5.103,5.0313,5.1828,5.1742,5.0272,5.0193,4.9652,4.8718,4.7629,0.0,4.4504,4.3348,0.0,0.0,0.0,0.0,0.0,0.0,0.0,0.0,0.0,0.0,0.0,0.0,0.0,0.0,0.0,0.0,0.0,0.0,0.0,0.0,0.0,0.0,4.4043,4.3762,4.3109,4.2353,4.1682,4.1281,4.051,3.8779,3.8051,3.7248,0.0,0.0,0.0,0.0,0.0,0.0,3.3392,3.4675,3.51,3.3525,3.3652,3.3381,3.217,3.3067,3.3494,3.3033,3.3578,3.3751,3.3289,3.2707,0.0,0.0,0.0,0.0,0.0,0.0,0.0,0.0,0.0,0.0,0.0,0.0,0.0,0.0,0.0,0.0,0.0,0.0,0.0,0.0,0.0,0.0,0.0,0.0,0.0,0.0,0.0,0.0,0.0,4.3585,4.482,4.4776,4.4727,4.4583,0.0,0.0,0.0,0.0,0.0,0.0,0.0,0.0,0.0,5.1183,5.1266,5.1673,5.247,5.2813,5.2798,5.2378,5.3079,5.281,5.1678,5.1638,5.1145,5.0337,5.0009,4.9071,4.7738,4.634,4.517,4.4221,0.0,0.0,0.0,0.0,4.2784,4.2951,4.2884,4.2534,4.2121,4.2005,0.0,0.0,0.0,0.0,0.0,0.0,0.0,4.3945,4.4033,4.3983,4.3934,4.4095,4.3799,4.3365,4.2982,4.2655,4.1893,4.0339,4.0202,3.9767,3.7905,3.6947,0.0,0.0,0.0,3.5134,3.3862,3.5089,3.5593,3.4296,3.4215,3.3991,3.3351,3.3821,3.4085,3.4036,3.4327,3.4426,3.4266,3.3829,3.3487,0.0,0.0,0.0,0.0,0.0,0.0,0.0,0.0,0.0,0.0,0.0,0.0,0.0,0.0,0.0,0.0,0.0,0.0,0.0,0.0,0.0,0.0,0.0,0.0,0.0,0.0,0.0,0.0,4.5066,4.6336,4.6013,4.6546,4.6663,0.0,0.0,0.0,0.0,0.0,0.0,5.0579,5.116,5.1984,5.3124,5.3164,5.3553,5.4321,5.4389,5.4258,5.3964,5.398,5.3629,5.2866,5.2657,5.2203,5.1646,5.1415,5.0947,5.0238,4.887,4.7632,4.6704,4.6978,4.6569,4.5824,4.6234,4.6343,4.6307,4.6186,4.5805,4.5237,4.4744,4.4266,4.3826,4.3683,0.0,0.0,0.0,0.0,4.4637,4.4614,4.4448,4.4398,4.4877,4.4909,4.472,4.429,4.3952,4.334,4.1801,4.1922,4.1708,3.9948,3.8857,0.0,3.6238,3.6171,3.5913,3.4935,3.5709,3.6052,3.5227,3.4994,3.4807,3.457,3.4412,3.4499,3.4936,3.477,3.4795,3.5056,3.4905,3.466,3.4385,0.0,0.0,0.0,0.0,0.0,0.0,0.0,0.0,0.0,0.0,0.0,0.0,0.0,0.0,0.0,0.0,0.0,0.0,0.0,0.0,0.0,0.0,0.0,0.0,0.0,0.0,0.0,0.0,0.0,4.7056,4.9224,0.0,0.0,0.0,0.0,5.0752,5.085,5.1291,5.2137,5.2215,5.2986,5.4642,5.4741,5.5199,5.6087,5.6202,5.5857,5.5035,5.5077,5.4683,5.3902,5.3082,5.265,5.2569,5.1754,5.1365,5.1246,5.0268,4.9322,4.846,4.8294,4.821,4.8213,4.8043,4.7855,4.7697,4.7708,4.7484,4.7395,4.8115,4.8443,4.84,4.7564,4.7471,0.0,0.0,4.7308,4.7187,4.7064,4.6996,4.6965,4.6873,4.6859,4.6561,4.5444,4.5154,4.4515,4.2454,4.1952,4.1587,4.0781,0.0,3.9793,3.8218,3.7932,3.7609,3.6781,3.6774,3.6594,3.5923,3.5955,3.5741,3.5013,3.444,3.4476,3.5329,3.4667,3.4731,3.5788,3.5639,3.5637,3.5868,3.5404,0.0,0.0,0.0,0.0,0.0,0.0,0.0,0.0,0.0,0.0,0.0,0.0,0.0,0.0,0.0,0.0,0.0,0.0,0.0,0.0,0.0,0.0,0.0,0.0,0.0,0.0,0.0,0.0,4.8795,5.0527,0.0,5.0657,5.1256,5.171,5.1784,5.2789,5.3545,5.3906,5.4393,5.4974,5.5616,5.5667,5.5857,5.626,5.6293,5.5931,5.5097,5.4606,5.3914,5.3061,5.2203,5.1814,5.1777,5.1467,5.1352,5.1313,5.1012,5.0702,5.0407,5.0323,5.0295,5.0322,5.0201,5.0095,5.0043,4.9956,4.9504,4.8903,4.8536,4.845,4.8449,4.8034,4.7957,4.7956,4.7767,4.7556,4.7384,4.7391,4.7242,4.7092,4.7113,4.712,4.6866,4.5888,4.5447,4.487,4.3625,4.2941,4.2266,4.1364,4.0857,4.0146,3.8876,3.829,3.7681,3.6836,3.6678,3.6338,3.5539,3.5456,3.5298,3.4845,3.4654,3.4722,3.5184,3.5556,3.5966,3.6533,3.7059,3.7344,3.7335,3.671,3.6565,0.0,0.0,0.0,0.0,0.0,0.0,0.0,0.0,0.0,0.0,0.0,0.0,0.0,0.0,0.0,0.0,0.0,0.0,0.0,0.0,0.0,0.0,0.0,0.0,0.0,4.8446,4.9987,4.9613,5.1567,5.2653,5.1855,5.2721,5.3338,5.3378,5.4398,5.5055,5.5109,5.5629,5.593,5.5978,5.5982,5.6028,5.6155,5.5922,5.5408,5.4636,5.3843,5.3013,5.2182,5.1597,5.1329,5.1337,5.1344,5.1346,5.1307,5.1078,5.1169,5.1402,5.1396,5.1385,5.1406,5.1361,5.1331,5.1314,5.1208,5.0786,5.0226,4.9858,4.9501,4.9235,4.9393,4.9219,4.8918,4.876,4.8573,4.8354,4.8111,4.808,4.8071,4.789,4.8054,4.7902,4.6621,4.6094,4.5476,4.4248,4.3504,4.2789,4.1966,4.117,4.0502,3.9985,3.8791,3.7898,3.7754,3.7245,3.6696,3.6156,3.6122,3.6059,3.5924,3.569,3.5622,3.5807,3.6476,3.6992,3.7272,3.8147,3.8753,3.9106,3.8577,3.8326,3.8345,0.0,0.0,0.0,0.0,0.0,0.0,0.0,0.0,0.0,0.0,0.0,0.0,0.0,0.0,0.0,0.0,0.0,0.0,0.0,0.0,0.0,0.0,0.0,4.6963,4.9255,5.0571,4.959,5.2531,5.4309,5.3451,5.4798,5.5708,5.5708,5.5708,5.5708,5.5708,5.5708,5.5708,5.5703,5.5714,5.5753,5.5859,5.5153,5.4453,5.3777,5.2987,5.2183,5.1436,5.1397,5.1402,5.1406,5.1406,5.1406,5.1328,5.0547,5.0702,5.14,5.1366,5.1403,5.1425,5.1392,5.1415,5.137,5.1335,5.132,5.1474,5.2329,5.1916,5.1199,5.1904,5.145,5.065,5.0554,5.0457,5.0227,4.9454,4.9767,5.0092,4.9328,4.9704,4.9718,4.7626,4.7036,4.6263,4.4214,4.3471,4.3022,4.2462,4.1523,4.1017,4.1565,3.9543,0.0,3.9608,3.8591,3.7787,3.7937,3.8117,3.8261,3.8286,3.7595,3.7169,3.7198,3.7335,3.7667,3.8137,3.8886,3.9866,4.1102,4.1026,4.0549,3.9671,0.0,0.0,0.0,0.0,0.0,0.0,0.0,0.0,0.0,0.0,0.0,0.0,0.0,0.0,0.0,0.0,0.0,0.0,0.0,0.0,0.0,4.8872,4.9818,4.9719,5.0893,5.2112,5.3106,5.4496,5.5304,5.5147,5.5476,5.5708,5.5708,5.5708,5.5708,5.5708,5.5708,5.5687,5.5643,5.576,5.5577,5.5023,5.497,5.4544,5.3797,5.2931,5.2456,5.2237,5.1554,5.1295,5.1331,5.1339,5.1342,5.1304,5.1153,5.1206,5.1327,5.07,5.1239,5.2277,5.1643,5.14,5.139,5.1369,5.1732,5.2286,5.2404,5.2613,5.2848,5.2941,5.2295,5.1542,5.1453,5.0955,5.0369,5.0123,5.0187,5.0209,4.9841,4.9917,4.9536,4.7473,4.6855,4.6155,4.4297,4.3521,4.2905,4.1992,4.159,4.113,4.0445,3.9403,3.8868,3.9355,3.8809,3.843,3.8671,3.8883,3.876,3.8214,3.8116,3.7861,3.7295,3.7983,3.8813,3.9652,4.0526,4.1258,4.179,4.2344,4.2293,0.0,0.0,0.0,0.0,0.0,0.0,0.0,0.0,0.0,0.0,0.0,0.0,0.0,0.0,0.0,0.0,0.0,0.0,0.0,0.0,0.0,0.0,5.0826,5.1726,5.241,5.2928,5.3588,5.458,5.534,5.5787,5.5855,5.5776,5.5745,5.5745,5.5766,5.5797,5.5798,5.5842,5.5827,5.5689,5.5831,5.5734,5.5257,5.5058,5.4594,5.3846,5.2978,5.2417,5.2067,5.1547,5.1322,5.1343,5.1349,5.1351,5.1313,5.1006,5.1327,5.1873,0.0,0.0,0.0,0.0,5.2454,5.2441,5.2432,5.2707,5.3117,5.3395,5.3446,5.3421,5.3767,5.2892,5.1819,5.1787,5.1114,5.0401,5.0401,5.0303,5.0056,4.9569,4.9395,4.8799,4.6807,4.6195,4.5613,4.4175,4.3609,0.0,4.1655,4.1198,4.0934,4.0735,3.9561,3.9003,3.9781,3.9378,3.9093,3.9358,3.9586,3.9694,3.9665,3.9476,0.0,0.0,0.0,4.0372,4.1029,4.2348,0.0,0.0,0.0,4.359,4.2847,4.3583,0.0,0.0,4.2682,4.3034,0.0,0.0,0.0,0.0,0.0,0.0,0.0,0.0,0.0,0.0,0.0,0.0,0.0,0.0,0.0,0.0,5.2595,5.3171,5.4837,5.4967,5.4877,5.4877,5.5557,5.6064,5.6069,5.6088,5.6112,5.6112,5.6088,5.608,5.6076,5.6075,0.0,0.0,0.0,5.6005,5.5893,5.5258,5.4605,5.3899,5.3089,5.2366,5.1678,5.1482,5.1444,5.1523,5.1445,5.1406,5.1367,5.0741,5.1479,5.2998,5.3006,5.2922,5.2936,5.3824,5.4045,5.3913,5.3907,0.0,0.0,5.4727,5.4289,5.3663,5.4444,5.3364,5.1846,5.1908,5.1179,5.039,5.0367,5.0163,4.9789,4.8953,4.8565,4.7843,4.5993,4.5407,4.4984,4.3968,4.3569,4.2995,4.1596,4.0799,4.0645,4.1559,3.9824,3.8988,4.0401,4.0039,3.9766,4.0035,4.0277,0.0,4.1854,4.1277,4.1201,4.2025,4.2176,4.2303,4.2413,4.4108,4.4262,4.2612,4.4217,4.4621,4.3753,4.4608,4.5033,4.5025,4.4104,4.4079,0.0,0.0,0.0,0.0,0.0,0.0,0.0,0.0,0.0,0.0,0.0,0.0,0.0,0.0,0.0,5.3338,5.4119,5.4937,5.5948,5.6035,5.5946,5.585,5.6484,5.695,5.703,5.7641,5.807,5.807,5.7482,5.7102,5.7116,5.6463,5.6054,5.5962,5.6189,5.5978,5.52,5.5211,5.4784,5.3971,5.3101,0.0,5.3436,5.2023,5.1792,5.2422,5.1719,5.1406,5.1444,5.1987,5.3185,5.4723,5.4778,5.4389,5.3834,5.4731,5.4604,5.3961,5.3841,5.4242,5.4765,5.4776,5.4989,5.5314,5.5385,5.4111,0.0,5.27,5.1538,5.0265,5.0107,5.0025,4.9862,4.9303,4.8565,4.7644,4.6326,4.5522,4.4752,4.3747,4.3189,4.2749,4.2475,4.1753,4.0902,3.9815,3.9573,3.9613,3.9873,3.9948,4.0241,4.0875,4.1232,4.1757,4.2632,4.2818,4.3,4.3189,4.391,4.4327,4.4361,4.5336,4.5388,4.4403,4.5424,4.5513,4.4664,4.551,4.591,4.5862,4.5683,4.5618,0.0,0.0,0.0,0.0,0.0,0.0,0.0,0.0,0.0,0.0,0.0,5.1751,5.3077,0.0,5.4445,5.6157,5.677,5.7068,5.7047,5.7028,5.6787,5.6254,5.6896,5.7413,5.7433,5.8217,5.8718,5.8701,5.7946,5.7483,5.7498,5.6757,5.6246,5.6149,5.6377,5.6213,5.5645,5.5831,5.5503,5.4644,5.4212,5.4019,5.3984,5.3085,5.2929,5.328,5.242,5.2301,5.2764,5.3611,5.445,5.5246,5.5669,5.5598,5.5295,5.5662,5.553,5.512,5.5011,5.518,5.5447,5.5341,5.549,5.5698,5.5632,5.4346,5.2912,5.2912,5.157,5.0114,5.0012,4.9824,4.9363,4.8264,4.7535,4.6715,4.5295,4.472,4.4378,4.3942,4.3653,4.3401,4.3076,4.2762,4.2004,4.0353,4.0262,4.0284,4.0018,4.0835,4.1414,4.1409,4.1974,4.2702,4.3601,4.4403,4.4489,4.3611,4.4795,4.5354,4.4905,4.5707,4.5749,4.4919,4.572,4.5944,4.5515,4.5885,4.608,4.5981,4.5978,4.5914,0.0,0.0,0.0,0.0,0.0,0.0,0.0,5.0597,5.1195,5.2413,5.2652,5.3358,5.5625,5.6053,5.6712,5.8778,5.9078,5.8786,5.8098,5.8008,5.7726,5.6945,5.7442,5.7909,5.8104,5.8862,5.9346,5.9323,5.8434,5.7885,5.7905,5.7017,5.6475,5.6349,5.6516,5.6526,5.6347,5.6506,5.6249,5.5546,5.539,5.5039,5.4492,5.4138,5.4098,5.4215,5.3312,5.3421,5.4269,5.4948,5.5274,5.5484,5.6111,5.6422,5.6439,5.6315,5.6251,5.623,5.6094,5.6005,5.5913,5.5882,5.574,5.5632,5.5582,5.4357,5.2918,5.2871,5.1472,4.9966,4.9886,4.9476,4.8704,4.7247,4.6504,4.5737,4.4375,4.4066,4.4117,4.4199,4.4179,4.4011,4.3459,4.3408,4.294,4.1562,4.134,4.1201,4.0802,4.1914,4.2492,4.1858,4.2522,4.3389,4.4449,4.5528,4.5538,4.4151,4.5362,4.5839,4.5115,4.5766,4.5807,4.5122,4.5712,4.6076,4.6063,4.5993,4.595,4.5888,4.5792,4.5722,4.7055,4.8228,4.9892,5.0661,5.106,5.2022,0.0,5.4622,5.4242,5.667,5.7183,5.7499,5.8555,5.875,5.8867,5.914,5.9179,5.914,5.9061,5.9022,5.8983,5.8904,5.8796,5.9078,5.9817,6.0731,6.1307,6.1305,5.9815,5.8935,5.8936,5.7458,5.6599,5.6557,5.6582,5.659,5.6586,5.6599,5.6562,5.6444,5.5662,5.5661,5.6243,5.4719,5.4406,5.5109,5.4236,5.4337,5.5063,5.515,5.5608,5.621,5.6295,5.629,5.6246,5.6218,5.6161,5.6089,5.5966,5.5917,5.5884,5.5748,5.5724,5.5687,5.5632,5.438,5.2941,5.2692,5.137,4.9899,4.9491,4.8812,4.8119,4.7682,4.6466,4.5374,4.518,4.4737,4.4327,4.4308,4.3961,4.3647,4.3583,4.3144,4.2683,4.2295,4.2438,4.2553,4.2466,4.2649,4.2716,4.2519,4.2813,4.3439,4.4515,4.5437,4.5861,4.5667,4.5825,4.5905,4.5792,4.5892,4.5906,4.5792,4.5861,4.5908,4.5932,4.5914,4.5893,4.5821,4.5742,4.5677,5.0766,5.1201,5.1658,5.2566,5.3967,5.5391,5.6371,5.6419,5.6663,5.8272,5.8628,5.8904,5.9726,5.9883,6.0078,6.0585,6.0664,6.0469,5.996,5.9882,5.9882,5.9919,5.9819,5.9908,6.0295,6.1116,6.166,6.1651,6.0538,5.9648,5.9131,5.7942,5.7091,5.6623,5.7067,5.707,5.6601,5.7108,5.7105,5.6596,5.6155,5.6145,5.6452,5.5679,5.5266,5.5137,5.5264,5.5243,5.5112,5.5584,5.5969,5.6223,5.6202,5.6129,5.6019,5.6017,5.6009,5.5956,5.5817,5.5788,5.5758,5.573,5.5708,5.5605,5.4977,5.3875,5.2678,5.1921,5.0719,4.9551,4.9345,4.8546,4.7657,4.7019,4.6054,4.516,4.4766,4.4655,4.4667,4.4719,4.4597,4.452,4.4598,4.4363,4.4199,4.4092,4.3769,4.3319,4.2807,4.3624,4.4271,4.4288,4.4478,4.4565,4.453,4.5354,4.5654,4.5168,4.558,4.586,4.5896,4.5893,4.5899,4.5917,4.5863,4.5829,4.5783,4.5772,4.5746,4.5665,4.5603,4.5547,5.24,5.3026,5.3529,5.4419,5.6395,5.8011,5.7425,5.7741,5.8411,5.9274,5.9473,5.9748,6.0524,6.0646,6.0843,6.1501,6.1584,6.1394,6.0775,6.0699,6.07,6.0702,6.0703,6.0742,6.0742,6.1315,6.1719,6.1706,6.0868,6.0095,5.9462,5.8589,5.7734,5.6914,5.7455,5.7486,5.6898,5.7514,5.7507,5.6878,5.677,5.6594,5.6354,5.6333,5.5976,5.5408,5.6044,5.5952,5.5399,5.5984,5.6174,5.6159,5.6074,5.5981,5.5856,5.5842,5.5837,5.5823,5.5745,5.5708,5.5708,5.5708,5.5671,5.5418,5.4423,5.3423,5.2359,5.1277,5.0154,4.9273,4.9176,4.8381,4.7422,4.6586,4.5903,4.523,4.4517,4.4661,4.495,4.5045,4.5148,4.5235,4.5277,4.5283,4.5283,4.5283,4.4743,4.4164,4.3558,4.4567,4.536,4.5448,4.5565,4.5425,4.482,4.537,4.548,4.4871,4.5402,4.5768,4.5822,4.5838,4.5838,4.5822,4.5786,4.5843,4.604,4.5768,4.5868,4.626,4.5965,4.5765,5.0082,5.2575,5.5339,5.6191,5.7769,5.9064,5.9025,5.9055,5.9275,6.0118,6.0256,6.0465,6.1159,6.1269,6.1269,6.1308,6.1308,6.1318,6.1341,6.1441,6.1454,6.1454,6.1527,6.1547,6.1547,6.164,6.1693,6.1719,6.0814,6.0273,6.0273,5.9439,5.8551,5.7603,5.7587,5.7608,5.7589,5.7606,5.7585,5.7559,5.7556,5.7115,5.6316,5.6314,5.6272,5.6269,5.6278,5.6266,5.626,5.623,5.6156,5.607,5.5977,5.5842,5.5792,5.5735,5.5714,5.5714,5.5708,5.5708,5.5708,5.5708,5.5587,5.5229,5.4306,5.3218,5.2073,5.0937,4.9976,4.9217,4.891,4.8273,4.7524,4.6772,4.618,4.5591,4.4915,4.501,4.5186,4.5192,4.524,4.5283,4.5283,4.5283,4.5283,4.5283,4.5283,4.5244,4.5244,4.5329,4.5385,4.54,4.5457,4.5489,4.5451,4.5538,4.5586,4.546,4.5577,4.5603,4.5607,4.5607,4.5607,4.5607,4.5603,4.6018,4.6855,4.593,4.633,4.7895,4.698,4.6585,5.1931,5.4273,5.6563,5.8562,5.9914,6.0674,6.0621,6.0573,6.0567,6.0889,6.055,6.0241,6.0456,6.0508,6.0482,6.0518,6.0999,6.1408,6.147,6.1534,6.1586,6.1586,6.1597,6.1609,6.158,6.1581,6.1599,6.164,6.1285,6.0849,6.0311,5.9961,5.9404,5.8496,5.8994,5.9,5.8403,5.8982,5.8971,5.8373,5.777,5.7271,5.6951,5.6373,5.6102,5.6102,5.6087,5.6083,5.6114,5.6097,5.6055,5.6016,5.588,5.5822,5.5787,5.573,5.5708,5.5708,5.5708,5.5682,5.5632,5.5514,5.5445,5.5008,5.3321,5.2496,5.1775,5.014,4.9376,4.9002,4.891,4.8183,4.7368,4.68,4.6158,4.5669,4.5659,4.546,4.5404,4.5977,4.5649,4.5283,4.5283,4.5283,4.5283,4.5283,4.5283,4.5283,4.5283,4.5373,4.5385,4.54,4.5452,4.5532,4.5564,4.5555,4.555,4.5568,4.5555,4.5559,4.559,4.6163,4.6471,4.6471,4.6939,4.7343,4.7612,4.7324,4.7452,4.7984,4.7,4.6762,5.388,5.596,5.7877,6.0126,6.1032,6.139,6.1331,6.1269,6.1204,6.1204,6.0551,5.9965,5.9921,5.995,5.9865,5.9561,6.0524,6.1334,6.1367,6.1445,6.158,6.1873,6.1656,6.159,6.1907,6.1614,6.1478,6.155,6.1522,6.1272,6.075,6.0623,6.0188,5.9316,5.9756,5.9749,5.9184,5.9735,5.9735,5.9184,5.8261,5.764,5.7284,5.6704,5.6278,5.6008,5.6008,5.6008,5.6003,5.5993,5.6005,5.5943,5.5822,5.5782,5.5756,5.5719,5.5665,5.561,5.561,5.5543,5.5485,5.5301,5.4935,5.4289,5.259,5.1757,5.1069,4.9513,4.8979,4.8866,4.8787,4.8308,4.7706,4.7242,4.6802,4.6445,4.6241,4.5946,4.5759,4.6009,4.5617,4.5219,4.5219,4.524,4.5251,4.5251,4.5272,4.5283,4.5283,4.5373,4.5418,4.5414,4.5443,4.5528,4.5541,4.5546,4.555,4.5568,4.5858,4.6016,4.6047,4.6876,4.7285,4.7285,4.7775,4.813,4.8442,4.8112,4.8262,4.8816,4.7737,4.7458,5.5664,5.7441,5.9248,6.0808,6.1179,6.1172,6.1161,6.1159,6.1099,6.097,6.0262,5.9645,5.9452,5.9523,5.9392,5.8665,6.0031,6.1209,6.1293,6.134,6.1636,6.2409,6.1775,6.1613,6.2344,6.1801,6.1415,6.1463,6.1491,6.1481,6.1483,6.1379,6.0911,6.0099,6.0011,5.9964,5.9962,5.9962,5.9962,5.9957,5.9072,5.8217,5.7439,5.7323,5.6859,5.6046,5.6008,5.6008,5.5999,5.5993,5.5943,5.5895,5.5807,5.5751,5.5698,5.5692,5.5537,5.5358,5.5345,5.5351,5.532,5.5002,5.4193,5.3186,5.21,5.1075,5.0081,4.9071,4.8796,4.8742,4.8541,4.8532,4.8474,4.8008,4.7977,4.7761,4.6695,4.6405,4.6157,4.542,4.5158,4.5085,4.5091,4.5142,4.5186,4.5192,4.5279,4.5354,4.5321,4.5367,4.5403,4.5403,4.5458,4.5457,4.541,4.5532,4.5564,4.5557,4.64,4.6919,4.6957,4.7684,4.8044,4.8044,4.81,4.8491,4.9262,4.8433,4.8794,5.0253,4.9112,4.8555,5.6509,5.8269,5.9869,6.0949,6.1087,6.0896,6.0619,6.041,6.0083,5.924,5.8536,5.7934,5.7372,5.8002,5.8742,5.931,6.0876,6.2254,6.2958,6.2556,6.2271,6.2482,6.1805,6.1387,6.1573,6.1956,6.1962,6.1405,6.1338,6.1352,6.1352,6.1283,6.1139,6.0898,6.0811,6.0779,6.0809,6.0809,6.0809,6.077,5.9957,5.9455,5.9184,5.7903,5.7168,5.6936,5.6278,5.5986,5.5989,5.5938,5.5909,5.589,5.5766,5.5665,5.552,5.5431,5.5231,5.5002,5.4731,5.4843,5.504,5.4784,5.4055,5.3112,5.1935,5.0916,4.9957,4.9053,4.8742,4.8642,4.8587,4.8532,4.8384,4.7816,4.7694,4.7705,4.7612,4.6638,4.5934,4.6382,4.548,4.4707,4.4839,4.4944,4.5022,4.5114,4.5753,4.5998,4.5392,4.5298,4.5319,4.5403,4.5428,4.5419,4.5405,4.5429,4.5707,4.634,4.6618,4.7045,4.7693,4.8488,4.8905,4.8905,4.9499,4.9888,5.0079,4.9754,4.9732,4.991,4.8926,4.8559,5.7781,5.9118,6.0234,6.058,6.0583,6.0278,5.964,5.9368,5.9009,5.8032,5.7271,5.6706,5.648,5.7347,5.8346,5.9014,6.0973,6.2675,6.3578,6.3356,6.3214,6.3567,6.2534,6.2116,6.2869,6.2615,6.2416,6.2361,6.2035,6.165,6.1291,6.1169,6.1123,6.1123,6.1075,6.1046,6.1046,6.1046,6.106,6.1046,6.0597,6.021,5.9814,5.8814,5.8143,5.7757,5.7255,5.7047,5.7019,5.6643,5.6454,5.6326,5.583,5.5514,5.5376,5.5217,5.4974,5.4739,5.4474,5.4487,5.4565,5.4414,5.3757,5.2876,5.212,5.1287,5.0472,4.988,4.939,4.9094,4.9048,4.8733,4.8347,4.8148,4.8061,4.8073,4.8004,4.7289,4.6548,4.63,4.5513,4.4939,4.5132,4.5508,4.5808,4.5918,4.6467,4.671,4.6294,4.632,4.6396,4.6466,4.6492,4.648,4.6511,4.6536,4.6737,4.7231,4.7619,4.8002,4.8496,4.9318,4.9723,4.9723,5.0105,5.0248,5.0125,5.0025,4.9848,4.9512,4.8897,4.8621,5.9141,5.9843,6.0354,6.0044,5.9915,5.9576,5.8534,5.8279,5.7981,5.6991,5.6244,5.5804,5.595,5.6941,5.7907,5.8506,6.0735,6.2738,6.3835,6.3965,6.4211,6.4924,6.3598,6.322,6.4687,6.351,6.2915,6.3623,6.3037,6.2205,6.1246,6.1056,6.1012,6.1007,6.0995,6.0997,6.0992,6.0992,6.1018,6.0992,6.1018,6.0632,5.9949,5.9783,5.9295,5.8557,5.8441,5.8402,5.8315,5.76,5.7142,5.6846,5.5939,5.5447,5.5177,5.4938,5.4708,5.4525,5.4389,5.4239,5.4046,5.401,5.3395,5.2641,5.2465,5.1833,5.1156,5.0954,5.039,4.9818,4.963,4.905,4.852,4.8633,4.8659,4.8554,4.8145,4.79,4.7321,4.5778,4.5488,4.5534,4.5686,4.6353,4.6877,4.6966,4.7305,4.7535,4.7535,4.7691,4.7766,4.7766,4.7821,4.7854,4.7854,4.794,4.801,4.813,4.8782,4.9241,4.9351,4.9986,5.0367,5.0294,5.0194,5.0,4.9749,4.9665,4.9469,4.915,4.8902,4.8729,5.9712,5.999,6.0098,5.975,5.961,5.9293,5.8153,5.7716,5.7111,5.5473,5.5078,5.4904,5.4415,5.5354,5.6922,5.9193,6.0773,6.2599,6.5023,6.4916,6.4711,6.4981,6.4111,6.3608,6.3913,6.4245,6.4214,6.3645,6.3373,6.2595,6.1104,6.1051,6.1046,6.1007,6.0992,6.1005,6.0992,6.0992,6.0997,6.1008,6.0997,6.092,6.0776,6.0033,5.9603,5.9449,5.8711,5.8382,5.8286,5.7976,5.7345,5.6569,5.621,5.5533,5.4715,5.4522,5.4355,5.4189,5.4091,5.3963,5.386,5.3963,5.3395,5.2641,5.2465,5.1785,5.107,5.0944,5.0772,5.0455,4.9794,4.949,4.9206,4.852,4.8382,4.8364,4.8273,4.7721,4.6976,4.599,4.5905,4.6009,4.6161,4.6421,4.6685,4.684,4.769,4.8294,4.8294,4.7928,4.7644,4.7644,4.7697,4.7732,4.7732,4.7788,4.8127,4.8865,4.9056,4.9377,5.0013,5.0153,5.012,4.9841,4.9814,4.9658,4.9394,4.9302,4.915,4.8876,4.8755,4.8596,5.9505,5.9622,5.9592,5.9279,5.9206,5.8774,5.7134,5.6675,5.6117,5.4343,5.4025,5.4017,5.3823,5.4731,5.6174,5.8046,5.9573,6.1428,6.3943,6.4411,6.4746,6.5457,6.4624,6.4254,6.4849,6.4654,6.4426,6.427,6.4139,6.3361,6.1648,6.1185,6.0943,6.0916,6.0916,6.0883,6.0821,6.0821,6.0821,6.0821,6.0825,6.0825,6.0821,6.0358,6.0186,6.0154,5.9725,5.9462,5.9256,5.8764,5.8196,5.7481,5.649,5.5736,5.5111,5.4475,5.4143,5.4046,5.3944,5.3869,5.3794,5.3888,5.3609,5.3199,5.3008,5.2621,5.2217,5.2106,5.175,5.1242,5.0435,5.0225,5.0004,4.9197,4.8976,4.8976,4.8976,4.8003,4.7003,4.6608,4.6572,4.6801,4.7333,4.7875,4.8388,4.8964,4.9218,4.9516,4.9998,4.9514,4.9064,4.8916,4.8927,4.8945,4.8945,4.8976,4.9184,4.9571,4.961,4.9788,5.0139,4.9993,4.9868,4.9686,4.9528,4.9324,4.9031,4.8978,4.879,4.8541,4.8504,4.8402,5.9165,5.9401,5.9597,5.9082,5.8979,5.8439,5.6303,5.5781,5.5312,5.3597,5.3225,5.325,5.3457,5.4204,5.5211,5.6527,5.8089,5.998,6.2515,6.3525,6.4509,6.5851,6.5077,6.4852,6.589,6.4992,6.4534,6.4941,6.4666,6.3866,6.244,6.1683,6.1219,6.1033,6.1225,6.1195,6.0942,6.0942,6.0942,6.0942,6.0725,6.0617,6.0667,6.061,6.0565,6.0539,6.0539,6.0387,6.0119,5.9457,5.8912,5.8386,5.6907,5.6161,5.5743,5.4706,5.4429,5.4457,5.4186,5.4054,5.4053,5.4053,5.3883,5.3684,5.3558,5.341,5.3287,5.3209,5.2747,5.205,5.1279,5.1059,5.0839,5.0041,4.9858,4.9858,4.9858,4.882,4.7883,4.7883,4.7883,4.8132,4.8879,4.9543,5.0208,5.0958,5.0667,5.0608,5.1349,5.1039,5.0616,5.0413,5.0261,5.0219,5.0252,5.0119,5.0012,5.0012,5.0164,5.0176,4.9926,5.005,4.9995,4.9747,4.968,4.952,4.9231,4.8983,4.8873,4.881,4.8673,4.86,5.9102,5.9941,6.0752,5.9623,5.9363,5.8725,5.6322,5.5607,5.4975,5.3353,5.2926,5.285,5.2883,5.3049,5.3792,5.5613,5.6857,5.8747,6.2013,6.2981,6.4037,6.5777,6.5322,6.513,6.585,6.5461,6.5207,6.5251,6.4297,6.3573,6.3297,6.3091,6.2606,6.1805,6.2567,6.2574,6.171,6.171,6.171,6.171,6.093,6.0585,6.0629,6.0585,6.0513,6.0314,6.0314,6.0223,6.0084,5.9622,5.8974,5.8165,5.7679,5.6993,5.6228,5.5389,5.5556,5.6058,5.5313,5.4955,5.4788,5.4788,5.4306,5.3684,5.3558,5.341,5.3287,5.3209,5.3141,5.2884,5.2087,5.1877,5.1693,5.0875,5.0692,5.0692,5.0692,5.0582,5.0472,5.0472,5.0472,5.0508,5.0555,5.0698,5.0831,5.0915,5.1055,5.124,5.1315,5.1374,5.1393,5.1378,5.0898,5.0613,5.0718,5.0126,4.9752,4.9752,5.0419,5.0371,4.9338,5.0662,5.0944,4.9895,5.062,5.0897,5.0595,4.987,4.9887,5.0545,4.9821,4.95,5.8507,5.9707,6.0818,6.0262,5.9819,5.8946,5.6782,5.5896,5.5034,5.3233,5.2828,5.2794,5.2794,5.2839,5.3324,5.4721,5.5728,5.7256,5.9953,6.0988,6.2158,6.4153,6.398,6.4264,6.5771,6.5571,6.5459,6.5686,6.5236,6.4701,6.4145,6.3379,6.287,6.2612,6.2957,6.2924,6.2518,6.2518,6.216,6.1438,6.1614,6.1073,5.9953,6.0477,6.0399,5.9812,5.9812,5.9689,5.9505,5.9408,5.9084,5.8576,5.7947,5.7496,5.7027,5.6217,5.6094,5.6296,5.5892,5.575,5.5636,5.4976,5.4576,5.4196,5.3558,5.3297,5.323,5.3225,5.3214,5.2994,5.2197,5.1987,5.206,5.2223,5.1867,5.1499,5.1499,5.1132,5.0802,5.0802,5.0802,5.0949,5.1426,5.153,5.1744,5.2212,5.1946,5.1908,5.2447,5.2118,5.2065,5.2536,5.1709,5.1166,5.1232,5.0936,5.0764,5.0764,5.1102,5.1074,5.0605,5.1076,5.1138,5.0704,5.0857,5.0922,5.0802,5.0472,5.0442,5.0674,5.0344,5.0157,5.7814,5.9296,6.0611,6.0354,5.9797,5.8811,5.6928,5.5811,5.479,5.3456,5.3032,5.3017,5.3235,5.3365,5.3622,5.425,5.5211,5.6545,5.8352,5.9474,6.0789,6.2649,6.2616,6.3093,6.4868,6.5203,6.5574,6.6154,6.6019,6.5706,6.5238,6.4194,6.3456,6.3176,6.3405,6.3383,6.3108,6.3108,6.2641,6.1827,6.2113,6.1556,6.0239,6.0645,6.043,5.9782,5.9556,5.9308,5.9064,5.914,5.9061,5.8852,5.8269,5.7995,5.7783,5.6975,5.6756,5.6877,5.6535,5.6424,5.637,5.5613,5.5033,5.4485,5.3839,5.3424,5.3214,5.3214,5.3361,5.3361,5.2564,5.2527,5.2784,5.3104,5.2784,5.2344,5.2344,5.1903,5.1489,5.1489,5.1489,5.1756,5.2564,5.2711,5.2968,5.3812,5.3225,5.2926,5.355,5.2898,5.2641,5.323,5.272,5.2187,5.1794,5.1542,5.1431,5.1431,5.1608,5.1609,5.1305,5.1629,5.1671,5.1449,5.147,5.1448,5.1448,5.1161,5.1099,5.1245,5.0999,5.0795,5.7079,5.8784,6.0266,5.9671,5.9051,5.8217,5.6641,5.5205,5.4151,5.4018,5.3603,5.3517,5.4272,5.4663,5.4736,5.4267,5.5553,5.6857,5.7601,5.8919,6.0331,6.173,6.1504,6.1682,6.2908,6.4312,6.5544,6.6618,6.6366,6.6359,6.6656,6.5899,6.4797,6.3351,6.4077,6.4115,6.3313,6.3313,6.3276,6.3276,6.2418,6.1994,6.1937,6.1173,6.0697,6.0445,5.9666,5.9187,5.8984,5.895,5.8889,5.8879,5.8739,5.8625,5.8381,5.7603,5.7751,5.8245,5.7385,5.7051,5.7,5.7,5.582,5.4399,5.4399,5.3838,5.3214,5.3214,5.3765,5.4216,5.3398,5.3775,5.4179,5.3398,5.3177,5.3177,5.3177,5.3177,5.3177,5.3177,5.3177,5.3434,5.4252,5.4363,5.4656,5.5438,5.4887,5.4363,5.4399,5.3691,5.3177,5.3214,5.3885,5.3839,5.248,5.1657,5.1213,5.1213,5.1953,5.1902,5.0859,5.2344,5.2784,5.2024,5.2642,5.2991,5.2991,5.2032,5.2003,5.2758,5.1967,5.1446,5.6129,5.764,5.8843,5.8674,5.8044,5.7142,5.6092,5.5065,5.4158,5.358,5.3433,5.3482,5.3539,5.4135,5.4674,5.5038,5.5849,5.683,5.7893,5.8895,6.0122,6.1762,6.3891,6.5178,6.5013,6.6442,6.7051,6.6233,6.6644,6.6742,6.631,6.6049,6.5593,6.4973,6.4662,6.436,6.4134,6.4134,6.3738,6.296,6.3278,6.2755,6.1419,6.1195,6.0706,6.0048,5.9238,5.8862,5.8801,5.876,5.8739,5.8777,5.8708,5.8667,5.8588,5.8254,5.8275,5.8406,5.7995,5.7899,5.7836,5.7107,5.6533,5.6051,5.5423,5.4289,5.3324,5.3885,5.4583,5.5144,5.4913,5.5034,5.5144,5.4913,5.4436,5.4179,5.473,5.4399,5.4179,5.473,5.484,5.4924,5.5181,5.5218,5.5328,5.5548,5.5365,5.5218,5.5218,5.4997,5.484,5.484,5.5071,5.4589,5.3066,5.3224,5.315,5.2588,5.2819,5.2804,5.2443,5.292,5.3036,5.2679,5.2892,5.2948,5.2861,5.2561,5.2417,5.236,5.2098,5.1813,5.5134,5.6387,5.7276,5.7355,5.6807,5.6108,5.5643,5.4715,5.4028,5.4091,5.4069,5.4142,5.4562,5.5215,5.5703,5.5822,5.6503,5.7248,5.7935,5.9124,6.06,6.2387,6.4645,6.6038,6.5961,6.7147,6.7617,6.6937,6.7417,6.7528,6.7045,6.6711,6.6473,6.6303,6.5199,6.4609,6.4609,6.4309,6.3794,6.3099,6.3659,6.3291,6.2105,6.177,6.1187,6.0322,5.9505,5.8985,0.0,5.8687,5.8667,5.8625,5.8625,5.8582,5.8497,5.8422,5.8367,5.8312,5.8167,5.8167,5.8127,5.7455,5.7087,5.6765,5.5864,5.4913,5.4216,5.4693,5.5427,5.5978,5.5695,5.5842,5.5978,5.5658,5.5218,5.4987,5.5475,5.5218,5.4997,5.5511,5.5585,5.5695,5.5978,5.6051,5.6172,5.6466,5.6246,5.6051,5.6051,5.5724,5.5519,5.5519,5.5767,5.5367,5.4074,5.4492,5.462,5.4142,5.3758,5.359,5.359,5.3254,5.3017,5.2915,5.2872,5.2817,5.2739,5.2683,5.2501,5.215,5.1921,5.1674,0.0,5.4972,5.5582,5.5791,5.54,5.5039,5.5238,5.4235,0.0,5.5182,5.5136,5.5243,5.6554,5.7289,5.7363,5.6491,5.7239,5.7927,5.792,5.9704,6.1675,6.34,6.4179,6.4931,6.5983,6.6642,6.742,6.842,6.8481,6.8531,6.8556,6.7825,6.7379,6.7379,6.5819,6.4965,6.4891,6.4073,6.3702,6.3665,6.3628,6.359,6.3553,6.2773,6.2004,6.1224,6.0311,5.9457,5.8751,5.8704,5.8604,5.8508,5.8508,5.8378,5.819,5.819,5.8111,5.7997,5.7997,5.7985,5.7973,5.7985,5.7471,5.6737,5.5978,5.5721,5.5695,5.5695,5.6271,5.6701,5.5952,5.6345,5.6712,5.5952,5.5732,5.5695,5.5768,5.5732,5.5695,5.5768,5.5768,5.6025,5.6748,5.6884,5.7141,5.7875,5.7361,5.6884,5.6861,5.6122,5.5578,5.5567,5.611,5.6185,5.5431,5.5539,5.5625,5.56,5.4745,5.4275,5.4275,5.3434,5.2977,5.2966,5.2806,5.2702,5.2665,5.2564,5.2365,5.1993,5.1551,5.1218,5.2909,0.0,5.4025,5.4076,5.3974,5.3889,0.0,5.3701,5.3579,5.4058,5.4177,5.4297,5.4641,5.5652,5.6277,5.5875,5.6765,5.7838,5.877,6.1494,6.353,6.3874,6.5764,6.6662,6.573,6.7161,6.8136,6.8184,6.8383,6.8704,6.9236,6.8581,6.8233,6.8233,6.7231,6.6413,6.5782,6.4965,6.4519,6.4519,6.3888,6.359,6.3553,6.2773,6.229,6.203,6.0495,5.9721,5.9488,5.8772,5.8459,5.8437,5.8437,5.8404,5.8338,5.8249,5.8111,5.7997,5.7997,5.7869,5.7691,5.7822,5.7769,5.7643,5.7368,5.6926,5.6528,5.6528,5.7116,5.7666,5.7483,5.7593,5.7666,5.7483,5.6969,5.6675,5.7299,5.6969,5.6712,5.7299,5.7446,5.7494,5.7703,5.7703,5.7742,5.7832,5.7755,5.7634,5.7447,5.7299,5.719,5.7095,5.7242,5.7255,5.7036,5.6536,5.595,5.5329,5.5087,5.4955,5.4955,5.475,5.4572,5.4479,5.4158,5.3712,5.3147,5.2854,5.2231,5.1267,5.114,5.091,5.2976,5.3179,5.3501,5.3584,5.3534,5.3534,5.3584,5.3534,5.3618,5.4026,5.4203,5.4438,5.5039,5.6099,5.6837,5.6555,5.7793,5.9322,6.0831,6.2903,6.4525,6.5211,6.6602,6.7293,6.6738,6.7741,6.8371,6.8296,6.842,6.8618,6.8926,6.8618,6.8383,6.8321,6.7877,6.7345,6.6673,6.5819,6.5188,6.4779,6.4313,6.3882,6.3474,6.3009,6.2567,6.216,6.1203,6.0589,6.0219,5.9708,5.9246,5.8869,5.8869,5.8544,5.8111,5.8042,5.7939,5.7834,5.7834,5.7739,5.7595,5.7667,5.7775,5.7822,5.7714,5.7398,5.7093,5.714,5.7493,5.7834,5.7834,5.7869,5.7916,5.7916,5.762,5.7483,5.7923,5.7666,5.7483,5.7923,5.795,5.7916,5.7916,5.7869,5.781,5.7739,5.7786,5.7738,5.7607,5.7595,5.7571,5.751,5.7437,5.7412,5.7412,5.7037,5.6612,5.6331,5.5895,5.5677,5.5677,5.5254,5.4918,5.4627,5.4416,5.3854,5.2876,5.2708,5.2033,5.091,5.0789,5.0592,5.3482,5.3651,5.382,5.38,5.3734,5.3735,5.3832,5.3833,5.393,5.4513,5.4699,5.5099,5.6308,5.7361,5.7968,5.7824,5.9432,6.1337,6.3002,6.4095,6.5177,6.6478,6.6974,6.7456,6.802,6.8234,6.8433,6.8643,6.8556,6.8507,6.8481,6.837,6.8246,6.8121,6.8095,6.7888,6.743,6.6515,6.5735,6.5092,6.4628,6.4099,6.3532,6.3316,6.285,6.2186,6.2014,6.1597,6.0932,6.0651,6.0151,5.9555,5.9407,5.8791,5.7993,5.7993,5.7788,5.7559,5.7534,5.7547,5.7583,5.7559,5.7571,5.7583,5.7534,5.7449,5.7375,5.7449,5.751,5.7559,5.7559,5.7655,5.7786,5.7786,5.7869,5.7939,5.7939,5.8049,5.8122,5.8122,5.815,5.8116,5.7969,5.7874,5.7765,5.7741,5.7753,5.7826,5.7887,5.7813,5.7751,5.7726,5.7626,5.7514,5.7369,5.7369,5.7409,5.7425,5.6782,5.6322,5.626,5.5558,5.4948,5.4454,5.4401,5.3798,5.2628,5.2609,5.2023,5.0962,5.0745,5.0547,5.3368,5.4264,5.5122,5.4452,5.4394,5.4554,5.4691,5.4922,5.5074,5.4872,5.5069,5.5578,5.6549,5.7476,5.8234,5.8633,6.0692,6.2541,6.3272,6.4924,6.6066,6.597,6.7036,6.7817,6.7915,6.8259,6.8717,6.9297,6.8841,6.8729,6.9309,6.8667,6.8284,6.8271,6.817,6.8071,6.7998,6.6507,6.6026,6.6544,6.4413,6.3698,6.4216,6.3527,6.3146,6.2949,6.219,6.1774,6.1541,6.0062,5.9757,6.0186,5.9488,5.9064,5.8823,5.8823,5.8239,5.7412,5.7289,5.74,5.7571,5.7461,5.7498,5.7547,5.7326,5.7239,5.7176,5.6972,5.7163,5.7425,5.7425,5.7522,5.7619,5.7619,5.7631,5.7643,5.7643,5.819,5.8689,5.8689,5.9212,5.9455,5.8774,5.864,5.8591,5.8443,5.853,5.8773,5.9235,5.9359,5.9408,5.9256,5.9253,5.8963,5.8275,5.8202,5.7784,5.6822,5.694,5.6881,5.6531,5.6419,5.6134,5.5645,5.5355,5.4737,5.3728,5.3534,5.2839,5.1733,5.1687,5.1581,5.4225,5.4913,5.5789,5.655,5.6581,5.647,5.6725,5.6864,5.6723,5.6103,5.6106,5.6601,5.7833,5.8683,5.9826,6.1851,6.2978,6.3798,6.4492,6.5367,6.6163,6.672,6.7497,6.8283,6.9021,6.9451,6.9779,7.0008,6.9433,6.9124,6.9276,6.8524,6.8055,6.7978,6.7926,6.7899,6.7899,6.6708,6.638,6.69,6.5669,6.5078,6.4967,6.4549,6.4119,6.364,6.3223,6.2782,6.2292,6.1496,6.1104,6.1006,6.0639,6.0115,5.9481,5.8894,5.8647,5.846,5.7503,5.7516,5.7831,5.7346,5.7163,5.7138,5.701,5.7244,5.749,5.7393,5.7267,5.7163,5.7087,5.7226,5.7375,5.7375,5.7752,5.8153,5.8215,5.8883,5.9467,5.9467,5.9695,5.9754,5.939,5.9267,5.919,5.9162,5.9177,5.931,5.9556,5.9602,5.9602,5.9602,5.9322,5.8978,5.87,5.8052,5.7333,5.6635,5.6524,5.6415,5.6209,5.6209,5.5957,5.5358,5.5209,5.4554,5.3349,5.3229,5.2695,5.1803,5.1725,5.1694,5.5249,5.5721,5.6525,5.8228,5.8146,5.7859,5.8895,5.8845,5.846,5.8125,5.7954,5.8258,5.9615,6.0397,6.1776,6.4662,6.507,6.5321,6.6207,6.6503,6.7089,6.827,6.8536,6.9107,7.0326,7.0381,7.0428,7.0507,6.9836,6.944,6.9426,6.8662,6.8118,6.8048,6.7824,6.77,6.77,6.71,6.6888,6.7095,6.6587,6.6154,6.5713,6.5413,6.4971,6.4347,6.4176,6.3723,6.305,6.2683,6.2291,6.1851,6.1667,6.108,6.0134,5.8989,5.9006,5.9408,5.805,5.7985,5.8392,5.7739,5.7431,5.7338,5.7312,5.7662,5.8068,5.8027,5.7738,5.7431,5.7325,5.751,5.7717,5.7717,5.829,5.8853,5.8953,5.9621,6.0204,6.0204,6.0259,6.0267,6.0085,5.997,5.9891,5.9891,5.9829,5.9861,5.9975,5.9876,5.9758,5.9799,5.9395,5.9065,5.8959,5.7585,5.664,5.6446,5.6064,5.5786,5.5671,5.5642,5.5348,5.4691,5.4691,5.4134,5.3012,5.3012,5.2689,5.2129,5.2017,5.2033,5.5985,5.6866,5.7698,5.842,5.7641,5.7531,6.0668,6.0494,6.003,6.1185,6.1046,6.0983,6.1967,6.2613,6.3539,6.5182,6.6212,6.7219,6.8311,6.9247,7.0045,7.0747,7.0422,7.0477,7.1319,7.0193,6.9695,7.042,6.9769,6.9621,7.037,6.9513,6.9028,6.9014,6.8172,6.77,6.77,6.7627,6.764,6.7617,6.6122,6.5755,6.6416,6.5632,6.5251,6.5178,6.442,6.4066,6.3882,6.2328,6.2108,6.2646,6.1887,6.1397,6.0947,5.9547,5.929,5.9513,5.8951,5.9028,5.9267,5.9083,5.9028,5.8987,5.8898,5.8892,5.8886,5.8709,5.8744,5.8835,5.8821,5.9055,5.9235,5.9235,5.9378,5.9519,5.9519,6.0171,6.0751,6.0751,6.1331,6.1607,6.0846,6.0738,6.0724,6.0724,6.0616,6.0691,6.1107,6.1026,6.0769,6.0463,6.0387,6.0012,5.9172,5.711,5.5864,5.5876,5.5729,5.5426,5.4998,5.483,5.4554,5.4078,5.4062,5.3913,5.3632,5.3632,5.3532,5.3382,5.3365,5.3365,5.647,5.7365,5.831,5.9061,5.8878,5.9345,6.2173,6.2596,6.2631,6.3593,6.3623,6.3434,6.3199,6.4712,6.6148,6.6653,6.7561,6.8508,6.9425,6.9898,7.0389,7.114,7.1041,7.1245,7.2053,7.1678,7.1499,7.1747,7.1094,7.0776,7.0997,7.0184,6.9495,6.8967,6.8632,6.8201,6.77,6.77,6.77,6.77,6.7076,6.6953,6.726,6.6916,6.6459,6.5853,6.5524,6.5081,6.4453,6.341,6.3143,6.3313,6.2431,6.2036,6.1758,6.0289,6.0108,6.0452,5.8937,5.8756,5.912,5.857,5.8326,5.8237,5.8213,5.868,5.9233,5.9159,5.9692,6.006,5.9059,5.8964,5.9153,5.9153,5.9531,5.996,6.0056,6.0788,6.1434,6.1434,6.1742,6.1892,6.1484,6.1434,6.1301,6.097,6.0884,6.0847,6.0802,6.0549,6.0364,6.0313,5.995,5.9234,5.8092,5.7222,5.6556,5.6075,5.5131,5.452,5.4349,5.4285,5.4127,5.3816,5.3816,5.3717,5.3584,5.3584,5.3551,5.3518,5.3518,5.3518,5.7211,5.7908,5.8753,5.9802,5.994,6.0589,6.3629,6.4277,6.4616,6.5815,6.5696,6.5198,6.4556,6.5942,6.7259,6.7515,6.8651,6.9741,7.0389,7.0697,7.1064,7.16,7.1674,7.1894,7.2459,7.2361,7.2339,7.2496,7.1861,7.1493,7.1688,7.0917,7.022,6.9692,6.9412,6.9009,6.8471,6.8214,6.8077,6.8023,6.7607,6.7488,6.77,6.77,6.729,6.6591,6.6322,6.5656,6.4767,6.4314,6.3872,6.3397,6.2314,6.1864,6.1723,6.0553,6.052,6.0835,5.9208,5.9025,5.9393,5.8772,5.8507,5.8367,5.8367,5.8858,5.9452,5.9514,6.0088,6.0433,5.9399,5.9429,5.9738,5.9738,6.0153,6.0619,6.0753,6.1284,6.175,6.175,6.1798,6.1826,6.1728,6.1601,6.135,6.0992,6.0732,6.0472,6.0125,6.0051,6.0046,6.0028,5.9544,5.8789,5.7668,5.7308,5.6932,5.6422,5.523,5.4463,5.424,5.419,5.4005,5.3634,5.3634,5.3601,5.3518,5.3518,5.3518,5.3518,5.3518,5.3518,5.8345,5.8574,5.915,6.0625,6.0404,6.0864,6.4875,6.5437,6.5746,6.7954,6.7235,6.6249,6.6326,6.6176,6.6418,6.7537,6.9468,7.0902,7.1264,7.2004,7.2496,7.2496,7.2496,7.2496,7.2496,7.1784,7.1637,7.2459,7.1747,7.1674,7.2459,7.1747,7.1307,7.1307,7.055,7.011,7.011,6.9302,6.8816,6.87,6.7346,6.7046,6.77,6.7687,6.762,6.7433,6.6578,6.5692,6.4826,6.479,6.4034,6.2752,6.1272,6.0696,6.0636,6.0262,6.0258,6.0426,5.9956,5.9988,6.0278,6.0155,5.9959,5.9814,5.9814,5.9664,5.9566,5.973,5.9779,5.9862,6.0024,6.0681,6.1299,6.1299,6.1444,6.1609,6.1609,6.1609,6.1609,6.1609,6.1609,6.1609,6.1595,6.1131,6.0803,6.0803,6.016,5.9597,5.9248,5.972,5.9975,5.9636,5.9418,5.9003,5.8257,5.7347,5.6799,5.6799,5.6139,5.5448,5.4839,5.4669,5.4262,5.3551,5.3518,5.3518,5.3518,5.3518,5.3518,5.3518,5.3518,5.3518,5.7657,5.8112,5.8879,5.9895,6.1342,6.2899,6.459,6.5395,6.6441,6.8756,6.8567,6.7904,6.7794,6.7723,6.8039,6.9088,7.0113,7.1033,7.1721,7.1991,7.2218,7.2321,7.2373,7.2416,7.2481,7.2275,7.2239,7.2496,7.2275,7.2261,7.2496,7.2275,7.1857,7.1307,7.105,7.066,7.011,6.9205,6.8564,6.8116,6.7031,6.6794,6.7336,6.6953,6.686,6.699,6.6736,6.6337,6.5762,6.449,6.3135,6.1839,6.1013,6.0696,6.062,6.0084,5.9924,5.994,5.94,5.9664,6.0235,6.0184,6.0479,6.0722,6.0065,5.9995,5.9993,5.9406,5.94,5.9615,5.9664,5.9876,6.018,6.0666,6.0854,6.0959,6.1182,6.1314,6.1328,6.1087,6.1043,6.1066,6.1231,6.1018,6.0712,6.0367,6.0565,6.0582,6.0102,6.018,6.0018,5.9251,5.9143,5.8801,5.804,5.7715,5.7577,5.7577,5.7374,5.6681,5.5482,5.5396,5.5259,5.5056,5.5056,5.4803,5.4262,5.4803,5.4515,5.3518,5.4025,5.3991,5.8738,5.9397,6.0373,6.1501,6.3111,6.4754,6.6178,6.7014,6.7998,6.9739,6.9609,6.9198,6.9267,6.905,6.9125,6.9915,7.0614,7.1244,7.1732,7.1805,7.1903,7.2091,7.2106,7.2144,7.2292,7.2307,7.2197,7.2003,7.2167,7.2167,7.1876,7.2078,7.191,7.1153,7.131,7.1069,7.0425,6.9362,6.8574,6.8033,6.6607,6.6069,6.6395,6.6192,6.613,6.6233,6.5848,6.5745,6.5685,6.346,6.2209,6.1636,6.0422,5.9985,5.9985,5.9549,5.966,5.9903,5.9581,5.9926,6.051,6.051,6.0713,6.0774,5.9913,5.9745,5.968,5.889,5.884,5.9012,5.908,5.9339,5.9647,6.0078,6.0167,6.0246,6.0527,6.0569,6.0554,6.043,6.0568,6.0762,6.0893,6.0891,6.0722,6.0477,6.0587,6.0776,6.0782,6.0759,6.0551,5.9979,5.9892,5.9607,5.8829,5.849,5.8355,5.8355,5.8051,5.7476,5.663,5.6274,5.6003,5.5699,5.5699,5.5462,5.504,5.5462,5.5225,5.438,5.4837,5.4634,6.0768,6.1696,6.2808,6.4571,6.5472,6.6517,6.879,6.9433,6.9839,7.0672,7.0325,7.0011,7.0499,6.9996,6.9697,7.0185,7.0898,7.1352,7.1352,7.1352,7.1415,7.1625,7.164,7.1703,7.1815,7.1866,7.1646,7.1171,7.1568,7.1568,7.0891,7.1384,7.1415,7.0875,7.1204,7.1183,7.075,6.9564,6.8692,6.8053,6.6051,6.506,6.5043,6.5352,6.5433,6.5319,6.4449,6.4438,6.4845,6.2095,6.1353,6.174,5.9616,5.8875,5.8944,5.8874,5.9408,6.0167,6.0202,6.0629,6.1085,6.1085,6.0882,6.0501,5.9735,5.9383,5.9121,5.854,5.8357,5.8427,5.8606,5.9136,5.9605,5.9562,5.959,5.9725,5.9923,5.9841,5.9758,5.989,6.0299,6.0634,6.0669,6.0804,6.0978,6.1047,6.0535,6.0486,6.1298,6.14,6.1366,6.1298,6.1298,6.096,6.0182,5.9505,5.9081,5.9081,5.8457,5.8103,5.8103,5.734,5.6596,5.5902,5.5902,5.5868,5.58,5.5868,5.5834,5.5699,5.5767,5.5412,6.0765,6.1617,6.2943,6.5943,6.7562,6.8447,6.8535,6.905,6.9703,7.0294,6.9975,6.9804,7.0541,6.9687,6.9194,7.0018,7.0162,7.0165,7.0165,7.0165,7.0234,7.044,7.0457,7.0541,7.0637,7.0654,7.0604,7.0487,7.0587,7.0587,7.0419,7.0556,7.0573,7.0419,7.0487,7.0253,6.9559,6.8582,6.7498,6.63,6.4988,6.4199,6.3966,6.4428,6.479,6.4993,6.4666,6.4281,6.3737,6.2297,6.1327,6.0635,5.9306,5.8718,5.8682,5.9245,5.9553,5.9828,6.0376,6.1058,6.1636,6.1636,6.2009,6.2256,6.1389,6.1076,6.0849,5.9938,5.9716,5.9716,5.9719,5.9873,5.9979,5.9976,6.0415,6.0929,6.1223,6.1274,6.1172,6.0947,6.084,6.0935,6.1242,6.1253,6.1422,6.1999,6.1477,6.1298,6.2076,6.2144,6.1941,6.1366,6.1298,6.096,6.0182,5.9945,5.9877,5.9877,5.9708,5.9641,5.9641,5.8355,5.7577,5.7408,5.7408,5.7137,5.6562,5.7137,5.6833,5.5699,5.6274,5.619,6.021,6.1745,6.3769,6.7412,6.8613,6.891,6.8877,6.92,6.9566,6.977,6.9827,6.9955,7.0148,6.9653,6.9344,6.9653,6.9635,6.9562,6.9562,6.9562,6.9635,6.9849,6.9867,6.9902,7.0042,7.006,6.9955,6.9689,6.992,6.9902,6.9546,6.9832,6.9814,6.9546,6.9707,6.9371,6.8435,6.7746,6.6725,6.5405,6.4423,6.3714,6.334,6.3803,6.4093,6.427,6.411,6.3777,6.3325,6.2295,6.1546,6.0973,5.9965,5.9549,5.9599,5.9866,6.0259,6.0727,6.1102,6.1695,6.2233,6.2233,6.2449,6.2557,6.1694,6.1471,6.1282,6.0355,6.0114,6.0114,6.0114,6.0385,6.0689,6.0689,6.0687,6.075,6.1005,6.0988,6.0897,6.0823,6.0981,6.117,6.1369,6.1627,6.1941,6.2347,6.2076,6.1975,6.2367,6.24,6.2245,6.1873,6.1839,6.167,6.1231,6.0892,6.0689,6.0689,6.0317,6.0114,6.0114,5.937,5.893,5.893,5.893,5.8592,5.7848,5.8254,5.7848,5.6765,5.7137,5.6934,5.9424,6.2047,6.4976,6.8304,6.8977,6.8876,6.9113,6.9237,6.9309,6.9066,6.9581,6.9902,6.9543,6.9472,6.9435,6.9157,6.9101,6.9101,6.9101,6.9101,6.9157,6.9324,6.9342,6.9362,6.9491,6.9509,6.9344,6.8895,6.927,6.9217,6.8628,6.9083,6.912,6.8609,6.8793,6.8392,6.7342,6.6837,6.5978,6.4701,6.4007,6.3401,6.2962,6.334,6.3507,6.3489,6.3321,6.3246,6.3158,6.2202,6.1801,6.1661,6.0777,6.0471,6.0597,6.0585,6.103,6.1726,6.1862,6.2225,6.2669,6.2669,6.2518,6.2299,6.167,6.1501,6.1366,6.0689,6.0486,6.0486,6.0486,6.0994,6.1501,6.1501,6.0994,6.0524,6.0695,6.06,6.0543,6.0695,6.1143,6.1501,6.1501,6.2009,6.24,6.24,6.24,6.24,6.24,6.24,6.24,6.24,6.24,6.24,6.24,6.1839,6.1501,6.1501,6.0858,6.0486,6.0486,6.0486,6.0486,6.0486,6.025,5.981,5.9182,5.9182,5.8896,5.8272,5.817,5.7746,5.8631,6.2493,6.6341,6.7494,6.8695,6.9296,6.8049,6.8319,6.8632,6.8103,6.8513,6.8879,6.8838,6.8551,6.8319,6.826,6.826,6.826,6.826,6.826,6.826,6.8299,6.8299,6.8299,6.8338,6.8338,6.8299,6.8221,6.8299,6.828,6.8182,6.8241,6.826,6.8182,6.7599,6.6927,6.6109,6.5406,6.4499,6.3514,6.3242,6.2981,6.2731,6.2981,6.3095,6.3095,6.3057,6.3057,6.2969,6.2146,6.1726,6.156,6.0721,6.0321,6.0258,6.0931,6.1254,6.1443,6.2106,6.2391,6.244,6.244,6.242,6.24,6.2279,6.2245,6.2212,6.213,6.2076,6.2076,6.2076,6.2164,6.2245,6.2245,6.2164,6.2096,6.2115,6.2115,6.2096,6.2115,6.2197,6.2245,6.2245,6.2333,6.24,6.24,6.24,6.24,6.24,6.24,6.24,6.24,6.24,6.24,6.24,6.2333,6.2245,6.2245,6.2144,6.2076,6.2076,6.2076,6.2076,6.2076,6.0791,6.0047,5.9945,5.9945,5.9911,5.9776,5.9167,5.881,5.9293,6.1953,6.4399,6.7229,6.7907,6.7823,6.7555,6.7859,6.8103,6.7859,6.8083,6.8358,6.8358,6.8221,6.8083,6.8083,6.8083,6.8083,6.8083,6.8083,6.8083,6.8083,6.8083,6.8083,6.8083,6.8083,6.8083,6.8083,6.8083,6.8083,6.8083,6.8083,6.8083,6.8083,6.7359,6.6654,6.5895,6.4969,6.3985,6.2943,6.2751,6.2615,6.2518,6.2615,6.2789,6.3,6.2885,6.2828,6.2808,6.2319,6.2087,6.2029,6.167,6.1477,6.1434,6.1772,6.1907,6.1941,6.2299,6.24,6.24,6.24,6.24,6.24,6.24,6.24,6.24,6.24,6.24,6.24,6.24,6.2719,6.3024,6.3024,6.3024,6.3024,6.3024,6.2685,6.2516,6.2956,6.3362,6.3632,6.3632,6.3632,6.3497,6.3091,6.3024,6.3024,6.3024,6.3024,6.3024,6.3024,6.3024,6.2854,6.2434,6.24,6.24,6.24,6.24,6.24,6.24,6.24,6.24,6.24,6.1738,6.1197,6.0757,6.0757,6.0554,6.008,5.9776,5.9565,5.9012,6.0478,6.176,6.6144,6.6671,6.6368,6.727,6.7658,6.7799,6.7799,6.7979,6.8083,6.8083,6.8083,6.8083,6.8083,6.8083,6.8083,6.8083,6.8083,6.8083,6.8083,6.8083,6.8083,6.8083,6.8083,6.8083,6.8083,6.8083,6.8083,6.8083,6.8083,6.8014,6.7807,6.7083,6.6378,6.5619,6.4561,6.3585,6.2707,6.2479,6.24,6.24,6.24,6.2557,6.2847,6.2673,6.2615,6.2596,6.2459,6.24,6.24,6.24,6.24,6.24,6.24,6.24,6.24,6.24,6.24,6.24,6.24,6.24,6.24,6.24,6.24,6.2434,6.2618,6.2685,6.2719,6.2888,6.3362,6.3781,6.3781,6.3781,6.3714,6.3545,6.3057,6.2888,6.3632,6.4241,6.4613,6.4613,6.4613,6.441,6.3849,6.3781,6.3781,6.3781,6.3781,6.3781,6.3781,6.3781,6.3497,6.2753,6.2685,6.2584,6.2415,6.24,6.2502,6.2651,6.2685,6.2685,6.2685,6.2685,6.2313,6.1569,6.1569,6.1264,6.0689,6.0486,6.0304,5.6556,5.7834,5.9334,6.3326,6.4835,6.5739,6.7168,6.7658,6.7799,6.7799,6.7979,6.8083,6.8083,6.8083,6.8083,6.8083,6.8083,6.8083,6.8083,6.8083,6.8083,6.8083,6.8083,6.8083,6.8083,6.8083,6.8083,6.8083,6.8083,6.8083,6.8083,6.8083,6.7773,6.7103,6.6344,6.5585,6.4772,6.3638,6.2938,6.2707,6.2479,6.24,6.24,6.24,6.24,6.242,6.242,6.242,6.24,6.24,6.24,6.24,6.24,6.24,6.24,6.24,6.24,6.24,6.24,6.24,6.24,6.24,6.24,6.24,6.24,6.24,6.257,6.326,6.3443,6.3579,6.4309,6.4512,6.4546,6.4546,6.4546,6.4343,6.3646,6.3477,6.3646,6.441,6.458,6.4613,6.4613,6.4613,6.458,6.4546,6.4546,6.4546,6.4546,6.4546,6.4546,6.4546,6.4546,6.4241,6.3511,6.3443,6.3159,6.2415,6.24,6.2719,6.3409,6.3443,6.3443,6.3443,6.3443,6.3091,6.2347,6.2347,6.2313,6.2265,6.1569,6.1115,5.6048,5.6896,5.7931,6.1437,6.3324,6.458,6.5601,6.6839,6.7799,6.7799,6.7979,6.8083,6.8083,6.8083,6.8083,6.8083,6.8083,6.8083,6.8083,6.8083,6.8083,6.8083,6.8083,6.8083,6.8083,6.8083,6.7852,6.7251,6.7763,6.7817,6.7232,6.7783,6.798,6.7704,6.6551,6.5233,6.3827,6.3289,6.2904,6.2707,6.2479,6.24,6.24,6.24,6.24,6.24,6.24,6.24,6.24,6.24,6.24,6.24,6.24,6.24,6.24,6.24,6.24,6.24,6.24,6.24,6.24,6.24,6.24,6.24,6.24,6.2719,6.3159,6.3409,6.3849,6.4275,6.4546,6.4952,6.529,6.529,6.529,6.5222,6.4952,6.4918,6.4986,6.5256,6.5696,6.6034,6.6034,6.6034,6.5865,6.5358,6.529,6.529,6.529,6.529,6.529,6.529,6.529,6.5019,6.4275,6.4208,6.4106,6.3835,6.3802,6.3937,6.4208,6.4208,6.4208,6.4208,6.4208,6.3599,6.24,6.24,6.24,6.2381,6.1939,6.1627,5.5156,5.5716,5.6581,5.9981,6.1525,6.2751,6.4781,6.6077,6.7001,6.7576,6.7859,6.8019,6.8019,6.8044,6.8083,6.8083,6.8083,6.8083,6.8083,6.8083,6.8083,6.8083,6.8024,6.8019,6.8019,6.7959,6.7673,6.7133,6.7664,6.7738,6.7197,6.7763,6.798,6.7738,6.6198,6.4824,6.3566,6.3136,6.2789,6.2576,6.2459,6.24,6.24,6.24,6.24,6.24,6.24,6.24,6.24,6.24,6.24,6.24,6.24,6.24,6.24,6.24,6.24,6.2434,6.2685,6.2753,6.2821,6.3057,6.3125,6.3125,6.3125,6.3463,6.3917,6.4174,6.458,6.5019,6.529,6.5696,6.6068,6.6068,6.6068,6.6068,6.6068,6.5865,6.5764,6.6,6.6474,6.6791,6.6791,6.6791,6.6643,6.6136,6.6068,6.6068,6.6068,6.6068,6.6068,6.6068,6.6068,6.5764,6.5019,6.4952,6.485,6.4613,6.4613,6.4715,6.4952,6.4952,6.4952,6.4952,6.4952,6.4377,6.3125,6.3125,6.299,6.2753,6.2501,6.2105,0.0,0.0,0.0,5.8818,5.9374,6.0186,6.4754,6.5256,6.5289,6.7059,6.759,6.7731,6.7799,6.7945,6.8083,6.8083,6.8083,6.8083,6.8083,6.8083,6.8083,6.8083,6.7939,6.7799,6.7799,6.7618,6.7577,6.7745,6.7765,6.7865,6.8029,6.8083,6.7773,6.7034,6.5321,6.4339,6.4112,6.3164,6.2596,6.24,6.24,6.24,6.24,6.24,6.24,6.24,6.24,6.24,6.24,6.24,6.24,6.24,6.24,6.24,6.24,6.24,6.2415,6.2516,6.326,6.3511,6.3646,6.4377,6.4613,6.4613,6.4613,6.4613,6.4783,6.5514,6.5717,6.5899,6.6609,6.6791,6.6791,6.6791,6.6791,6.6791,6.6791,6.6237,6.5933,6.6677,6.6791,6.6791,6.6791,6.6791,6.6791,6.6791,6.6791,6.6791,6.6791,6.6791,6.6791,6.6791,6.6791,6.6542,6.5797,6.5784,6.5459,6.4783,6.4715,6.5019,6.5784,6.5784,6.5784,6.5784,6.5784,6.5392,6.4647,6.4613,6.4241,6.3545,6.331,6.2581,5.2908,0.0,0.0,0.0,0.0,0.0,6.051,6.134,6.2517,6.5323,6.5622,6.5916,6.749,6.7945,6.8044,6.7919,6.8019,6.8083,6.8083,6.8083,6.8083,6.8083,6.7939,6.7799,6.7799,6.7618,6.7311,6.6804,6.741,6.7599,6.7109,6.7729,6.7773,6.7034,6.5856,6.4946,6.4305,6.3241,6.2688,6.263,6.2459,6.24,6.24,6.24,6.24,6.24,6.24,6.24,6.24,6.24,6.24,6.24,6.24,6.24,6.24,6.24,6.2719,6.3226,6.3409,6.3849,6.4343,6.4546,6.4613,6.4613,6.4613,6.4952,6.5425,6.5649,6.6068,6.6542,6.6757,6.6791,6.6791,6.6791,6.6791,6.6791,6.6791,6.6622,6.6576,6.6757,6.6791,6.6791,6.6791,6.6791,6.6791,6.6791,6.6791,6.6791,6.6791,6.6791,6.6791,6.6791,6.6791,6.6927,6.7252,6.7286,6.7455,6.7827,6.732,6.7354,6.8132,6.759,6.7286,6.7286,6.7286,6.6914,6.6183,6.5121,6.4512,6.4289,6.3887,6.3371,0.0,5.3012,5.3708,5.4451,0.0,0.0,5.8998,5.9667,6.0748,6.3888,6.4376,6.4684,6.6305,6.7033,6.7339,6.7253,6.7493,6.7765,6.8044,6.8083,6.8083,6.8083,6.7859,6.7678,6.7678,6.7394,6.71,6.6895,6.7277,6.7406,6.7042,6.7559,6.7516,6.676,6.5808,6.4938,6.4166,6.3106,6.2557,6.2557,6.244,6.24,6.24,6.24,6.24,6.24,6.24,6.24,6.24,6.24,6.24,6.24,6.24,6.24,6.24,6.24,6.2651,6.3125,6.3768,6.4241,6.4715,6.5324,6.5527,6.5527,6.5527,6.5831,6.617,6.617,6.6474,6.6791,6.6791,6.6791,6.6791,6.6791,6.6791,6.6791,6.6791,6.6791,6.6893,6.7218,6.7252,6.7252,6.7252,6.7252,6.7151,6.6859,6.6791,6.6791,6.6791,6.6791,6.6914,6.7252,6.7252,6.7557,6.8335,6.8402,6.8605,6.9079,6.8673,6.8605,6.9079,6.8639,6.8402,6.8402,6.8064,6.7557,6.6791,6.5933,6.5255,6.4765,6.4409,6.3881,0.0,0.0,0.0,5.4678,5.4826,0.0,5.8668,5.8852,5.9239,6.2223,6.2922,6.3298,6.4341,6.5269,6.5872,6.5824,6.6399,6.7148,6.7925,6.8004,6.8004,6.8044,6.7739,6.751,6.751,6.7084,6.7001,6.7448,6.7325,6.727,6.7373,6.7373,6.7031,6.628,6.5295,6.4461,6.3815,6.2871,6.24,6.24,6.24,6.24,6.24,6.2502,6.2502,6.24,6.2482,6.2502,6.24,6.24,6.24,6.24,6.24,6.24,6.2415,6.2482,6.255,6.2821,6.4241,6.4783,6.5053,6.6352,6.6791,6.6791,6.6791,6.6791,6.6791,6.6791,6.6791,6.6791,6.6791,6.6791,6.6791,6.6791,6.6791,6.6791,6.6791,6.6791,6.6994,6.776,6.7895,6.7895,6.7895,6.7895,6.7692,6.6994,6.6859,6.6791,6.6791,6.6859,6.7184,6.7827,6.7996,6.8368,6.9147,6.9214,6.9248,6.935,6.9282,6.9248,6.935,6.9282,6.9214,6.9214,6.8436,6.7671,6.6905,6.6804,6.62,6.5137,6.49,6.4351,5.4166,5.4261,5.4395,5.4256,5.4613,0.0,5.4974,5.471,5.5295,5.8077,5.8209,5.8713,6.1568,6.2435,6.2568,6.2119,6.3934,6.5948,6.7406,6.7421,6.7421,6.7819,6.7638,6.751,6.751,6.7284,6.716,6.7243,6.7366,6.7196,6.6655,6.6621,6.63,6.5533,6.4546,6.3951,6.3815,6.2871,6.24,6.24,6.24,6.24,6.2434,6.3024,6.2956,6.2434,6.3024,6.2956,6.24,6.24,6.24,6.24,6.24,6.24,6.2448,6.3057,6.3666,6.4309,6.5155,6.5865,6.644,6.669,6.6791,6.6791,6.6791,6.6791,6.6791,6.6791,6.6791,6.6791,6.6791,6.6791,6.6791,6.6791,6.6791,6.6791,6.6791,6.6791,6.6994,6.776,6.7895,6.7895,6.7895,6.7895,6.7861,6.7692,6.7184,6.6791,6.6791,6.732,6.7726,6.7895,6.847,6.918,6.9925,7.0014,7.0229,7.0816,7.0297,7.0263,7.0872,7.0297,7.0014,7.0014,6.9248,6.8417,6.7447,6.684,6.632,6.5895,6.5689,6.5348,5.4763,5.4656,5.474,5.4464,5.431,0.0,0.0,5.3504,5.3635,5.6106,5.6119,5.6474,5.8953,5.9831,6.0351,6.0763,6.2622,6.4283,6.51,6.6412,6.7394,6.7618,6.7455,6.7346,6.7346,6.7139,6.7014,6.7014,6.7222,6.6964,6.6113,6.6058,6.5515,6.4446,6.392,6.3487,6.3114,6.2643,6.2584,6.2956,6.2956,6.3125,6.3497,6.3869,6.3666,6.299,6.3734,6.3632,6.299,6.3362,6.3497,6.3429,6.2705,6.2618,6.299,6.3342,6.3971,6.4715,6.5425,6.5933,6.6305,6.6677,6.6791,6.6791,6.6791,6.6791,6.6791,6.6791,6.6791,6.6859,6.7252,6.7354,6.7354,6.7354,6.7354,6.7252,6.6859,6.7096,6.7455,6.7827,6.8504,6.891,6.8571,6.8808,6.891,6.8538,6.8199,6.7963,6.7963,6.8267,6.8639,6.9011,6.9417,6.9958,7.0703,7.0737,7.0906,7.1289,7.0973,7.0906,7.1289,7.0939,7.0567,7.0217,6.9823,6.9139,6.8156,6.7655,6.6909,6.5955,6.5714,6.5537,5.5724,5.5468,5.5532,5.527,5.4549,5.3911,0.0,0.0,0.0,5.4321,5.4403,5.4652,5.6177,5.6998,5.7798,5.8833,6.0572,6.1702,6.1372,6.4199,6.6371,6.6644,6.6772,6.6852,6.6852,6.6516,6.6424,6.6728,6.6722,6.639,6.5688,6.554,6.4884,6.3545,6.3342,6.299,6.24,6.24,6.2685,6.3274,6.3443,6.3815,6.441,6.4681,6.441,6.3748,6.4478,6.441,6.3748,6.4343,6.4613,6.4478,6.3294,6.3193,6.3714,6.3849,6.4309,6.4918,6.5662,6.5899,6.6,6.6609,6.6791,6.6791,6.6791,6.6791,6.6791,6.6791,6.6791,6.6948,6.7523,6.7793,6.7895,6.7895,6.803,6.7963,6.7387,6.7726,6.8132,6.8132,6.9248,6.9992,6.9417,6.9789,6.9992,6.9383,6.918,6.9113,6.9113,6.9214,6.9553,7.0128,7.0331,7.0635,7.1255,7.1289,7.1289,7.1289,7.1289,7.1289,7.1289,7.1289,7.1041,7.0398,7.0354,6.9849,6.8864,6.8585,6.7591,6.6013,6.5902,6.5668,5.8495,5.8422,5.815,5.701,5.6131,5.5005,5.2921,0.0,5.1115,5.0941,0.0,5.155,5.2751,0.0,0.0,5.2974,5.555,5.7155,5.5912,5.9263,6.2269,6.3546,6.4814,6.5581,6.5581,6.4987,6.5114,6.6427,6.5546,6.5059,6.5425,6.4984,6.4343,6.3511,6.2854,6.2502,6.24,6.24,6.2415,6.2516,6.3193,6.3545,6.3646,6.4986,6.5155,6.4512,6.5256,6.5155,6.4478,6.458,6.4613,6.458,6.441,6.441,6.4546,6.5189,6.5514,6.5662,6.644,6.6677,6.669,6.6757,6.6791,6.6791,6.6791,6.6791,6.6791,6.6791,6.6791,6.6825,6.6893,6.7421,6.7895,6.7895,6.8436,6.8944,6.8876,6.891,6.8977,6.8977,6.962,7.0161,7.0116,7.0128,7.0184,7.0116,6.9519,6.9113,6.9113,6.9654,7.0116,7.0195,7.077,7.1188,7.1289,7.1289,7.1289,7.1289,7.1289,7.1289,7.1289,7.1289,7.1255,7.1176,7.0951,7.0377,6.9411,6.9161,6.8257,6.6779,6.7173,6.6662,5.9199,5.9278,5.8951,5.6843,5.5774,5.4583,5.2069,5.0647,4.9882,5.0092,0.0,0.0,0.0,0.0,0.0,0.0,5.3935,5.4888,5.4099,5.6927,5.9691,6.1368,6.221,6.2831,6.3267,6.3415,6.375,6.4355,6.39,6.376,6.4104,6.3917,6.3694,6.3511,6.2787,6.24,6.24,6.24,6.2618,6.3057,6.3342,6.3971,6.4783,6.5425,6.5527,6.5256,6.6,6.5933,6.5256,6.5696,6.5899,6.5899,6.5899,6.5628,6.5256,6.5581,6.5967,6.6373,6.669,6.6791,6.6791,6.6791,6.6791,6.6791,6.6791,6.6791,6.6791,6.6791,6.6791,6.6994,6.7895,6.8368,6.8707,6.9113,6.9485,6.962,6.918,6.9451,6.9722,6.9722,7.0331,7.0838,7.0838,7.0838,7.0838,7.0838,7.0567,7.0398,7.0398,7.0669,7.0838,7.0838,7.1142,7.1289,7.1289,7.1289,7.1289,7.1289,7.1289,7.1289,7.1289,7.1289,7.1289,7.1289,7.103,7.0611,7.008,6.9849,6.9107,6.7939,6.7701,6.7258,5.9751,6.0003,5.9862,5.6984,5.5483,5.408,5.1638,5.0393,4.9738,4.9798,5.0028,0.0,0.0,0.0,5.085,5.1627,0.0,5.2836,5.2429,5.4388,5.6516,5.8274,5.9317,6.025,6.1222,6.1558,6.184,6.2102,6.1721,6.1836,6.2656,6.2569,6.2791,6.3397,6.2767,6.24,6.24,6.24,6.2651,6.3193,6.3612,6.4377,6.5412,6.5797,6.6,6.6034,6.6576,6.6508,6.6034,6.6576,6.6791,6.6791,6.6791,6.6474,6.6,6.6,6.6339,6.6791,6.6791,6.6791,6.6791,6.6791,6.6948,6.7117,6.7117,6.7252,6.7434,6.7434,6.7434,6.7692,6.8808,6.9248,6.9553,7.006,7.0331,7.0331,6.9823,7.0128,7.05,7.05,7.0939,7.1289,7.1289,7.1289,7.1289,7.1289,7.1289,7.1289,7.1289,7.1289,7.1289,7.1289,7.1289,7.1289,7.1289,7.1289,7.1289,7.1289,7.1289,7.1289,7.1289,7.1289,7.1267,7.1199,7.0916,7.0687,7.0433,7.02,6.9722,6.8993,6.8473,6.7986,6.0691,6.1185,6.1381,5.8211,5.5984,5.3957,5.18,5.1465,5.1186,4.9659,5.1067,5.2108,5.0577,5.0484,5.0347,4.9561,5.0128,0.0,0.0,5.0745,5.202,5.3455,5.6097,5.8406,5.9891,5.9279,5.9114,6.0,5.8761,5.8993,6.1337,6.1013,6.1535,6.3161,6.2688,6.24,6.24,6.24,6.2415,6.2468,6.3869,6.458,6.4681,6.6136,6.6757,6.6757,6.6791,6.6791,6.6757,6.6791,6.6791,6.6791,6.6791,6.6791,6.6757,6.6757,6.6757,6.6791,6.6791,6.6791,6.6791,6.6791,6.7286,6.7861,6.7861,6.8402,6.9045,6.9045,6.9045,6.9045,6.9079,6.962,7.0184,7.0195,7.0737,7.1255,7.1222,7.1255,7.1255,7.1255,7.1289,7.1289,7.1289,7.1289,7.1289,7.1289,7.1289,7.1289,7.1289,7.1289,7.1289,7.1289,7.1289,7.1289,7.1289,7.1289,7.1289,7.1289,7.1289,7.1289,7.1289,7.1289,7.1199,7.0916,7.0631,7.0399,7.02,6.9941,6.9822,6.9765,6.9732,6.897,6.272,6.2777,6.2157,5.8494,5.6686,5.5082,5.2231,5.2262,5.2334,5.0367,5.2061,5.3082,5.0493,5.0589,5.0638,4.933,4.9192,4.8905,0.0,4.7606,4.8624,5.1413,5.3872,5.5505,5.5965,5.6274,5.6482,5.6665,5.6361,5.6743,5.8098,5.9026,6.0138,6.1501,6.1916,6.2209,6.24,6.2888,6.3125,6.3159,6.414,6.485,6.5324,6.5831,6.6339,6.6791,6.6791,6.6791,6.6791,6.6791,6.6791,6.6791,6.6791,6.6791,6.6859,6.7354,6.7523,6.7523,6.7523,6.7523,6.7455,6.696,6.732,6.7793,6.732,6.7692,6.8301,6.8301,6.8301,6.8538,6.9553,6.9992,7.0297,7.0804,7.1142,7.1289,7.1289,7.1289,7.1289,7.1289,7.1289,7.1289,7.1289,7.1289,7.1289,7.1289,7.1289,7.1289,7.1289,7.1289,7.1289,7.1289,7.1289,7.1289,7.1289,7.1289,7.1289,7.1289,7.1289,7.1289,7.1289,7.1289,7.1176,7.0916,7.0664,7.041,7.0176,6.9941,6.9798,6.9798,6.9798,6.9533,6.3209,6.31,6.2402,5.8801,5.7361,5.6132,5.3306,5.3695,5.4109,5.2166,5.3575,5.446,5.2117,5.1531,5.0984,4.9767,4.8972,4.8036,0.0,4.6371,4.7116,4.9353,5.1346,5.2923,5.3951,5.439,5.4584,5.4606,5.435,5.4722,5.5915,5.7344,5.8886,6.0511,6.1587,6.2229,6.24,6.3125,6.3511,6.3511,6.4512,6.5222,6.5717,6.5967,6.6339,6.6791,6.6791,6.6791,6.6791,6.6791,6.6791,6.6791,6.6791,6.6791,6.6859,6.7354,6.7658,6.7895,6.7895,6.7895,6.7793,6.7028,6.732,6.7793,6.7354,6.7895,6.8707,6.8707,6.891,6.935,7.0331,7.0601,7.0703,7.1188,7.1289,7.1289,7.1289,7.1289,7.1289,7.1289,7.1289,7.1289,7.1289,7.1289,7.1289,7.1289,7.1289,7.1289,7.1289,7.1289,7.1289,7.1289,7.1289,7.1289,7.1289,7.1289,7.1289,7.1289,7.1289,7.1289,7.1289,7.1222,7.1142,7.1148,7.0659,7.0427,7.0458,7.0026,6.9798,6.9798,6.9798,6.9798]}]]